[[{"header":{"parameterUnit":"m.s-1","parameterCategory":1,"la1":31.0,"la2":29.5877,"lo1":-88.7671,"lo2":-86.6584,"dy":0.0162,"dx":0.0185,"nx":115,"ny":88,"refTime":"2024-05-21T00:00:00:Z","depth":0,"parameterNumber":2,"parameterNumberName":"U-component_of_WINDS"},"data":[0.0,0.0,0.0,0.0,0.0,0.0,0.0,0.0,0.0,0.0,0.0,0.0,0.0,0.0,0.0,0.0,0.0,0.0,0.0,0.0,0.0,0.0,0.0,0.0,0.0,0.0,0.0,0.0,0.0,0.0,0.0,0.0,0.0,0.0,0.0,0.0,0.0,0.0,0.0,0.0,0.0,0.0,0.0,0.0,0.0,0.0,0.0,0.0,0.0,0.0,0.0,0.0,0.0,0.0,0.0,0.0,0.0,0.0,0.0,0.0,0.0,0.0,0.0,0.0,0.0,0.0,0.0,0.0,0.0,0.0,0.0,0.0,0.0,0.0,0.0,0.0,0.0,0.0,0.0,0.0,0.0,0.0,0.0,0.0,0.0,0.0,0.0,0.0,0.0,0.0,0.0,0.0,0.0,0.0,0.0,0.0,0.0,0.0,0.0,0.0,0.0,0.0,0.0,0.0,0.0,0.0,0.0,0.0,0.0,0.0,0.0,0.0,0.0,0.0,0.0,0.0,0.0,0.0,0.0,0.0,0.0,0.0,0.0,0.0,0.0,0.0,0.0,0.0,0.0,0.0,0.0,0.0,0.0,0.0,0.0,0.0,0.0,0.0,0.0,0.0,0.0,0.0,0.0,0.0,0.0,0.0,0.0,0.0,0.0,0.0,0.0,0.0,0.0,0.0,0.0,0.0,0.0,0.0,0.0,0.0,0.0,0.0,0.0,0.0,0.0,0.0,0.0,0.0,0.0,0.0,0.0,0.0,0.0,0.0,0.0,0.0,0.0,0.0,0.0,0.0,0.0,0.0,0.0,0.0,0.0,0.0,0.0,0.0,0.0,0.0,0.0,0.0,0.0,0.0,0.0,0.0,0.0,0.0,0.0,0.0,0.0,0.0,0.0,0.0,0.0,0.0,0.0,0.0,0.0,0.0,0.0,0.0,0.0,0.0,0.0,0.0,0.0,0.0,0.0,0.0,0.0,0.0,0.0,0.0,0.0,0.0,0.0,0.0,0.0,0.0,0.0,0.0,0.0,0.0,0.0,0.0,0.0,0.0,0.0,0.0,0.0,0.0,0.0,0.0,0.0,0.0,0.0,0.0,0.0,0.0,0.0,0.0,0.0,0.0,0.0,0.0,0.0,0.0,0.0,0.0,0.0,0.0,0.0,0.0,0.0,0.0,0.0,0.0,0.0,0.0,0.0,0.0,0.0,0.0,0.0,0.0,0.0,0.0,0.0,0.0,0.0,0.0,0.0,0.0,0.0,0.0,0.0,0.0,0.0,0.0,0.0,0.0,0.0,0.0,0.0,0.0,0.0,0.0,0.0,0.0,0.0,0.0,0.0,0.0,0.0,0.0,0.0,0.0,0.0,0.0,0.0,0.0,0.0,0.0,0.0,0.0,0.0,0.0,0.0,0.0,0.0,0.0,0.0,0.0,0.0,0.0,0.0,0.0,0.0,0.0,0.0,0.0,0.0,0.0,0.0,0.0,0.0,0.0,0.0,0.0,0.0,0.0,0.0,0.0,0.0,0.0,0.0,0.0,0.0,0.0,0.0,0.0,0.0,0.0,0.0,0.0,0.0,0.0,0.0,0.0,0.0,0.0,0.0,0.0,0.0,0.0,0.0,0.0,0.0,0.0,0.0,0.0,0.0,0.0,0.0,0.0,0.0,0.0,0.0,0.0,0.0,0.0,0.0,0.0,0.0,0.0,0.0,0.0,0.0,0.0,0.0,0.0,0.0,0.0,0.0,0.0,0.0,0.0,0.0,0.0,0.0,0.0,0.0,0.0,0.0,0.0,0.0,0.0,0.0,0.0,0.0,0.0,0.0,0.0,0.0,0.0,0.0,0.0,0.0,0.0,0.0,0.0,0.0,0.0,0.0,0.0,0.0,0.0,0.0,0.0,0.0,0.0,0.0,0.0,0.0,0.0,0.0,0.0,0.0,0.0,0.0,0.0,0.0,0.0,0.0,0.0,0.0,0.0,0.0,0.0,0.0,0.0,0.0,0.0,0.0,0.0,0.0,0.0,0.0,0.0,0.0,0.0,0.0,0.0,0.0,0.0,0.0,0.0,0.0,0.0,0.0,0.0,0.0,0.0,0.0,0.0,0.0,0.0,0.0,0.0,0.0,0.0,0.0,0.0,0.0,0.0,0.0,0.0,0.0,0.0,0.0,0.0,0.0,0.0,0.0,0.0,0.0,0.0,0.0,0.0,0.0,0.0,0.0,0.0,0.0,0.0,0.0,0.0,0.0,0.0,0.0,0.0,0.0,0.0,0.0,0.0,0.0,0.0,0.0,0.0,0.0,0.0,0.0,0.0,0.0,0.0,0.0,0.0,0.0,0.0,0.0,0.0,0.0,0.0,0.0,0.0,0.0,0.0,0.0,0.0,0.0,0.0,0.0,0.0,0.0,0.0,0.0,0.0,0.0,0.0,0.0,0.0,0.0,0.0,0.0,0.0,0.0,0.0,0.0,0.0,0.0,0.0,0.0,0.0,0.0,0.0,0.0,0.0,0.0,0.0,0.0,0.0,0.0,0.0,0.0,0.0,0.0,0.0,0.0,0.0,0.0,0.0,0.0,0.0,0.0,0.0,0.0,0.0,0.0,0.0,0.0,0.0,0.0,0.0,0.0,0.0,0.0,0.0,0.0,0.0,0.0,0.0,0.0,0.0,0.0,0.0,0.0,0.0,0.0,0.0,0.0,0.0,0.0,0.0,0.0,0.0,0.0,0.0,0.0,0.0,0.0,0.0,0.0,0.0,0.0,0.0,0.0,0.0,0.0,0.0,0.0,0.0,0.0,0.0,0.0,0.0,0.0,0.0,0.0,0.0,0.0,0.0,0.0,0.0,0.0,0.0,0.0,0.0,0.0,0.0,0.0,0.0,0.0,0.0,0.0,0.0,0.0,0.0,0.0,0.0,0.0,0.0,0.0,0.0,0.0,0.0,0.0,0.0,0.0,0.0,0.0,0.0,0.0,0.0,0.0,0.0,0.0,0.0,0.0,0.0,0.0,0.0,0.0,0.0,0.0,0.0,0.0,0.0,0.0,0.0,0.0,0.0,0.0,0.0,0.0,0.0,0.0,0.0,0.0,0.0,0.0,0.0,0.0,0.0,0.0,0.0,0.0,0.0,0.0,0.0,0.0,0.0,0.0,0.0,0.0,0.0,0.0,0.0,0.0,0.0,0.0,0.0,0.0,0.0,0.0,0.0,0.0,0.0,0.0,0.0,0.0,0.0,0.0,0.0,0.0,0.0,0.0,0.0,0.0,0.0,0.0,0.0,0.0,0.0,0.0,0.0,0.0,0.0,0.0,0.0,0.0,0.0,0.0,0.0,0.0,0.0,0.0,0.0,0.0,0.0,0.0,0.0,0.0,0.0,0.0,0.0,0.0,0.0,0.0,0.0,0.0,0.0,0.0,0.0,0.0,0.0,0.0,0.0,0.0,0.0,0.0,0.0,0.0,0.0,0.0,0.0,0.0,0.0,0.0,0.0,0.0,0.0,0.0,0.0,0.0,0.0,0.0,0.0,0.0,0.0,0.0,0.0,0.0,0.0,0.0,0.0,0.0,0.0,0.0,0.0,0.0,0.0,0.0,0.0,0.0,0.0,0.0,0.0,0.0,0.0,0.0,0.0,0.0,0.0,0.0,0.0,0.0,0.0,0.0,0.0,0.0,0.0,0.0,0.0,0.0,0.0,0.0,0.0,0.0,0.0,0.0,0.0,0.0,0.0,0.0,0.0,0.0,0.0,0.0,0.0,0.0,0.0,0.0,0.0,0.0,0.0,0.0,0.0,0.0,0.0,0.0,0.0,0.0,0.0,0.0,0.0,0.0,0.0,0.0,0.0,0.0,0.0,0.0,0.0,0.0,0.0,0.0,0.0,0.0,0.0,0.0,0.0,0.0,0.0,0.0,0.0,0.0,0.0,0.0,0.0,0.0,0.0,0.0,0.0,0.0,0.0,0.0,0.0,0.0,0.0,0.0,0.0,0.0,0.0,0.0,0.0,0.0,0.0,0.0,0.0,0.0,0.0,0.0,0.0,0.0,0.0,0.0,0.0,0.0,0.0,0.0,0.0,0.0,0.0,0.0,0.0,0.0,0.0,0.0,0.0,0.0,0.0,0.0,0.0,0.0,0.0,0.0,0.0,0.0,0.0,0.0,0.0,0.0,0.0,0.0,0.0,0.0,0.0,0.0,0.0,0.0,0.0,0.0,0.0,0.0,0.0,0.0,0.0,0.0,0.0,0.0,0.0,0.0,0.0,0.0,0.0,-2.3855,0.0,0.0,0.0,0.0,0.0,0.0,0.0,0.0,0.0,0.0,0.0,0.0,0.0,0.0,0.0,0.0,0.0,0.0,0.0,0.0,0.0,0.0,0.0,0.0,0.0,0.0,0.0,0.0,0.0,0.0,0.0,0.0,0.0,0.0,0.0,0.0,0.0,0.0,0.0,0.0,0.0,0.0,0.0,0.0,0.0,0.0,0.0,0.0,0.0,0.0,0.0,0.0,0.0,0.0,0.0,0.0,0.0,0.0,0.0,0.0,0.0,0.0,0.0,0.0,0.0,0.0,0.0,0.0,0.0,0.0,0.0,0.0,0.0,0.0,0.0,0.0,0.0,0.0,0.0,0.0,0.0,0.0,0.0,0.0,0.0,0.0,0.0,0.0,0.0,0.0,0.0,0.0,0.0,0.0,0.0,0.0,0.0,0.0,0.0,0.0,0.0,0.0,0.0,0.0,0.0,0.0,0.0,0.0,0.0,0.0,-2.7517,-2.7166,-2.6759,-2.6172,-2.5335,0.0,0.0,0.0,0.0,0.0,0.0,0.0,0.0,0.0,0.0,0.0,0.0,0.0,0.0,0.0,0.0,0.0,0.0,0.0,0.0,0.0,0.0,0.0,0.0,0.0,0.0,0.0,0.0,0.0,0.0,0.0,0.0,0.0,0.0,0.0,0.0,0.0,0.0,0.0,0.0,0.0,0.0,0.0,0.0,0.0,0.0,0.0,0.0,0.0,0.0,0.0,0.0,0.0,0.0,0.0,0.0,0.0,0.0,0.0,0.0,0.0,0.0,0.0,0.0,0.0,0.0,0.0,0.0,0.0,0.0,0.0,0.0,0.0,0.0,0.0,0.0,0.0,0.0,0.0,0.0,0.0,0.0,0.0,0.0,0.0,0.0,0.0,0.0,0.0,0.0,0.0,0.0,0.0,0.0,0.0,0.0,0.0,0.0,0.0,0.0,0.0,0.0,0.0,0.0,0.0,0.0,0.0,0.0,0.0,0.0,0.0,0.0,-2.7962,-2.7485,-2.6421,0.0,0.0,0.0,0.0,0.0,0.0,0.0,0.0,0.0,0.0,0.0,0.0,0.0,0.0,0.0,0.0,0.0,0.0,0.0,0.0,0.0,0.0,0.0,0.0,0.0,0.0,0.0,0.0,0.0,0.0,0.0,0.0,0.0,0.0,0.0,0.0,0.0,0.0,0.0,0.0,0.0,0.0,0.0,0.0,0.0,0.0,0.0,0.0,0.0,0.0,0.0,0.0,0.0,0.0,0.0,0.0,0.0,0.0,0.0,0.0,0.0,0.0,0.0,0.0,0.0,0.0,0.0,0.0,0.0,0.0,0.0,0.0,0.0,0.0,0.0,0.0,0.0,0.0,0.0,0.0,0.0,0.0,0.0,0.0,0.0,0.0,0.0,0.0,0.0,0.0,0.0,0.0,0.0,0.0,0.0,0.0,0.0,0.0,0.0,0.0,0.0,0.0,0.0,0.0,0.0,0.0,0.0,0.0,0.0,0.0,-2.9593,-2.8815,-2.8796,0.0,-2.644,0.0,0.0,0.0,0.0,0.0,0.0,0.0,0.0,0.0,0.0,0.0,0.0,0.0,0.0,0.0,0.0,0.0,0.0,0.0,0.0,0.0,0.0,0.0,0.0,0.0,0.0,0.0,0.0,0.0,0.0,0.0,0.0,0.0,0.0,0.0,0.0,0.0,0.0,0.0,0.0,0.0,0.0,0.0,0.0,0.0,0.0,0.0,0.0,0.0,0.0,0.0,0.0,0.0,0.0,0.0,0.0,0.0,0.0,0.0,0.0,0.0,0.0,0.0,0.0,0.0,0.0,0.0,0.0,0.0,0.0,0.0,0.0,0.0,0.0,0.0,0.0,0.0,0.0,0.0,0.0,0.0,0.0,0.0,0.0,0.0,0.0,0.0,0.0,0.0,0.0,0.0,0.0,0.0,0.0,0.0,0.0,0.0,0.0,0.0,0.0,0.0,0.0,0.0,0.0,0.0,0.0,0.0,0.0,0.0,0.0,-3.0032,-2.9681,-2.8707,-2.7867,0.0,0.0,0.0,0.0,0.0,0.0,0.0,0.0,0.0,0.0,0.0,0.0,0.0,0.0,0.0,0.0,0.0,0.0,0.0,0.0,0.0,0.0,0.0,0.0,0.0,0.0,0.0,0.0,0.0,0.0,0.0,0.0,0.0,0.0,0.0,0.0,0.0,0.0,0.0,0.0,0.0,0.0,0.0,0.0,0.0,0.0,0.0,0.0,0.0,0.0,0.0,0.0,0.0,0.0,0.0,0.0,0.0,0.0,0.0,0.0,0.0,0.0,0.0,0.0,0.0,0.0,0.0,0.0,0.0,0.0,0.0,0.0,0.0,0.0,0.0,0.0,0.0,0.0,0.0,0.0,0.0,0.0,0.0,0.0,0.0,0.0,0.0,0.0,0.0,0.0,0.0,0.0,0.0,0.0,0.0,0.0,0.0,0.0,0.0,0.0,0.0,0.0,0.0,0.0,0.0,0.0,0.0,0.0,0.0,0.0,-3.007,0.0,-3.0128,-2.858,-2.7701,-2.7682,0.0,0.0,0.0,0.0,0.0,0.0,0.0,0.0,0.0,0.0,0.0,0.0,0.0,0.0,0.0,0.0,0.0,0.0,0.0,0.0,0.0,0.0,0.0,0.0,0.0,0.0,0.0,0.0,0.0,0.0,0.0,0.0,0.0,0.0,0.0,0.0,0.0,0.0,0.0,0.0,0.0,0.0,0.0,0.0,0.0,0.0,0.0,0.0,0.0,0.0,0.0,0.0,0.0,0.0,0.0,0.0,0.0,0.0,0.0,0.0,0.0,0.0,0.0,0.0,0.0,0.0,0.0,0.0,0.0,0.0,0.0,0.0,0.0,0.0,0.0,0.0,0.0,0.0,0.0,0.0,0.0,0.0,0.0,0.0,0.0,0.0,0.0,0.0,0.0,0.0,0.0,0.0,0.0,0.0,0.0,0.0,0.0,0.0,0.0,0.0,0.0,0.0,0.0,0.0,0.0,0.0,0.0,0.0,0.0,-2.9765,-3.0204,-3.0173,-2.8561,-2.7701,0.0,0.0,0.0,0.0,0.0,0.0,0.0,0.0,0.0,0.0,0.0,0.0,0.0,0.0,0.0,0.0,0.0,0.0,0.0,0.0,0.0,0.0,0.0,0.0,0.0,0.0,0.0,0.0,0.0,0.0,0.0,0.0,0.0,0.0,0.0,0.0,0.0,0.0,0.0,0.0,0.0,0.0,0.0,0.0,0.0,0.0,0.0,0.0,0.0,0.0,0.0,0.0,0.0,0.0,0.0,0.0,0.0,0.0,0.0,0.0,0.0,0.0,0.0,0.0,0.0,0.0,0.0,0.0,0.0,0.0,0.0,0.0,0.0,0.0,0.0,0.0,0.0,0.0,0.0,0.0,0.0,0.0,0.0,0.0,0.0,0.0,0.0,0.0,0.0,0.0,0.0,0.0,0.0,0.0,0.0,0.0,0.0,0.0,0.0,0.0,0.0,0.0,0.0,0.0,0.0,0.0,0.0,0.0,0.0,-2.8879,-2.9765,-3.0204,-3.0154,-2.858,-2.7701,0.0,0.0,0.0,0.0,0.0,0.0,0.0,0.0,0.0,0.0,0.0,0.0,0.0,0.0,0.0,0.0,0.0,0.0,0.0,0.0,0.0,0.0,0.0,0.0,0.0,0.0,0.0,0.0,0.0,0.0,0.0,0.0,0.0,0.0,0.0,0.0,0.0,0.0,0.0,0.0,0.0,0.0,0.0,0.0,0.0,0.0,0.0,0.0,0.0,0.0,0.0,0.0,0.0,0.0,0.0,0.0,0.0,0.0,0.0,0.0,0.0,0.0,0.0,0.0,0.0,0.0,0.0,0.0,0.0,0.0,0.0,0.0,0.0,0.0,0.0,0.0,0.0,0.0,0.0,0.0,0.0,0.0,0.0,0.0,0.0,0.0,0.0,0.0,0.0,0.0,0.0,0.0,0.0,0.0,0.0,0.0,0.0,0.0,0.0,0.0,0.0,0.0,0.0,0.0,0.0,0.0,0.0,0.0,0.0,-2.9299,0.0,-3.0204,0.0,-2.858,-2.7701,0.0,0.0,0.0,0.0,0.0,0.0,0.0,0.0,0.0,0.0,0.0,0.0,0.0,0.0,0.0,0.0,0.0,0.0,0.0,0.0,0.0,0.0,0.0,0.0,0.0,0.0,0.0,0.0,0.0,0.0,0.0,0.0,0.0,0.0,0.0,0.0,0.0,0.0,0.0,0.0,0.0,0.0,0.0,0.0,0.0,0.0,0.0,0.0,0.0,0.0,0.0,0.0,0.0,0.0,0.0,0.0,0.0,0.0,0.0,0.0,0.0,0.0,0.0,0.0,0.0,0.0,0.0,0.0,0.0,0.0,0.0,0.0,0.0,0.0,0.0,0.0,0.0,0.0,0.0,0.0,0.0,0.0,0.0,0.0,0.0,0.0,0.0,0.0,0.0,0.0,0.0,0.0,0.0,0.0,0.0,0.0,0.0,0.0,0.0,0.0,0.0,0.0,0.0,0.0,0.0,0.0,0.0,0.0,-2.8574,-3.0115,-3.0192,-3.0223,-3.0173,-2.8618,-2.772,0.0,0.0,0.0,0.0,0.0,0.0,0.0,0.0,0.0,0.0,0.0,0.0,0.0,0.0,0.0,0.0,0.0,0.0,0.0,0.0,0.0,0.0,0.0,0.0,0.0,0.0,0.0,0.0,0.0,0.0,0.0,0.0,0.0,0.0,0.0,0.0,0.0,0.0,0.0,0.0,0.0,0.0,0.0,0.0,0.0,0.0,0.0,0.0,0.0,0.0,0.0,0.0,0.0,0.0,0.0,0.0,0.0,0.0,0.0,0.0,0.0,0.0,0.0,0.0,0.0,0.0,0.0,0.0,0.0,0.0,0.0,0.0,0.0,0.0,0.0,0.0,0.0,0.0,0.0,0.0,0.0,0.0,0.0,0.0,0.0,0.0,0.0,0.0,0.0,0.0,0.0,0.0,0.0,0.0,0.0,0.0,0.0,0.0,0.0,0.0,0.0,0.0,0.0,0.0,0.0,0.0,0.0,0.0,0.0,-3.0987,-3.0491,-3.0452,-3.0942,-2.9395,-2.8268,0.0,0.0,0.0,0.0,0.0,0.0,0.0,0.0,0.0,0.0,0.0,0.0,0.0,0.0,0.0,0.0,0.0,0.0,0.0,0.0,0.0,0.0,0.0,0.0,0.0,0.0,0.0,0.0,0.0,0.0,0.0,0.0,0.0,0.0,0.0,0.0,0.0,0.0,0.0,0.0,0.0,0.0,0.0,0.0,0.0,0.0,0.0,0.0,0.0,0.0,0.0,0.0,0.0,0.0,0.0,0.0,0.0,0.0,0.0,0.0,0.0,0.0,0.0,0.0,0.0,0.0,0.0,0.0,0.0,0.0,0.0,0.0,0.0,0.0,0.0,0.0,0.0,0.0,0.0,0.0,0.0,0.0,0.0,0.0,0.0,0.0,0.0,0.0,0.0,0.0,0.0,0.0,0.0,0.0,0.0,0.0,0.0,0.0,0.0,0.0,0.0,0.0,0.0,0.0,0.0,0.0,0.0,0.0,0.0,-3.2691,-3.1691,-3.1362,-3.1878,-3.0254,-2.9147,-2.8618,0.0,0.0,0.0,0.0,0.0,0.0,0.0,0.0,0.0,0.0,0.0,0.0,0.0,0.0,0.0,0.0,0.0,0.0,0.0,0.0,0.0,0.0,0.0,0.0,0.0,0.0,0.0,0.0,0.0,0.0,0.0,0.0,0.0,0.0,0.0,0.0,0.0,0.0,0.0,0.0,0.0,0.0,0.0,0.0,0.0,0.0,0.0,0.0,0.0,0.0,0.0,0.0,0.0,0.0,0.0,0.0,0.0,0.0,0.0,0.0,0.0,0.0,0.0,0.0,0.0,0.0,0.0,0.0,0.0,0.0,0.0,0.0,0.0,0.0,0.0,0.0,0.0,0.0,0.0,0.0,0.0,0.0,0.0,0.0,0.0,0.0,0.0,0.0,0.0,0.0,0.0,0.0,0.0,0.0,0.0,0.0,0.0,0.0,0.0,0.0,0.0,0.0,0.0,0.0,0.0,0.0,0.0,0.0,-3.5065,-3.3702,-3.294,-3.2825,-3.1228,-3.028,0.0,0.0,0.0,0.0,0.0,0.0,0.0,0.0,0.0,0.0,0.0,0.0,0.0,0.0,0.0,0.0,0.0,0.0,0.0,0.0,0.0,0.0,0.0,0.0,0.0,0.0,0.0,0.0,0.0,0.0,0.0,0.0,0.0,0.0,0.0,0.0,0.0,0.0,0.0,0.0,0.0,0.0,0.0,0.0,0.0,0.0,0.0,0.0,0.0,0.0,0.0,0.0,0.0,0.0,0.0,0.0,0.0,0.0,0.0,0.0,0.0,0.0,0.0,0.0,0.0,0.0,0.0,0.0,0.0,0.0,0.0,0.0,0.0,0.0,0.0,0.0,0.0,0.0,0.0,0.0,0.0,0.0,0.0,0.0,0.0,0.0,0.0,0.0,0.0,0.0,0.0,0.0,0.0,0.0,0.0,0.0,0.0,0.0,0.0,0.0,0.0,0.0,0.0,0.0,0.0,0.0,0.0,0.0,0.0,-3.502,-3.5873,-3.5727,-3.4503,-3.2843,-3.1409,0.0,0.0,0.0,0.0,0.0,0.0,0.0,0.0,0.0,0.0,0.0,0.0,0.0,0.0,0.0,0.0,0.0,0.0,0.0,0.0,0.0,0.0,0.0,0.0,0.0,0.0,0.0,0.0,0.0,0.0,0.0,0.0,0.0,0.0,0.0,0.0,0.0,0.0,0.0,0.0,0.0,0.0,0.0,0.0,0.0,0.0,0.0,0.0,0.0,0.0,0.0,0.0,0.0,0.0,0.0,0.0,0.0,0.0,0.0,0.0,0.0,0.0,0.0,0.0,0.0,0.0,0.0,0.0,0.0,0.0,0.0,0.0,0.0,0.0,0.0,0.0,0.0,0.0,0.0,0.0,0.0,0.0,0.0,0.0,0.0,0.0,0.0,0.0,0.0,0.0,0.0,0.0,0.0,0.0,0.0,0.0,0.0,0.0,0.0,0.0,0.0,0.0,0.0,0.0,0.0,0.0,0.0,0.0,-3.5599,-3.6962,-3.7979,-3.8068,-3.7148,-3.4871,-3.3064,0.0,0.0,0.0,0.0,0.0,0.0,0.0,0.0,0.0,0.0,0.0,0.0,0.0,0.0,0.0,0.0,0.0,0.0,0.0,0.0,0.0,0.0,0.0,0.0,0.0,0.0,0.0,0.0,0.0,0.0,0.0,0.0,0.0,0.0,0.0,0.0,0.0,0.0,0.0,0.0,0.0,0.0,0.0,0.0,0.0,0.0,0.0,0.0,0.0,0.0,0.0,0.0,0.0,0.0,0.0,0.0,0.0,0.0,0.0,0.0,0.0,0.0,0.0,0.0,0.0,0.0,0.0,0.0,0.0,0.0,0.0,0.0,0.0,0.0,0.0,0.0,0.0,0.0,0.0,0.0,0.0,0.0,0.0,0.0,0.0,0.0,0.0,0.0,0.0,0.0,0.0,0.0,0.0,0.0,0.0,0.0,0.0,0.0,0.0,0.0,0.0,0.0,0.0,0.0,0.0,0.0,0.0,0.0,-3.6548,-3.9602,-3.9841,-3.9936,-3.9916,-3.6977,-3.4878,0.0,0.0,0.0,0.0,0.0,0.0,0.0,0.0,0.0,0.0,0.0,0.0,0.0,0.0,0.0,0.0,0.0,0.0,0.0,0.0,0.0,0.0,0.0,0.0,0.0,0.0,0.0,0.0,0.0,0.0,0.0,0.0,0.0,0.0,0.0,0.0,0.0,0.0,0.0,0.0,0.0,0.0,0.0,0.0,0.0,0.0,0.0,0.0,0.0,0.0,0.0,0.0,0.0,0.0,0.0,0.0,0.0,0.0,0.0,0.0,0.0,0.0,0.0,0.0,0.0,0.0,0.0,0.0,0.0,0.0,0.0,0.0,0.0,0.0,0.0,0.0,0.0,0.0,0.0,0.0,0.0,0.0,0.0,0.0,0.0,0.0,0.0,0.0,0.0,0.0,0.0,0.0,0.0,0.0,0.0,0.0,0.0,0.0,0.0,0.0,0.0,0.0,0.0,0.0,0.0,0.0,0.0,0.0,-3.7547,-3.947,-4.0289,-4.0707,-4.0748,-3.831,-3.6017,0.0,0.0,0.0,0.0,0.0,0.0,0.0,0.0,0.0,0.0,0.0,0.0,0.0,0.0,0.0,0.0,0.0,0.0,0.0,0.0,0.0,0.0,0.0,0.0,0.0,0.0,0.0,0.0,0.0,0.0,0.0,0.0,0.0,0.0,0.0,0.0,0.0,0.0,0.0,0.0,0.0,0.0,0.0,0.0,0.0,0.0,0.0,0.0,-2.1101,0.0,0.0,0.0,0.0,0.0,0.0,0.0,0.0,0.0,0.0,0.0,0.0,0.0,0.0,0.0,0.0,0.0,0.0,0.0,0.0,0.0,0.0,0.0,0.0,0.0,0.0,0.0,0.0,0.0,0.0,0.0,0.0,0.0,0.0,0.0,0.0,0.0,0.0,0.0,0.0,0.0,0.0,0.0,0.0,0.0,0.0,0.0,0.0,0.0,0.0,0.0,0.0,0.0,0.0,0.0,0.0,0.0,0.0,0.0,-3.8502,-4.0472,-4.1458,-4.1794,-4.1425,-3.9551,-3.7239,0.0,0.0,0.0,0.0,0.0,0.0,0.0,0.0,0.0,0.0,0.0,0.0,0.0,0.0,0.0,0.0,0.0,0.0,0.0,0.0,0.0,0.0,0.0,0.0,0.0,0.0,0.0,0.0,0.0,0.0,0.0,0.0,0.0,0.0,0.0,0.0,0.0,0.0,0.0,0.0,0.0,0.0,0.0,0.0,0.0,0.0,0.0,0.0,0.0,0.0,0.0,0.0,0.0,0.0,0.0,0.0,0.0,0.0,0.0,0.0,0.0,0.0,0.0,0.0,0.0,0.0,0.0,0.0,0.0,0.0,0.0,0.0,0.0,0.0,0.0,0.0,0.0,0.0,0.0,0.0,0.0,0.0,0.0,0.0,0.0,0.0,0.0,0.0,0.0,0.0,0.0,0.0,0.0,0.0,0.0,0.0,0.0,0.0,0.0,0.0,0.0,0.0,0.0,0.0,0.0,0.0,0.0,-3.6701,-3.9137,-4.1547,-4.2571,-4.2707,-4.197,-4.0459,-3.818,-3.505,0.0,0.0,0.0,0.0,0.0,0.0,0.0,0.0,0.0,0.0,0.0,0.0,0.0,0.0,0.0,0.0,0.0,0.0,0.0,0.0,0.0,0.0,0.0,0.0,0.0,0.0,0.0,0.0,0.0,0.0,0.0,0.0,0.0,0.0,0.0,0.0,0.0,0.0,-1.7816,-2.0584,0.0,0.0,0.0,0.0,0.0,0.0,0.0,0.0,-2.2274,0.0,0.0,0.0,0.0,0.0,0.0,0.0,0.0,0.0,0.0,0.0,0.0,0.0,0.0,0.0,0.0,0.0,0.0,0.0,0.0,0.0,0.0,0.0,0.0,0.0,0.0,0.0,0.0,0.0,0.0,0.0,0.0,0.0,0.0,0.0,0.0,0.0,0.0,0.0,0.0,0.0,0.0,0.0,0.0,0.0,0.0,0.0,0.0,0.0,0.0,0.0,0.0,0.0,0.0,0.0,0.0,-3.4049,-3.6509,-3.8913,-4.1314,-4.2322,-4.2497,-4.1749,-4.0295,-3.8033,-3.4846,0.0,0.0,0.0,0.0,0.0,0.0,0.0,0.0,0.0,0.0,0.0,0.0,0.0,0.0,0.0,0.0,0.0,0.0,0.0,0.0,0.0,0.0,0.0,0.0,0.0,0.0,0.0,0.0,0.0,0.0,0.0,0.0,0.0,0.0,0.0,0.0,0.0,0.0,0.0,-2.2032,-2.3479,0.0,0.0,0.0,0.0,0.0,0.0,0.0,0.0,-2.2781,0.0,0.0,0.0,0.0,0.0,0.0,0.0,0.0,0.0,0.0,0.0,0.0,0.0,0.0,0.0,0.0,0.0,0.0,0.0,0.0,0.0,0.0,0.0,0.0,0.0,0.0,0.0,0.0,0.0,0.0,0.0,0.0,0.0,0.0,0.0,0.0,0.0,0.0,0.0,0.0,0.0,0.0,0.0,0.0,0.0,0.0,0.0,0.0,0.0,0.0,0.0,0.0,0.0,0.0,0.0,-3.4007,-3.6805,-3.9257,-4.1212,-4.2612,-4.2777,-4.169,-4.0186,-3.7915,0.0,0.0,0.0,0.0,0.0,0.0,0.0,0.0,0.0,0.0,0.0,0.0,0.0,0.0,0.0,0.0,0.0,0.0,0.0,0.0,0.0,0.0,0.0,0.0,0.0,0.0,0.0,0.0,0.0,0.0,0.0,0.0,0.0,0.0,0.0,0.0,0.0,0.0,0.0,0.0,-2.2615,-2.3617,-2.4342,0.0,0.0,0.0,0.0,0.0,0.0,-2.3925,-2.3621,0.0,0.0,0.0,0.0,0.0,0.0,0.0,0.0,0.0,0.0,0.0,0.0,0.0,0.0,0.0,0.0,0.0,0.0,0.0,0.0,0.0,0.0,0.0,0.0,0.0,0.0,0.0,0.0,0.0,0.0,0.0,0.0,0.0,0.0,0.0,0.0,0.0,0.0,0.0,0.0,0.0,0.0,0.0,0.0,0.0,0.0,0.0,0.0,0.0,0.0,0.0,0.0,0.0,0.0,0.0,-3.3929,-3.7106,-3.9568,-4.1153,-4.2855,-4.3042,-4.1556,-4.0035,-3.7779,0.0,0.0,0.0,0.0,0.0,0.0,0.0,0.0,0.0,0.0,0.0,0.0,0.0,0.0,0.0,0.0,0.0,0.0,0.0,0.0,0.0,0.0,0.0,0.0,0.0,0.0,0.0,0.0,0.0,0.0,0.0,0.0,0.0,0.0,0.0,0.0,0.0,0.0,0.0,0.0,0.0,-2.3805,-2.4505,-2.4626,0.0,0.0,0.0,0.0,-2.4764,-2.4588,0.0,0.0,0.0,0.0,0.0,0.0,0.0,0.0,0.0,0.0,0.0,0.0,0.0,0.0,0.0,0.0,0.0,0.0,0.0,0.0,0.0,0.0,0.0,0.0,0.0,0.0,0.0,0.0,0.0,0.0,0.0,0.0,0.0,0.0,0.0,0.0,0.0,0.0,0.0,0.0,0.0,0.0,0.0,0.0,0.0,0.0,0.0,0.0,0.0,0.0,0.0,0.0,0.0,0.0,0.0,0.0,-3.3857,-3.707,-3.9494,-4.1075,-4.2772,-4.2859,-4.1272,-3.9859,-3.7649,0.0,0.0,0.0,0.0,0.0,0.0,0.0,0.0,0.0,0.0,0.0,0.0,0.0,0.0,0.0,0.0,0.0,0.0,0.0,0.0,0.0,0.0,0.0,0.0,0.0,0.0,0.0,0.0,0.0,0.0,0.0,0.0,0.0,0.0,0.0,0.0,0.0,0.0,0.0,0.0,0.0,-2.4551,-2.5272,-2.5374,-2.5631,0.0,0.0,-2.6399,-2.634,-2.5733,0.0,0.0,0.0,0.0,0.0,0.0,0.0,0.0,0.0,0.0,0.0,0.0,0.0,0.0,0.0,0.0,0.0,0.0,0.0,0.0,0.0,0.0,0.0,0.0,0.0,0.0,0.0,0.0,0.0,0.0,0.0,0.0,0.0,0.0,0.0,0.0,0.0,0.0,0.0,0.0,0.0,0.0,0.0,0.0,0.0,0.0,0.0,0.0,0.0,0.0,0.0,0.0,0.0,0.0,0.0,-3.2482,-3.4491,-3.7257,-3.9496,-4.1077,-4.2705,-4.2792,-4.124,-3.9804,-3.7543,0.0,0.0,0.0,0.0,0.0,0.0,0.0,0.0,0.0,0.0,0.0,0.0,0.0,0.0,0.0,0.0,0.0,0.0,0.0,0.0,0.0,0.0,0.0,0.0,0.0,0.0,0.0,0.0,0.0,0.0,0.0,0.0,0.0,0.0,0.0,0.0,0.0,0.0,0.0,0.0,0.0,0.0,-2.6023,-2.6105,0.0,0.0,0.0,-2.6652,-2.6612,0.0,0.0,0.0,0.0,0.0,0.0,0.0,0.0,0.0,0.0,0.0,0.0,0.0,0.0,0.0,0.0,0.0,0.0,0.0,0.0,0.0,0.0,0.0,0.0,0.0,0.0,0.0,0.0,0.0,0.0,0.0,0.0,0.0,0.0,0.0,0.0,0.0,0.0,0.0,0.0,0.0,0.0,0.0,0.0,0.0,0.0,0.0,0.0,0.0,0.0,0.0,0.0,0.0,0.0,0.0,0.0,0.0,-3.4986,-3.7426,-3.9496,-4.1077,-4.2653,-4.2742,-4.1209,-3.9715,0.0,0.0,0.0,0.0,0.0,0.0,0.0,0.0,0.0,0.0,0.0,0.0,0.0,0.0,0.0,0.0,0.0,0.0,0.0,0.0,0.0,0.0,0.0,0.0,0.0,0.0,0.0,-1.249,0.0,0.0,0.0,0.0,0.0,0.0,0.0,0.0,0.0,0.0,0.0,0.0,0.0,0.0,-2.5829,-2.6759,-2.6906,-2.6969,0.0,0.0,-2.7189,-2.7189,-2.6521,-2.5999,0.0,0.0,0.0,0.0,0.0,0.0,0.0,0.0,0.0,0.0,0.0,0.0,0.0,0.0,0.0,0.0,0.0,0.0,0.0,0.0,0.0,0.0,0.0,0.0,0.0,0.0,0.0,0.0,0.0,0.0,0.0,0.0,0.0,0.0,0.0,0.0,0.0,0.0,0.0,0.0,0.0,0.0,0.0,0.0,0.0,0.0,0.0,0.0,0.0,0.0,0.0,0.0,0.0,0.0,0.0,-3.4986,-3.7459,-3.9496,-4.1077,-4.2671,-4.2727,-4.113,-3.9629,-3.7339,0.0,0.0,0.0,0.0,0.0,0.0,0.0,0.0,0.0,0.0,0.0,0.0,0.0,0.0,0.0,0.0,0.0,0.0,0.0,0.0,0.0,0.0,0.0,0.0,0.0,0.0,0.0,0.0,0.0,0.0,0.0,0.0,0.0,0.0,0.0,0.0,0.0,0.0,0.0,0.0,0.0,-2.5972,-2.7493,-2.7714,-2.7989,0.0,0.0,-2.8858,-2.884,-2.8154,-2.76,-2.7533,0.0,0.0,0.0,0.0,0.0,0.0,0.0,0.0,0.0,0.0,0.0,0.0,0.0,0.0,0.0,0.0,0.0,0.0,0.0,0.0,0.0,0.0,0.0,0.0,0.0,0.0,0.0,0.0,0.0,0.0,0.0,0.0,0.0,0.0,0.0,0.0,0.0,0.0,0.0,0.0,0.0,0.0,0.0,0.0,0.0,0.0,0.0,0.0,0.0,0.0,0.0,0.0,0.0,-3.3348,-3.5789,-3.8212,-3.9974,-4.1095,-4.2671,-4.2727,-4.1132,-3.9614,-3.7282,0.0,0.0,0.0,0.0,0.0,0.0,0.0,0.0,0.0,0.0,0.0,0.0,0.0,0.0,0.0,0.0,0.0,0.0,0.0,0.0,0.0,0.0,0.0,0.0,0.0,0.0,0.0,0.0,-1.6676,-1.7275,-1.8317,0.0,0.0,0.0,0.0,0.0,0.0,0.0,0.0,0.0,0.0,-2.7302,-2.8393,-2.8505,0.0,0.0,-2.8893,-2.8888,-2.8888,-2.8205,-2.7693,-2.7659,-2.6972,0.0,0.0,0.0,0.0,0.0,0.0,0.0,0.0,0.0,0.0,0.0,0.0,0.0,0.0,0.0,0.0,0.0,0.0,0.0,0.0,0.0,0.0,0.0,0.0,0.0,0.0,0.0,0.0,0.0,0.0,0.0,0.0,0.0,0.0,0.0,0.0,0.0,0.0,0.0,0.0,0.0,0.0,0.0,0.0,0.0,0.0,0.0,0.0,0.0,0.0,0.0,0.0,-3.3825,-3.6266,-3.867,-4.0304,-4.1077,-4.2671,-4.2745,-4.1132,-3.9598,-3.7253,0.0,0.0,0.0,0.0,0.0,0.0,0.0,0.0,0.0,0.0,0.0,0.0,0.0,0.0,0.0,0.0,0.0,0.0,0.0,0.0,0.0,0.0,0.0,0.0,0.0,0.0,0.0,0.0,-1.7845,-1.8173,-1.8662,0.0,0.0,0.0,0.0,0.0,0.0,0.0,0.0,0.0,0.0,-2.8077,-2.8854,-2.913,-2.9241,-2.9247,-2.9399,-2.9454,-2.918,-2.8682,-2.8226,-2.7954,0.0,0.0,0.0,0.0,0.0,0.0,0.0,0.0,0.0,0.0,0.0,0.0,0.0,0.0,0.0,0.0,0.0,0.0,0.0,0.0,0.0,0.0,0.0,0.0,0.0,0.0,0.0,0.0,0.0,0.0,-2.651,0.0,0.0,0.0,0.0,0.0,0.0,0.0,0.0,0.0,0.0,0.0,0.0,0.0,0.0,0.0,0.0,0.0,0.0,0.0,0.0,0.0,0.0,-3.3848,-3.6303,-3.8707,-4.0304,-4.1132,-4.2671,-4.2727,-4.1132,-3.9536,-3.7224,-3.4033,0.0,0.0,0.0,0.0,0.0,0.0,0.0,0.0,0.0,0.0,0.0,0.0,0.0,0.0,0.0,0.0,0.0,0.0,0.0,0.0,0.0,0.0,0.0,0.0,0.0,0.0,-1.8389,-1.9106,-1.9506,0.0,0.0,0.0,0.0,0.0,0.0,0.0,0.0,0.0,0.0,-2.7686,-2.7997,-2.8814,-2.957,-3.0021,-2.9971,-3.062,-3.0839,-3.0086,-2.9958,-2.9672,0.0,0.0,0.0,0.0,0.0,0.0,0.0,0.0,0.0,0.0,0.0,0.0,0.0,0.0,0.0,0.0,0.0,0.0,0.0,0.0,0.0,0.0,0.0,0.0,0.0,0.0,0.0,-2.9837,-2.9761,0.0,0.0,0.0,0.0,0.0,0.0,0.0,0.0,0.0,0.0,0.0,-3.5314,-3.5717,0.0,0.0,0.0,0.0,0.0,0.0,0.0,0.0,0.0,0.0,0.0,0.0,-3.5151,-3.7092,-3.9496,-4.1093,-4.1901,-4.2928,-4.2727,-4.1132,-4.0065,-3.7275,-3.2576,0.0,0.0,0.0,0.0,0.0,0.0,0.0,0.0,0.0,0.0,0.0,0.0,0.0,0.0,0.0,0.0,0.0,0.0,0.0,0.0,0.0,0.0,0.0,0.0,0.0,-1.8415,0.0,0.0,0.0,0.0,0.0,0.0,0.0,0.0,0.0,0.0,0.0,-2.7072,-2.7568,-2.8092,-2.8724,-2.9521,-2.9818,-3.0145,0.0,0.0,0.0,0.0,0.0,0.0,0.0,0.0,0.0,0.0,0.0,0.0,0.0,0.0,-2.5316,-2.507,-2.5016,-2.4936,-2.4672,0.0,0.0,0.0,0.0,0.0,0.0,0.0,0.0,0.0,0.0,0.0,0.0,0.0,0.0,-3.3498,0.0,-3.2653,0.0,0.0,0.0,0.0,0.0,0.0,0.0,0.0,-3.6853,-3.7677,-3.7853,-3.8202,-3.7972,0.0,-3.6528,-3.5032,0.0,0.0,0.0,0.0,0.0,0.0,0.0,0.0,-3.5958,-3.7915,-4.0029,-4.148,-4.2286,-4.3075,-4.2745,-4.1132,-3.9268,-3.6435,-3.2558,-3.0446,-2.8416,0.0,0.0,0.0,0.0,0.0,0.0,0.0,0.0,0.0,0.0,0.0,0.0,0.0,0.0,0.0,0.0,0.0,0.0,0.0,0.0,0.0,0.0,0.0,-1.9477,0.0,0.0,0.0,0.0,0.0,0.0,0.0,0.0,0.0,-2.6037,-2.725,-2.8158,-2.8373,-2.9107,-2.9811,-3.0341,0.0,0.0,0.0,0.0,0.0,0.0,0.0,-3.1342,-3.1053,-3.1003,-3.1003,-3.1003,-3.0133,-2.9432,-2.9427,0.0,0.0,-2.6367,-2.6186,-2.6186,-2.6186,-2.6186,-2.6029,-2.5516,-2.5407,-2.528,0.0,0.0,0.0,0.0,0.0,0.0,0.0,0.0,-3.7464,-3.7368,0.0,-3.6596,0.0,0.0,0.0,0.0,0.0,-3.6271,0.0,0.0,-3.9343,-4.0442,-4.1036,-4.0804,-4.0641,-4.0416,-3.8753,-3.7808,-3.7462,-3.438,0.0,0.0,0.0,0.0,0.0,0.0,-3.6307,-3.8707,-4.0325,-4.1535,-4.2341,-4.3094,-4.2745,-4.1095,-3.7356,-3.495,-3.3991,-3.1192,-2.9534,-2.9444,-2.65,0.0,0.0,0.0,0.0,0.0,0.0,0.0,0.0,0.0,0.0,0.0,0.0,0.0,0.0,0.0,0.0,0.0,0.0,0.0,0.0,-2.0415,0.0,0.0,0.0,0.0,0.0,0.0,0.0,0.0,0.0,0.0,-2.7702,-2.8354,-2.9101,-2.9821,0.0,0.0,0.0,0.0,-3.2296,-3.2324,-3.2925,-3.3121,-3.2343,-3.2234,-3.1962,-3.122,0.0,0.0,-3.1089,-3.1053,-3.0998,-3.1016,-3.031,-2.9096,-2.6801,-2.6403,-2.6349,-2.6349,-2.6385,-2.6294,-2.6246,-2.624,-2.621,-4.2125,0.0,0.0,0.0,0.0,-3.9718,-4.0062,-4.0081,-4.031,-4.0291,-4.0043,-3.947,0.0,0.0,0.0,0.0,0.0,0.0,-4.0139,-4.0288,-4.1309,-4.1825,-4.1868,-4.1661,-4.1487,-4.1329,-4.0729,-4.0074,-3.9342,-3.7794,-3.5974,-3.3995,0.0,0.0,0.0,0.0,-3.8285,-3.957,-4.113,-4.2341,-4.3147,-4.3386,-4.2727,-4.1132,-3.842,-3.6311,-3.4895,-3.3494,-3.1727,-2.9524,-2.8007,0.0,0.0,0.0,0.0,0.0,0.0,0.0,0.0,0.0,0.0,0.0,0.0,0.0,0.0,0.0,0.0,0.0,0.0,0.0,-2.1204,-2.1409,-2.1508,0.0,0.0,0.0,0.0,0.0,0.0,0.0,0.0,0.0,-2.9314,-2.9539,-2.9921,0.0,0.0,-3.1257,-3.1901,-3.216,-3.2506,-3.3108,-3.3378,0.0,-3.3172,-3.3092,-3.2977,-3.2741,-3.2705,-3.2705,-3.2723,-3.2234,-3.1854,-3.1854,-3.1216,-3.0237,-2.906,-2.8286,-2.7948,-2.7912,-2.7912,-2.7713,-2.7206,-2.7043,-2.6898,-4.6852,-4.415,-4.2822,-4.2278,-4.2354,-4.3138,-4.3482,-4.3501,-4.3864,-4.3615,-4.2985,-4.2488,-4.1934,-4.1256,-4.0731,0.0,0.0,0.0,-4.2123,-4.2294,-4.2753,-4.3045,-4.3184,-4.3021,-4.2871,-4.2758,-4.231,-4.1765,-4.1159,-4.0318,-3.9088,-3.7448,0.0,0.0,-3.649,-3.7955,-3.9405,-4.0818,-4.1791,-4.269,-4.3478,-4.2873,-4.2101,-4.1142,-3.891,-3.7082,-3.5816,-3.4685,-3.2949,-3.0437,-2.9241,-2.7568,0.0,0.0,0.0,0.0,0.0,0.0,0.0,0.0,0.0,0.0,0.0,-1.908,-1.9038,0.0,0.0,0.0,-2.0801,-2.1406,-2.184,-2.2387,0.0,0.0,0.0,0.0,0.0,0.0,0.0,-2.8216,-2.9244,-3.021,-3.093,-3.1026,-3.1125,-3.1511,-3.1824,-3.2233,-3.2794,0.0,-3.3016,-3.3532,-3.3534,-3.3477,-3.3466,-3.3422,-3.3393,-3.3393,-3.3393,-3.3393,-3.3375,-3.2977,-3.2687,-3.2578,-3.2017,-3.131,-3.0853,-3.0097,-2.9287,-2.8744,-2.86,-2.8419,-2.7948,-2.7876,-2.7731,-5.1238,-5.0245,-4.7199,-4.5793,-4.567,-4.6328,-4.6577,-4.6661,-4.7425,-4.694,-4.5526,-4.5488,-4.4571,-4.3004,-4.3004,0.0,-4.2908,-4.2966,-4.3325,-4.3904,-4.3836,-4.4106,-4.4674,-4.4546,-4.4454,-4.4393,-4.3521,-4.3036,-4.2868,-4.2073,-4.1563,-4.122,-3.8235,-3.7437,-3.8817,-3.8964,-4.0084,-4.2249,-4.2359,-4.2763,-4.346,-4.1937,-4.1142,-4.1185,-3.8922,-3.7364,-3.6586,-3.5062,-3.3414,-3.1765,-3.0224,-2.8305,-2.6005,0.0,0.0,0.0,0.0,0.0,0.0,0.0,0.0,0.0,0.0,0.0,0.0,0.0,0.0,0.0,-2.158,0.0,-2.2167,-2.352,0.0,0.0,0.0,-2.6796,-2.6785,-2.8216,-2.9189,-2.9189,0.0,0.0,-3.2418,-3.2551,-3.2592,-3.2607,-3.32,-3.3633,-3.3684,-3.3625,-3.3601,-3.3633,-3.3581,-3.3477,-3.3437,-3.3426,-3.3393,-3.3393,-3.3393,-3.3393,-3.3393,-3.3393,-3.3375,-3.3339,-3.2777,-3.2234,-3.2198,-3.1492,-3.0622,-2.9125,-2.8781,-2.8708,-2.8563,-2.8527,-2.8509,-5.2384,-5.2136,-5.1345,-4.9931,-4.8173,-4.7685,-4.7483,-4.7502,-4.7723,-4.7578,-4.7207,-4.7196,-4.629,-4.4704,-4.4704,-4.4341,-4.3739,-4.4418,-4.4747,-4.4798,-4.4722,-4.473,-4.4776,-4.4578,-4.4501,-4.4454,-4.4152,-4.3942,-4.3833,-4.2939,-4.2427,-4.22,-4.0759,-4.0202,-4.0526,-4.1148,-4.1717,-4.2304,-4.2892,-4.3313,-4.346,-4.1985,-4.1204,-4.1246,-3.9053,-3.7487,-3.6697,-3.5675,-3.4037,-3.1821,-3.069,-2.9322,-2.7534,-2.5365,0.0,0.0,0.0,0.0,0.0,0.0,0.0,0.0,0.0,-2.076,-2.1395,0.0,-2.1625,0.0,-2.2821,-2.4163,-2.5348,-2.5797,0.0,0.0,-2.7464,-2.8418,-2.8436,-2.9861,-3.0834,-3.0815,-3.1715,-3.2381,-3.2557,-3.3088,-3.3711,-3.4284,-3.3931,-3.3633,-3.3684,-3.3684,-3.3698,-3.3762,-3.3716,-3.3577,-3.3571,-3.3466,-3.3411,-3.3393,-3.3393,-3.3393,-3.3393,-3.3393,-3.3393,-3.3393,-3.3284,-3.2886,-3.2325,-3.2017,-3.1564,-3.064,-2.9934,-2.9318,-2.8744,-2.8618,-2.86,-5.3951,-5.3913,-5.3531,-5.2575,-5.1238,-5.0034,-4.95,-4.945,-4.9079,-4.8716,-4.8353,-4.7971,-4.7302,-4.6424,-4.6424,-4.6156,-4.5725,-4.5793,-4.5808,-4.57,-4.5251,-4.4967,-4.4833,-4.4672,-4.4584,-4.4537,-4.4444,-4.4329,-4.4207,-4.3715,-4.3355,-4.3137,-4.2611,-4.2292,-4.2176,-4.2249,-4.247,-4.2837,-4.3275,-4.3549,-4.3511,-4.2065,-4.1326,-4.1369,-3.9166,-3.7562,-3.6775,-3.5893,-3.4284,-3.1839,-3.1214,-3.0035,-2.8101,-2.6365,-2.5255,0.0,0.0,0.0,0.0,0.0,0.0,0.0,0.0,0.0,0.0,0.0,-2.3207,-2.387,-2.476,-2.564,-2.651,-2.7244,-2.7666,-2.7684,-2.9108,-3.0063,-3.0063,-3.1182,-3.1935,-3.1953,-3.2632,-3.3261,-3.3628,-3.405,-3.4619,-3.5463,-3.5131,-3.4828,-3.4838,-3.4871,-3.4852,-3.4834,-3.4778,-3.4546,-3.4178,-3.4025,-3.381,-3.3465,-3.3393,-3.3393,-3.3393,-3.3393,-3.3393,-3.3393,-3.3393,-3.3284,-3.2814,-3.2723,-3.2469,-3.1727,-3.1197,-3.0459,-2.9373,-2.9137,-2.9065,-5.539,-5.5326,-5.46,-5.4256,-5.4161,-5.2575,-5.1856,-5.1697,-5.0856,-5.0015,-4.9205,-4.8334,-4.7971,-4.7971,-4.7857,-4.7788,-4.775,-4.7016,-4.6601,-4.645,-4.5651,-4.514,-4.4926,-4.477,-4.4685,-4.4605,-4.4537,-4.4444,-4.4318,-4.4318,-4.4135,-4.3802,-4.382,-4.3719,-4.3512,-4.2852,-4.2817,-4.3461,-4.3583,-4.3617,-4.358,-4.2192,-4.1464,-4.1501,-3.9202,-3.7541,-3.6833,-3.5876,-3.4278,-3.2036,-3.1707,-3.0577,-2.8407,-2.7364,-2.6524,0.0,-2.4386,0.0,0.0,0.0,0.0,0.0,0.0,0.0,0.0,-2.41,-2.5129,-2.6612,-2.6851,-2.695,-2.7042,-2.8418,-2.9299,-2.9335,-3.065,-3.1562,-3.1586,-3.2265,-3.2803,-3.2876,-3.3532,-3.4252,-3.5004,-3.5169,-3.5481,-3.6285,-3.6413,-3.6435,-3.656,-3.6358,-3.6127,-3.6142,-3.6095,-3.5667,-3.5005,-3.47,-3.435,-3.3719,-3.3465,-3.3393,-3.3393,-3.3393,-3.3393,-3.3393,-3.3393,-3.3375,-3.3393,-3.3357,-3.3158,-3.2488,-3.2306,-3.1727,-3.0219,-2.973,-2.9531,-5.539,-5.539,-5.5231,-5.5154,-5.5078,-5.4065,-5.3225,-5.2518,-5.1716,-5.0875,-5.0015,-4.9194,-4.888,-4.8793,-4.8105,-4.7788,-4.7788,-4.7635,-4.7174,-4.6488,-4.6279,-4.5734,-4.5005,-4.4852,-4.4732,-4.4685,-4.4605,-4.4501,-4.4318,-4.4318,-4.4165,-4.3899,-4.3883,-4.3835,-4.3736,0.0,0.0,0.0,-4.3583,-4.3617,-4.3562,-4.2276,-4.1609,-4.1607,-3.8762,0.0,-3.6924,-3.5396,-3.3985,-3.2811,-3.1972,0.0,0.0,0.0,0.0,0.0,0.0,0.0,0.0,0.0,0.0,0.0,-2.5982,-2.5809,-2.5976,-2.6093,-2.6549,-2.7475,-2.8161,-2.8822,-2.9464,-3.0356,-3.0944,-3.098,-3.1788,-3.2362,-3.2399,-3.3091,-3.3807,-3.4472,-3.4674,-3.5114,-3.5899,-3.6064,-3.6358,-3.7125,-3.7272,-3.7547,-3.812,-3.7129,-3.6358,-3.627,-3.6285,-3.6054,-3.5736,-3.516,-3.4737,-3.4332,-3.3791,-3.3465,-3.3393,-3.3393,-3.3393,-3.3393,-3.3393,-3.3393,-3.3393,-3.3393,-3.3357,-3.3176,-3.3158,-3.2488,-3.0292,-2.9802,-2.9554,-5.539,-5.539,-5.539,-5.539,0.0,-5.4925,-5.4486,-5.4008,-5.2747,-5.1735,-5.0894,-5.0054,-4.9691,-4.9652,-4.9232,-4.9041,-4.8991,-4.864,-4.8208,-4.7735,-4.6858,-4.6161,-4.5665,-4.5116,-4.4808,-4.4732,-4.4646,-4.4524,-4.4401,-4.4373,-4.4237,-4.4005,-4.3986,-4.3961,-4.3851,-4.382,-4.3754,-4.3652,-4.3718,-4.3732,-4.3693,-4.2384,-4.1667,-4.1618,-3.9044,0.0,0.0,0.0,0.0,0.0,0.0,0.0,0.0,0.0,0.0,-2.9589,-2.8459,-2.7941,-2.8308,-2.764,-2.753,-2.8338,-2.8741,-2.8643,-2.7901,-2.8532,-2.9145,-2.9549,-2.9971,-3.0356,-3.076,-3.1513,-3.199,-3.2027,-3.2706,-3.3201,-3.3261,-3.3917,-3.4527,-3.4949,-3.5371,-3.5954,-3.6795,-3.6905,-3.7235,-3.7936,-3.8083,-3.823,-3.856,-3.8028,-3.7496,-3.7477,-3.7366,-3.7141,-3.6699,-3.6261,-3.5508,-3.4845,-3.4274,-3.3864,-3.3465,-3.3393,-3.3393,-3.3393,-3.3393,-3.3393,-3.3393,-3.3393,-3.3393,-3.3393,-3.3393,-3.2922,-3.1306,-3.069,-3.0165,-5.5626,-5.5607,-5.546,-5.539,-5.539,-5.539,-5.539,-5.5288,0.0,0.0,0.0,-5.0913,-5.055,-5.0531,-5.0378,-5.0302,-5.0245,-4.9614,-4.9224,-4.9041,-4.761,-4.6828,-4.658,-4.5613,-4.511,-4.5035,-4.4755,-4.4592,-4.451,-4.4454,-4.435,-4.4185,-4.4136,-4.4097,-4.3976,-4.3915,-4.3867,-4.3886,-4.3899,-4.3897,-4.386,-4.2456,-4.1725,-4.1706,-3.9418,-3.7872,-3.7168,-3.6288,-3.5105,-3.3668,-3.3197,-3.2669,-3.1992,-3.1671,-3.1507,-3.144,-3.0202,-2.9744,-3.0338,-2.9182,-2.8998,-3.032,-3.1164,-3.0999,-2.9519,-3.0632,-3.1403,-3.1403,-3.1531,-3.1617,-3.1617,-3.2339,-3.2803,-3.2834,-3.3532,-3.4009,-3.405,-3.4729,-3.5298,-3.5481,-3.6101,-3.6817,-3.7603,-3.7713,-3.7933,-3.8524,-3.8634,-3.8707,-3.8707,-3.8634,-3.856,-3.8527,-3.837,-3.8251,-3.7741,-3.728,-3.6609,-3.5469,-3.49,-3.4368,-3.381,-3.3502,-3.3393,-3.3393,-3.3393,-3.3393,-3.3393,-3.3393,-3.3393,-3.3393,-3.3375,-3.3212,-3.2542,-3.1763,-3.0926,-5.6524,-5.6467,-5.5734,-5.539,-5.539,-5.539,-5.539,-5.5326,-5.4352,-5.3435,-5.2575,-5.1773,-5.1417,-5.1391,-5.0627,-5.0302,-5.0302,-5.0187,-4.9748,-4.9098,-4.8793,-4.8243,-4.7476,-4.654,-4.6082,-4.5944,-4.5168,-4.4712,-4.4592,-4.4597,-4.4524,-4.444,-4.4397,-4.431,-4.4237,-4.424,-4.4226,-4.4226,-4.4008,-4.3897,-4.386,-4.2474,-4.1721,-4.168,-3.9475,-3.819,-3.8076,-3.6635,-3.5693,-3.5408,-3.3876,-3.2934,-3.2811,-3.2075,-3.1555,-3.1507,-3.128,-3.1182,-3.1231,-3.1011,-3.0974,-3.1237,-3.199,-3.2032,-3.1176,-3.1268,-3.1403,-3.1433,-3.2045,-3.2436,-3.2485,-3.3183,-3.3642,-3.3678,-3.4344,-3.4839,-3.4857,-3.5605,-3.634,-3.6942,-3.7235,-3.7621,-3.8285,-3.8469,-3.8505,-3.867,-3.8707,-3.8707,-3.8707,-3.8707,-3.8707,-3.8707,-3.8673,-3.8588,-3.8285,-3.776,-3.7226,-3.6867,-3.5596,-3.477,-3.4404,-3.3864,-3.3484,-3.3393,-3.3393,-3.3393,-3.3393,-3.3393,-3.3393,-3.3393,-3.3393,-3.3321,-3.3121,-3.2506,-3.1528,-5.7174,-5.6721,-5.6276,-5.5817,-5.5396,-5.5396,-5.539,-5.5365,-5.4982,-5.4314,-5.3454,-5.2633,-5.2002,-5.1601,-5.1169,-5.0741,-5.0302,-5.0302,-5.0111,-4.9729,-4.9266,-4.8823,-4.8338,-4.7479,-4.6811,-4.6282,-4.5805,-4.5294,-4.4814,-4.4699,-4.4646,-4.4605,-4.4537,-4.4496,-4.4454,-4.4411,-4.4397,-4.4401,-4.4207,-4.4119,-4.4116,-4.2984,-4.2221,-4.1801,-4.0325,-3.9177,-3.8338,-3.7598,-3.7005,-3.652,-3.5236,-3.4477,-3.4387,-3.3523,-3.2988,-3.2896,-3.2435,-3.2151,-3.2108,-3.207,-3.2063,-3.2063,-3.2797,-3.3109,-3.2724,-3.2706,-3.27,-3.2706,-3.3054,-3.3256,-3.3275,-3.399,-3.4435,-3.4454,-3.5188,-3.5683,-3.5807,-3.645,-3.7088,-3.7474,-3.7896,-3.8285,-3.8652,-3.8707,-3.8707,-3.8707,-3.8707,-3.8707,-3.8707,-3.8707,-3.8707,-3.8707,-3.8707,-3.8673,-3.8606,-3.8303,-3.7836,-3.7356,-3.6586,-3.5672,-3.4936,-3.4253,-3.39,-3.3484,-3.3393,-3.3393,-3.3393,-3.3393,-3.3393,-3.3393,-3.3393,-3.3393,-3.3302,-3.2759,-3.1668,-5.8014,-5.7369,-5.6905,-5.6217,-5.5439,-5.5428,-5.5422,-5.5422,-5.5403,-5.504,-5.4351,-5.3466,-5.2747,-5.2174,-5.178,-5.1238,-5.0627,-5.0397,-5.0302,-5.0225,-4.9652,-4.9324,-4.9212,-4.8407,-4.7647,-4.6972,-4.6491,-4.5911,-4.5273,-4.4928,-4.4776,-4.4751,-4.468,-4.4659,-4.4619,-4.4565,-4.4556,-4.4556,-4.4444,-4.4373,-4.4325,-4.3502,-4.2679,-4.1902,-4.1171,-4.0109,-3.8731,-3.8489,-3.8105,-3.7427,-3.6569,-3.6038,-3.5912,-3.5212,-3.4773,-3.4624,-3.3974,-3.3552,-3.3545,-3.3466,-3.3426,-3.3445,-3.4009,-3.4376,-3.4376,-3.4376,-3.4284,-3.4137,-3.4247,-3.4394,-3.4468,-3.4926,-3.5279,-3.5334,-3.6064,-3.6541,-3.6633,-3.729,-3.7786,-3.7826,-3.834,-3.8689,-3.8707,-3.8707,-3.8707,-3.8707,-3.8707,-3.8707,-3.8707,-3.8707,-3.8707,-3.8707,-3.8707,-3.8707,-3.8707,-3.8606,-3.8285,-3.7702,-3.7304,-3.6446,-3.5381,-3.4797,-3.428,-3.361,-3.3393,-3.3393,-3.3393,-3.3393,-3.3393,-3.3393,-3.3393,-3.3393,-3.3357,-3.2741,-3.1813,-5.9226,-5.8906,-5.7484,-5.629,-5.555,-5.5499,-5.5499,-5.5499,-5.548,-5.5461,-5.5219,-5.4402,-5.3932,-5.3664,-5.2308,-5.1601,-5.1391,-5.0665,-5.0321,-5.0302,-5.0225,-5.0187,-5.0061,-4.9289,-4.8826,-4.8517,-4.7201,-4.6411,-4.6145,-4.5411,-4.4991,-4.4902,-4.487,-4.4808,-4.4693,-4.4699,-4.4685,-4.4685,-4.4672,-4.4605,-4.4463,-4.3712,-4.2876,-4.2083,-4.1318,-4.0489,-3.9602,-3.8871,-3.8456,-3.8313,-3.7487,-3.6986,-3.6932,-3.6683,-3.6509,-3.6426,-3.6255,-3.6199,-3.6026,-3.5978,-3.5862,-3.5973,-3.5899,-3.5973,-3.5973,-3.6028,-3.5716,-3.5224,-3.5624,-3.5917,-3.6064,-3.6119,-3.6174,-3.6211,-3.6923,-3.7382,-3.7492,-3.8083,-3.8597,-3.8597,-3.8634,-3.8707,-3.8707,-3.8707,-3.8707,-3.8707,-3.8707,-3.8707,-3.8707,-3.8707,-3.8707,-3.8707,-3.8707,-3.8707,-3.8707,-3.8707,-3.8551,-3.8324,-3.77,-3.6893,-3.603,-3.5154,-3.4371,-3.3846,-3.3393,-3.3411,-3.3393,-3.3393,-3.3393,-3.3393,-3.3393,-3.3393,-3.3302,-3.2814,-3.1944,-5.9919,-5.9407,-5.8657,-5.7534,-5.6302,-5.5734,-5.5523,-5.5523,-5.5523,-5.5523,-5.5454,-5.508,-5.4666,-5.4188,-5.3479,-5.2671,-5.166,-5.1278,-5.0795,-5.034,-5.0302,-5.0302,-5.0252,-4.9954,-4.9541,-4.9064,-4.8281,-4.7438,-4.6454,-4.5544,-4.5061,-4.5033,-4.5003,-4.4998,-4.4931,-4.4931,-4.495,-4.495,-4.495,-4.4926,-4.4814,-4.4391,-4.376,-4.2938,-4.2146,-4.134,-4.0552,-3.9713,-3.9279,-3.9229,-3.8426,-3.7875,-3.7798,-3.7284,-3.6913,-3.6782,-3.666,-3.6545,-3.6417,-3.6389,-3.6328,-3.6285,-3.6285,-3.6285,-3.6321,-3.6725,-3.685,-3.656,-3.6376,-3.6285,-3.6358,-3.6721,-3.7015,-3.7107,-3.7716,-3.8193,-3.823,-3.8487,-3.8707,-3.8707,-3.8707,-3.8707,-3.8707,-3.8707,-3.8707,-3.8707,-3.8707,-3.8707,-3.8707,-3.8707,-3.8707,-3.8707,-3.8707,-3.8707,-3.8707,-3.8707,-3.8673,-3.8572,-3.8272,-3.7664,-3.6783,-3.5942,-3.5102,-3.4226,-3.3773,-3.3484,-3.3393,-3.3393,-3.3393,-3.3393,-3.3393,-3.3393,-3.3393,-3.314,-3.2596,-6.0435,-5.9827,-5.9331,-5.8227,-5.681,-5.5927,-5.5551,-5.5551,-5.5531,-5.5562,-5.5551,-5.5551,-5.5224,-5.4698,-5.4415,-5.3575,-5.2457,-5.194,-5.1381,-5.0723,-5.0482,-5.0356,-5.0325,-5.0325,-5.0027,-4.9461,-4.914,-4.8144,-4.6568,-4.56,-4.5148,-4.5136,-4.5136,-4.5106,-4.5103,-4.5103,-4.5103,-4.5103,-4.5103,-4.5103,-4.508,-4.4926,-4.443,-4.3648,-4.3059,-4.2257,-4.1185,-4.0541,-4.0094,-3.9826,-3.9203,-3.8814,-3.8672,-3.8092,-3.7672,-3.7485,-3.7355,-3.7239,-3.7104,-3.7075,-3.7032,-3.696,-3.6945,-3.6945,-3.7055,-3.7496,-3.7804,-3.7786,-3.7276,-3.7,-3.7019,-3.7492,-3.7804,-3.7878,-3.8395,-3.8689,-3.8689,-3.8707,-3.8707,-3.8707,-3.8707,-3.8707,-3.8707,-3.8707,-3.8707,-3.8707,-3.8707,-3.8707,-3.8707,-3.8707,-3.8707,-3.8707,-3.8707,-3.8707,-3.8707,-3.8707,-3.8707,-3.8658,-3.852,-3.8131,-3.7429,-3.6638,-3.5724,-3.4721,-3.4111,-3.361,-3.3429,-3.3393,-3.3393,-3.3393,-3.3393,-3.3393,-3.3393,-3.3375,-3.3031,-6.0781,-6.0512,-5.9031,-5.7904,-5.6953,-5.6077,-5.5692,-5.5662,-5.5673,-5.5692,-5.5692,-5.5673,-5.5654,-5.5538,-5.4748,-5.4269,-5.3924,-5.2543,-5.1804,-5.1563,-5.0834,-5.0457,-5.0382,-5.0382,-5.034,-5.0103,-4.9511,-4.8296,-4.6604,-4.5725,-4.5265,-4.5192,-4.5192,-4.5159,-4.5125,-4.5114,-4.5114,-4.5125,-4.5114,-4.5114,-4.5114,-4.5091,-4.4699,-4.3996,-4.3835,-4.2984,-4.1592,-4.1258,-4.0837,-3.9938,-3.978,-3.9675,-3.9595,-3.9443,-3.9189,-3.9051,-3.8956,-3.8864,-3.8722,-3.8593,-3.8556,-3.8521,-3.8414,-3.8524,-3.8358,-3.8469,-3.8524,-3.8615,-3.8469,-3.8414,-3.8414,-3.8414,-3.8542,-3.856,-3.8634,-3.8707,-3.8707,-3.8707,-3.8707,-3.8707,-3.8707,-3.8707,-3.8707,-3.8707,-3.8707,-3.8707,-3.8707,-3.8707,-3.8707,-3.8707,-3.8707,-3.8707,-3.8707,-3.8707,-3.8707,-3.8707,-3.8707,-3.8673,-3.8535,-3.829,-3.7713,-3.703,-3.6097,-3.5275,-3.4688,-3.4135,-3.361,-3.3393,-3.3393,-3.3393,-3.3393,-3.3393,-3.3393,-3.3393,-3.314,-6.08,-6.0685,-5.955,-5.8588,-5.7761,-5.6896,-5.6233,-5.5703,-5.5684,-5.5684,-5.5684,-5.5684,-5.5684,-5.5684,-5.5363,-5.4877,-5.4268,-5.3135,-5.2346,-5.1749,-5.0913,-5.0489,-5.0468,-5.0468,-5.0438,-5.0377,-5.0095,-4.9037,-4.7417,-4.6481,-4.5783,-4.5333,-4.5256,-4.5265,-4.5224,-4.5243,-4.5224,-4.5224,-4.5243,-4.5224,-4.5213,-4.5243,-4.5072,-4.4804,-4.4195,-4.3618,-4.2987,-4.196,-4.1187,-4.0819,-4.0247,-3.987,-3.977,-3.9599,-3.9458,-3.9341,-3.921,-3.9101,-3.8979,-3.891,-3.8837,-3.8762,-3.8738,-3.8707,-3.8707,-3.8707,-3.8707,-3.8707,-3.8707,-3.8707,-3.8707,-3.8707,-3.8707,-3.8707,-3.8707,-3.8707,-3.8707,-3.8707,-3.8707,-3.8707,-3.8707,-3.8707,-3.8707,-3.8707,-3.8707,-3.8707,-3.8707,-3.8707,-3.8707,-3.8707,-3.8707,-3.8707,-3.8707,-3.8707,-3.8707,-3.8707,-3.8707,-3.8692,-3.8621,-3.8502,-3.8107,-3.7518,-3.6656,-3.5848,-3.5229,-3.4386,-3.3755,-3.3393,-3.3393,-3.3393,-3.3393,-3.3393,-3.3393,-3.3393,-3.3266,-6.08,-6.0646,-5.9858,-5.9031,-5.8223,-5.7357,-5.6503,-5.5742,-5.5684,-5.5684,-5.5684,-5.5684,-5.5684,-5.5684,-5.5684,-5.5404,-5.4756,-5.3938,-5.3072,-5.2214,-5.1359,-5.0792,-5.057,-5.0551,-5.0502,-5.0442,-5.0131,-4.936,-4.8236,-4.7087,-4.6284,-4.5768,-4.547,-4.5277,-4.5277,-4.5277,-4.5277,-4.5277,-4.5277,-4.5277,-4.5277,-4.5277,-4.5277,-4.522,-4.4679,-4.4187,-4.3898,-4.2794,-4.1878,-4.135,-4.0748,-4.0228,-3.986,-3.9654,-3.9527,-3.9445,-3.9341,-3.9202,-3.905,-3.8935,-3.8862,-3.8807,-3.875,-3.8707,-3.8707,-3.8707,-3.8707,-3.8707,-3.8707,-3.8707,-3.8707,-3.8707,-3.8707,-3.8707,-3.8707,-3.8707,-3.8707,-3.8707,-3.8707,-3.8707,-3.8707,-3.8707,-3.8707,-3.8707,-3.8707,-3.8707,-3.8707,-3.8707,-3.8707,-3.8707,-3.8707,-3.8707,-3.8707,-3.8707,-3.8707,-3.8707,-3.8707,-3.8692,-3.8692,-3.8624,-3.8483,-3.7896,-3.7268,-3.6443,-3.5529,-3.4598,-3.3951,-3.352,-3.3393,-3.3393,-3.3393,-3.3393,-3.3393,-3.3393,-3.3284,-6.08,-6.0685,-5.9896,-5.9127,-5.8338,-5.7492,-5.6579,-5.5876,-5.5722,-5.5684,-5.5684,-5.5684,-5.5684,-5.5684,-5.5684,-5.5665,-5.5453,-5.4788,-5.3962,-5.3028,-5.2182,-5.1325,-5.0641,-5.0603,-5.0572,-5.0472,-4.9686,-4.9283,-4.8994,-4.7524,-4.6661,-4.6421,-4.5672,-4.5307,-4.5277,-4.5277,-4.5277,-4.5277,-4.5277,-4.5277,-4.5277,-4.5277,-4.5277,-4.5277,-4.521,-4.4807,-4.4001,-4.3829,-4.3035,-4.1745,-4.135,-4.0808,-3.9947,-3.9727,-3.9631,-3.9508,-3.9413,-3.9301,-3.9133,-3.8979,-3.8877,-3.8822,-3.875,-3.8704,-3.8707,-3.8707,-3.8707,-3.8707,-3.8707,-3.8707,-3.8707,-3.8707,-3.8707,-3.8707,-3.8707,-3.8707,-3.8707,-3.8707,-3.8707,-3.8707,-3.8707,-3.8707,-3.8707,-3.8707,-3.8707,-3.8707,-3.8707,-3.8707,-3.8707,-3.8707,-3.8707,-3.8707,-3.8707,-3.8707,-3.8707,-3.8707,-3.8707,-3.8707,-3.8707,-3.8673,-3.8624,-3.8232,-3.775,-3.6994,-3.5775,-3.4842,-3.4063,-3.3665,-3.3411,-3.3393,-3.3393,-3.3393,-3.3393,-3.3393,-3.3393,-6.08,-6.0762,-6.0512,-5.9896,-5.9069,-5.8242,-5.7396,-5.653,-5.5983,-5.5703,-5.5684,-5.5684,-5.5684,-5.5684,-5.5684,-5.5684,-5.5665,-5.5376,-5.4587,-5.328,-5.2308,-5.15,-5.0817,-5.0663,-5.0633,-5.0544,-5.0314,-4.9813,-4.9121,-4.8093,-4.7277,-4.6565,-4.579,-4.5357,-4.5307,-4.5277,-4.5277,-4.5277,-4.5277,-4.5277,-4.5277,-4.5277,-4.5277,-4.5277,-4.5277,-4.5144,-4.4866,-4.4302,-4.3698,-4.3084,-4.1985,-4.0912,-4.0079,-3.9766,-3.9649,-3.9514,-3.9445,-3.9346,-3.9202,-3.905,-3.8935,-3.8881,-3.8825,-3.8732,-3.8689,-3.8707,-3.8707,-3.8707,-3.8707,-3.8707,-3.8707,-3.8707,-3.8707,-3.8707,-3.8707,-3.8707,-3.8707,-3.8707,-3.8707,-3.8707,-3.8707,-3.8707,-3.8707,-3.8707,-3.8707,-3.8707,-3.8707,-3.8707,-3.8707,-3.8707,-3.8707,-3.8707,-3.8707,-3.8707,-3.8707,-3.8707,-3.8707,-3.8707,-3.8707,-3.8707,-3.8658,-3.8569,-3.8104,-3.7369,-3.6164,-3.5181,-3.4398,-3.39,-3.3665,-3.3411,-3.3393,-3.3393,-3.3393,-3.3393,-3.3393,-6.08,-6.08,-6.08,-6.03,-5.9435,-5.8646,-5.78,-5.6926,-5.6079,-5.5703,-5.5684,-5.5684,-5.5684,-5.5684,-5.5684,-5.5684,-5.5684,-5.5684,-5.4972,-5.3722,-5.2788,-5.1942,-5.1183,-5.0808,-5.0692,-5.0643,-5.0633,-5.0354,-4.9729,-4.8902,-4.8047,-4.7173,-4.63,-4.5676,-4.5395,-4.5338,-4.5328,-4.5307,-4.5277,-4.5277,-4.5277,-4.5277,-4.5277,-4.5277,-4.5277,-4.5277,-4.5269,-4.4762,-4.4321,-4.3812,-4.2569,-4.1419,-4.0531,-4.0295,-4.004,-3.965,-3.9502,-3.9388,-3.9288,-3.9133,-3.9007,-3.8954,-3.8851,-3.8777,-3.8735,-3.8704,-3.8707,-3.8707,-3.8707,-3.8707,-3.8707,-3.8707,-3.8707,-3.8707,-3.8707,-3.8707,-3.8707,-3.8707,-3.8707,-3.8707,-3.8707,-3.8707,-3.8707,-3.8707,-3.8707,-3.8707,-3.8707,-3.8707,-3.8707,-3.8707,-3.8707,-3.8707,-3.8707,-3.8707,-3.8707,-3.8707,-3.8707,-3.8707,-3.8707,-3.8707,-3.8673,-3.864,-3.8337,-3.7601,-3.6541,-3.5681,-3.4882,-3.4332,-3.3991,-3.3737,-3.3465,-3.3393,-3.3393,-3.3393,-3.3393,-6.08,-6.08,-6.08,-6.0358,-5.955,-5.8684,-5.7877,-5.7049,-5.6088,-5.5684,-5.5684,-5.5684,-5.5684,-5.5684,-5.5684,-5.5684,-5.5684,-5.5684,-5.5338,-5.4472,-5.3549,-5.2568,-5.1606,-5.0952,-5.0702,-5.0702,-5.0683,-5.0664,-5.0481,-4.9615,-4.8884,-4.7962,-4.703,-4.6243,-4.5571,-4.5408,-4.5369,-4.5338,-4.5298,-4.5298,-4.5317,-4.5307,-4.5307,-4.5297,-4.5277,-4.5277,-4.5258,-4.5182,-4.4819,-4.4015,-4.3122,-4.2286,-4.1535,-4.1226,-4.0632,-3.9896,-3.965,-3.9489,-3.9386,-3.9234,-3.9073,-3.9007,-3.891,-3.8788,-3.8792,-3.875,-3.8723,-3.8707,-3.8707,-3.8707,-3.8707,-3.8707,-3.8707,-3.8707,-3.8707,-3.8707,-3.8707,-3.8707,-3.8707,-3.8707,-3.8707,-3.8707,-3.8707,-3.8707,-3.8707,-3.8707,-3.8707,-3.8707,-3.8707,-3.8707,-3.8707,-3.8707,-3.8707,-3.8707,-3.8707,-3.8707,-3.8707,-3.8707,-3.8707,-3.8707,-3.8707,-3.8655,-3.8588,-3.7833,-3.7116,-3.6222,-3.549,-3.4957,-3.4368,-3.3936,-3.3701,-3.3484,-3.3393,-3.3393,-3.3393,-6.08,-6.08,-6.08,-6.0666,-6.0262,-5.8954,-5.8184,-5.7761,-5.6319,-5.5684,-5.5684,-5.5684,-5.5684,-5.5684,-5.5684,-5.5684,-5.5684,-5.5684,-5.5645,-5.5184,-5.3837,-5.2375,-5.126,-5.0818,-5.0683,-5.0683,-5.0683,-5.0683,-5.0635,-4.9865,-4.8971,-4.8116,-4.7271,-4.633,-4.5525,-4.54,-4.54,-4.5371,-4.538,-4.538,-4.5388,-4.5388,-4.5338,-4.5307,-4.5307,-4.5307,-4.5297,-4.5277,-4.4876,-4.4083,-4.3745,-4.3147,-4.2322,-4.1653,-4.1124,-4.0686,-3.9963,-3.9514,-3.9469,-3.9301,-3.9156,-3.9092,-3.8993,-3.891,-3.8807,-3.8777,-3.8732,-3.8704,-3.8707,-3.8726,-3.8726,-3.8762,-3.8762,-3.8707,-3.8854,-3.8799,-3.8707,-3.8707,-3.8707,-3.8707,-3.8707,-3.8707,-3.8707,-3.8707,-3.8707,-3.8707,-3.8707,-3.8707,-3.8707,-3.8707,-3.8707,-3.8707,-3.8707,-3.8707,-3.8707,-3.8707,-3.8707,-3.8707,-3.8707,-3.8707,-3.8707,-3.8673,-3.8588,-3.8269,-3.7689,-3.6882,-3.6224,-3.5672,-3.4994,-3.4347,-3.3879,-3.3658,-3.3447,-3.3393,-3.3393,-6.08,-6.08,-6.08,-6.08,-6.0569,-5.9011,-5.8288,-5.7953,-5.6492,-5.5684,-5.5684,-5.5684,-5.5684,-5.5684,-5.5684,-5.5684,-5.5684,-5.5684,-5.5684,-5.5415,-5.3972,-5.2337,-5.1068,-5.0683,-5.0683,-5.0683,-5.0683,-5.0683,-5.0635,-5.0173,-4.9308,-4.8241,-4.7597,-4.6685,-4.5515,-4.5457,-4.5438,-4.541,-4.541,-4.541,-4.5419,-4.5419,-4.539,-4.5341,-4.535,-4.536,-4.533,-4.533,-4.5061,-4.4647,-4.4442,-4.4056,-4.3224,-4.2639,-4.2071,-4.1626,-4.0657,-4.0115,-3.9958,-3.9618,-3.9269,-3.9156,-3.9073,-3.8993,-3.8906,-3.8866,-3.8822,-3.8777,-3.9044,-3.9212,-3.9307,-3.9512,-3.968,-3.9774,-3.9717,-3.9441,-3.8817,-3.8707,-3.8707,-3.8707,-3.8707,-3.8707,-3.8707,-3.8726,-3.8726,-3.8707,-3.8707,-3.8707,-3.8707,-3.8707,-3.8744,-3.8814,-3.8759,-3.8723,-3.8707,-3.8689,-3.8707,-3.8707,-3.8707,-3.8707,-3.8707,-3.8707,-3.864,-3.848,-3.8083,-3.7634,-3.6991,-3.6331,-3.5684,-3.5021,-3.4355,-3.3818,-3.364,-3.3408,-3.3408,-6.08,-6.08,-6.08,-6.08,-6.0531,-5.9031,-5.8288,-5.7973,-5.6453,-5.5684,-5.5684,-5.5684,-5.5684,-5.5684,-5.5684,-5.5684,-5.5684,-5.5684,-5.5453,-5.4934,-5.378,-5.2318,-5.0837,-5.0683,-5.0683,-5.0683,-5.0683,-5.0683,-5.0673,-5.0635,-4.9808,-4.8635,-4.8173,-4.7212,-4.6032,-4.5619,-4.5485,-4.5438,-4.5438,-4.5429,-4.5438,-4.5429,-4.5419,-4.541,-4.541,-4.541,-4.539,-4.539,-4.5323,-4.5309,-4.5246,-4.4756,-4.4067,-4.3931,-4.3384,-4.2557,-4.1683,-4.1091,-4.0873,-4.0314,-3.9812,-3.973,-3.9611,-3.9347,-3.9466,-3.9519,-3.9475,-3.9453,-3.9795,-4.0081,-4.0178,-4.0682,-4.0852,-4.0818,-4.0948,-4.0325,-3.9386,-3.8946,-3.893,-3.8949,-3.9001,-3.8964,-3.8946,-3.8964,-3.9035,-3.9635,-3.9559,-3.9626,-3.9498,-3.935,-3.9277,-3.9114,-3.897,-3.8738,-3.8704,-3.8689,-3.8707,-3.8707,-3.8707,-3.8707,-3.8707,-3.8707,-3.8707,-3.8563,-3.8331,-3.8062,-3.7686,-3.7006,-3.6358,-3.5678,-3.5011,-3.4367,-3.3833,-3.3546,-3.3437,-6.08,-6.08,-6.08,-6.08,-6.0512,-5.9031,-5.8288,-5.8146,-5.6453,-5.5684,-5.5684,-5.5684,-5.5684,-5.5684,-5.5684,-5.5684,-5.5684,-5.5626,-5.5068,-5.3722,-5.3491,-5.226,-5.0991,-5.0683,-5.0683,-5.0683,-5.0683,-5.0683,-5.0683,-5.0616,-5.0173,-4.9183,-4.8336,-4.7615,-4.6664,-4.5856,-4.5577,-4.5559,-4.5559,-4.5513,-4.5466,-4.5485,-4.5467,-4.5419,-4.541,-4.541,-4.541,-4.541,-4.539,-4.5361,-4.5341,-4.5184,-4.4824,-4.4274,-4.3816,-4.3361,-4.2621,-4.2035,-4.1857,-4.1575,-4.1428,-4.1207,-4.1044,-4.1176,-4.1051,-4.0929,-4.0893,-4.0895,-4.1015,-4.1077,-4.1109,-4.1096,-4.1305,-4.1364,-4.1277,-4.1111,-4.0689,-4.0526,-4.0451,-4.0469,-4.0469,-4.0545,-4.0524,-4.0459,-4.0509,-4.0636,-4.0667,-4.0751,-4.0474,-4.0087,-3.9942,-3.978,-3.9289,-3.909,-3.9019,-3.8897,-3.8704,-3.8707,-3.8707,-3.8707,-3.8707,-3.8707,-3.8707,-3.8707,-3.8655,-3.8368,-3.808,-3.772,-3.7071,-3.6371,-3.5687,-3.502,-3.4426,-3.3964,-3.3481,-6.08,-6.08,-6.08,-6.08,-6.0531,-5.905,-5.8288,-5.7973,-5.6453,-5.5684,-5.5684,-5.5684,-5.5684,-5.5684,-5.5684,-5.5684,-5.5684,-5.5665,-5.4799,-5.3549,-5.3145,-5.2279,-5.0991,-5.0683,-5.0683,-5.0683,-5.0683,-5.0683,-5.0683,-5.0635,-5.025,-4.9394,-4.8548,-4.7682,-4.6894,-4.6037,-4.5633,-4.5594,-4.5594,-4.5577,-4.5559,-4.555,-4.5531,-4.5504,-4.5495,-4.5495,-4.5504,-4.5485,-4.5485,-4.5457,-4.5448,-4.5409,-4.5269,-4.4824,-4.4511,-4.4281,-4.3502,-4.3019,-4.2867,-4.2417,-4.2039,-4.2044,-4.1946,-4.1805,-4.1726,-4.1688,-4.1645,-4.1653,-4.1834,-4.2109,-4.2371,-4.2447,-4.2396,-4.2364,-4.2347,-4.2347,-4.2237,-4.1689,-4.1142,-4.1158,-4.1098,-4.1167,-4.1256,-4.1475,-4.1343,-4.119,-4.1135,-4.1219,-4.1129,-4.0815,-4.0779,-4.0505,-3.9862,-3.9497,-3.939,-3.9142,-3.8753,-3.8704,-3.8707,-3.8707,-3.8707,-3.8707,-3.8707,-3.8707,-3.8707,-3.8673,-3.8386,-3.8059,-3.7732,-3.7104,-3.6416,-3.5707,-3.5057,-3.4506,-3.3967,-6.08,-6.08,-6.08,-6.0723,-6.0358,-5.8973,-5.8204,-5.7819,-5.6395,-5.5684,-5.5684,-5.5684,-5.5684,-5.5684,-5.5684,-5.5684,-5.5684,-5.5588,-5.4799,-5.3376,-5.3203,-5.2202,-5.1048,-5.0683,-5.0683,-5.0683,-5.0683,-5.0683,-5.0683,-5.0644,-5.0385,-4.9548,-4.8548,-4.7836,-4.7048,-4.6105,-4.5594,-4.5594,-4.5594,-4.5594,-4.5586,-4.5586,-4.5586,-4.5577,-4.5577,-4.5577,-4.5577,-4.5577,-4.5587,-4.5513,-4.5504,-4.5477,-4.539,-4.5307,-4.5213,-4.5164,-4.4338,-4.3992,-4.3812,-4.3232,-4.2718,-4.2434,-4.2464,-4.2404,-4.2365,-4.2422,-4.2417,-4.2462,-4.2709,-4.3178,-4.3724,-4.358,-4.3619,-4.3658,-4.3732,-4.3788,-4.3548,-4.2447,-4.1952,-4.1788,-4.2062,-4.2205,-4.2108,-4.216,-4.1918,-4.1764,-4.1746,-4.1746,-4.1724,-4.1632,-4.1628,-4.1391,-4.0784,-4.0,-3.9785,-3.9254,-3.8884,-3.8732,-3.8719,-3.8704,-3.8704,-3.8707,-3.8707,-3.8707,-3.8707,-3.8673,-3.8673,-3.8475,-3.8111,-3.7677,-3.7204,-3.6564,-3.5842,-3.5086,-3.4542,-6.08,-6.08,-6.08,-6.0396,-5.9627,-5.8684,-5.7896,-5.7118,-5.6156,-5.5703,-5.5684,-5.5684,-5.5684,-5.5684,-5.5684,-5.5684,-5.5684,-5.5607,-5.4799,-5.3433,-5.3145,-5.2299,-5.0971,-5.0683,-5.0683,-5.0683,-5.0683,-5.0683,-5.0683,-5.0664,-5.0558,-5.0125,-4.8856,-4.7942,-4.7451,-4.6499,-4.5594,-4.5594,-4.5594,-4.5594,-4.5594,-4.5594,-4.5594,-4.5594,-4.5594,-4.5594,-4.5594,-4.5594,-4.5586,-4.5577,-4.5541,-4.5514,-4.5477,-4.539,-4.5338,-4.5229,-4.502,-4.4752,-4.465,-4.4545,-4.4416,-4.4392,-4.4146,-4.4073,-4.3984,-4.3929,-4.3666,-4.3702,-4.3744,-4.3955,-4.3955,-4.3929,-4.3867,-4.3837,-4.3837,-4.3837,-4.3744,-4.35,-4.3201,-4.3077,-4.3208,-4.3245,-4.3087,-4.3005,-4.2999,-4.2956,-4.2974,-4.3027,-4.3045,-4.2804,-4.2578,-4.2251,-4.1797,-4.0925,-4.0184,-3.9483,-3.8958,-3.884,-3.8777,-3.8732,-3.8735,-3.8689,-3.8707,-3.8704,-3.8723,-3.8707,-3.8707,-3.8707,-3.8579,-3.823,-3.7811,-3.7422,-3.6729,-3.6017,-3.5296,-6.08,-6.08,-6.08,-6.0281,-5.9454,-5.8646,-5.78,-5.6945,-5.6088,-5.5684,-5.5684,-5.5684,-5.5684,-5.5684,-5.5684,-5.5684,-5.5684,-5.5684,-5.4741,-5.351,-5.3106,-5.2318,-5.0846,-5.0683,-5.0683,-5.0683,-5.0683,-5.0683,-5.0683,-5.0683,-5.0683,-5.0279,-4.8952,-4.8096,-4.7721,-4.646,-4.5748,-4.5614,-4.5594,-4.5594,-4.5594,-4.5594,-4.5594,-4.5594,-4.5594,-4.5594,-4.5594,-4.5594,-4.5594,-4.5586,-4.5568,-4.5559,-4.5532,-4.5486,-4.5409,-4.5359,-4.5297,-4.5213,-4.5159,-4.5068,-4.4941,-4.4912,-4.4865,-4.4776,-4.4685,-4.4562,-4.4519,-4.4411,-4.43,-4.4226,-4.418,-4.4116,-4.4104,-4.4073,-4.4042,-4.4042,-4.4058,-4.4089,-4.4058,-4.4026,-4.3893,-4.3819,-4.3896,-4.3906,-4.4064,-4.4135,-4.4131,-4.4147,-4.4128,-4.3811,-4.3364,-4.3096,-4.2601,-4.1653,-4.0782,-3.9978,-3.9338,-3.9113,-3.8833,-3.8807,-3.8777,-3.8765,-3.875,-3.8765,-3.875,-3.8719,-3.8723,-3.8738,-3.8735,-3.8747,-3.8412,-3.8037,-3.7558,-3.6955,-3.6213,-6.08,-6.0781,-6.0608,-6.005,-5.9204,-5.8377,-5.753,-5.6714,-5.5992,-5.5684,-5.5684,-5.5684,-5.5684,-5.5684,-5.5684,-5.5684,-5.5684,-5.5684,-5.4741,-5.3491,-5.3164,-5.2299,-5.1087,-5.0683,-5.0683,-5.0683,-5.0683,-5.0683,-5.0683,-5.0683,-5.0683,-5.0317,-4.9067,-4.8212,-4.7798,-4.6701,-4.5998,-4.5614,-4.5594,-4.5594,-4.5594,-4.5594,-4.5594,-4.5594,-4.5594,-4.5594,-4.5594,-4.5594,-4.5594,-4.5594,-4.5594,-4.5594,-4.5605,-4.5559,-4.5495,-4.5429,-4.5369,-4.5298,-4.5235,-4.5181,-4.5114,-4.5068,-4.4986,-4.4926,-4.4833,-4.4745,-4.4653,-4.4537,-4.4426,-4.4358,-4.4344,-4.4329,-4.43,-4.4304,-4.427,-4.4304,-4.4255,-4.4255,-4.4237,-4.424,-4.4274,-4.4244,-4.4214,-4.4214,-4.4211,-4.4237,-4.4266,-4.4296,-4.4296,-4.4281,-4.3968,-4.3826,-4.333,-4.234,-4.1463,-4.0628,-4.0028,-3.9604,-3.9176,-3.8896,-3.8866,-3.8822,-3.8822,-3.8822,-3.8792,-3.8777,-3.878,-3.878,-3.8792,-3.8837,-3.8862,-3.8659,-3.8202,-3.769,-3.7067,-6.08,-6.0723,-5.9973,-5.9184,-5.8357,-5.755,-5.6695,-5.5915,-5.5761,-5.5684,-5.5684,-5.5684,-5.5684,-5.5684,-5.5684,-5.5684,-5.5684,-5.5491,-5.4722,-5.3376,-5.3049,-5.2202,-5.0904,-5.0702,-5.0683,-5.0683,-5.0683,-5.0683,-5.0683,-5.0683,-5.0683,-5.0433,-4.9702,-4.8875,-4.8029,-4.7067,-4.6394,-4.5748,-4.5594,-4.5594,-4.5594,-4.5594,-4.5594,-4.5594,-4.5594,-4.5594,-4.5594,-4.5594,-4.5594,-4.5594,-4.5594,-4.5594,-4.5594,-4.5594,-4.554,-4.5485,-4.5419,-4.538,-4.5369,-4.5298,-4.5235,-4.5181,-4.5114,-4.5038,-4.4955,-4.4858,-4.4757,-4.468,-4.4605,-4.4524,-4.4468,-4.4444,-4.4387,-4.4358,-4.4373,-4.4344,-4.4329,-4.4411,-4.4411,-4.4411,-4.4444,-4.4387,-4.431,-4.4314,-4.4314,-4.434,-4.4383,-4.4426,-4.4458,-4.444,-4.4426,-4.4247,-4.3965,-4.3048,-4.2333,-4.146,-4.0686,-4.0183,-3.968,-3.9145,-3.8925,-3.8896,-3.8877,-3.8862,-3.8848,-3.8862,-3.891,-3.891,-3.891,-3.8906,-3.895,-3.8935,-3.8855,-3.8338,-3.7859,-6.005,-6.0031,-5.9665,-5.8761,-5.7588,-5.7137,-5.6522,-5.5818,-5.5684,-5.5684,-5.5684,-5.5684,-5.5684,-5.5684,-5.5684,-5.5684,-5.5598,-5.5241,-5.4395,-5.326,-5.2673,-5.1856,-5.0952,-5.0683,-5.0683,-5.0683,-5.0683,-5.0683,-5.0683,-5.0683,-5.0683,-5.0548,-4.9837,-4.8933,-4.8125,-4.7317,-4.6451,-4.5836,-4.5594,-4.5594,-4.5594,-4.5594,-4.5594,-4.5594,-4.5594,-4.5594,-4.5594,-4.5594,-4.5594,-4.5594,-4.5594,-4.5594,-4.5594,-4.5594,-4.5577,-4.5549,-4.5522,-4.5476,-4.54,-4.537,-4.5339,-4.5317,-4.5235,-4.517,-4.5061,-4.4967,-4.4883,-4.4808,-4.4764,-4.4699,-4.4632,-4.4592,-4.4546,-4.4537,-4.4496,-4.451,-4.451,-4.4505,-4.4546,-4.4578,-4.4592,-4.4565,-4.4519,-4.4551,-4.4537,-4.4537,-4.4546,-4.4578,-4.4605,-4.4587,-4.4573,-4.4546,-4.4214,-4.3723,-4.3119,-4.2441,-4.1451,-4.0854,-4.0361,-3.9793,-3.9122,-3.895,-3.9071,-3.902,-3.8968,-3.8979,-3.9036,-3.9021,-3.8979,-3.9007,-3.9031,-3.9064,-3.9096,-3.911,-3.8606,-5.9306,-5.893,-5.8888,-5.8146,-5.7003,-5.6772,-5.631,-5.5742,-5.5684,-5.5684,-5.5684,-5.5684,-5.5684,-5.5684,-5.5684,-5.5684,-5.5626,-5.4857,-5.403,-5.3164,-5.2308,-5.151,-5.0914,-5.0683,-5.0683,-5.0683,-5.0683,-5.0683,-5.0683,-5.0683,-5.0683,-5.0664,-5.0164,-4.9144,-4.8221,-4.7528,-4.6797,-4.5691,-4.5594,-4.5594,-4.5594,-4.5594,-4.5594,-4.5594,-4.5594,-4.5594,-4.5594,-4.5594,-4.5594,-4.5594,-4.5594,-4.5594,-4.5594,-4.5594,-4.5594,-4.5586,-4.5577,-4.5559,-4.5485,-4.5448,-4.5419,-4.539,-4.5348,-4.5275,-4.517,-4.5072,-4.5014,-4.4943,-4.4907,-4.4846,-4.4802,-4.477,-4.4732,-4.4706,-4.4712,-4.4706,-4.4719,-4.4693,-4.4719,-4.477,-4.4783,-4.4796,-4.4783,-4.4796,-4.4789,-4.4738,-4.4738,-4.4719,-4.4719,-4.4719,-4.468,-4.4672,-4.4506,-4.4185,-4.3844,-4.3188,-4.2268,-4.16,-4.1106,-4.0491,-3.9858,-3.9514,-3.9524,-3.9384,-3.9156,-3.9138,-3.9221,-3.9152,-3.9078,-3.9147,-3.9234,-3.9288,-3.9328,-3.9412,-3.9326,-5.8758,-5.7351,-5.7258,-5.7118,-5.6907,-5.6107,-5.5761,-5.5684,-5.5684,-5.5684,-5.5684,-5.5684,-5.5684,-5.5684,-5.5684,-5.5665,-5.5607,-5.4838,-5.3914,-5.3068,-5.2318,-5.1414,-5.0894,-5.0683,-5.0683,-5.0683,-5.0683,-5.0683,-5.0683,-5.0683,-5.0683,-5.0644,-5.0452,-4.9471,-4.8548,-4.7836,-4.6894,-4.5902,-4.5594,-4.5594,-4.5594,-4.5594,-4.5594,-4.5594,-4.5594,-4.5594,-4.5594,-4.5594,-4.5594,-4.5594,-4.5594,-4.5594,-4.5594,-4.5594,-4.5594,-4.5594,-4.5594,-4.5577,-4.5559,-4.5513,-4.5467,-4.5438,-4.539,-4.5359,-4.5277,-4.5224,-4.5159,-4.5103,-4.5049,-4.5014,-4.4998,-4.4955,-4.4895,-4.4858,-4.4865,-4.4833,-4.4833,-4.4821,-4.4858,-4.4943,-4.4967,-4.4955,-4.4955,-4.4962,-4.4907,-4.4858,-4.4865,-4.4846,-4.4821,-4.4808,-4.4757,-4.4738,-4.4712,-4.4565,-4.4441,-4.3804,-4.3085,-4.2548,-4.2062,-4.138,-4.0658,-4.0402,-3.9969,-3.9685,-3.9471,-3.9445,-3.9373,-3.9283,-3.9251,-3.9328,-3.9399,-3.9419,-3.9452,-3.9502,-3.9527,-5.7785,-5.7168,-5.6569,-5.6307,-5.6218,-5.5859,-5.5684,-5.5684,-5.5684,-5.5684,-5.5684,-5.5684,-5.5684,-5.5684,-5.5645,-5.5395,-5.4895,-5.4068,-5.3241,-5.2375,-5.1548,-5.1029,-5.0702,-5.0683,-5.0683,-5.0683,-5.0683,-5.0683,-5.0683,-5.0683,-5.0683,-5.0683,-5.0683,-5.001,-4.9086,-4.7894,-4.6721,-4.599,-4.5594,-4.5594,-4.5594,-4.5594,-4.5594,-4.5594,-4.5594,-4.5594,-4.5594,-4.5594,-4.5594,-4.5594,-4.5594,-4.5594,-4.5594,-4.5594,-4.5594,-4.5594,-4.5594,-4.5594,-4.5594,-4.5568,-4.5522,-4.5476,-4.5448,-4.5409,-4.538,-4.5348,-4.5297,-4.5235,-4.5192,-4.5159,-4.5072,-4.5068,-4.5045,-4.501,-4.4986,-4.4986,-4.4974,-4.4962,-4.4986,-4.5068,-4.5049,-4.5049,-4.508,-4.5091,-4.5026,-4.4991,-4.4998,-4.4986,-4.4931,-4.4895,-4.4858,-4.4821,-4.4783,-4.4745,-4.4636,-4.4288,-4.3896,-4.3458,-4.2996,-4.2313,-4.1579,-4.0736,-4.0336,-4.0026,-3.9786,-3.9675,-3.9576,-3.9458,-3.9433,-3.9464,-3.9489,-3.9496,-3.9526,-3.9606,-3.963,-5.7101,-5.6811,-5.6203,-5.5895,-5.5826,-5.5785,-5.5765,-5.5735,-5.5716,-5.5724,-5.5684,-5.5684,-5.5684,-5.5665,-5.5376,-5.5088,-5.4318,-5.3414,-5.2587,-5.1837,-5.1221,-5.076,-5.0683,-5.0683,-5.0683,-5.0683,-5.0683,-5.0683,-5.0683,-5.0683,-5.0683,-5.0683,-5.0625,-5.0125,-4.9183,-4.7798,-4.649,-4.5806,-4.5594,-4.5594,-4.5594,-4.5594,-4.5594,-4.5594,-4.5594,-4.5594,-4.5594,-4.5594,-4.5594,-4.5594,-4.5594,-4.5594,-4.5594,-4.5594,-4.5594,-4.5594,-4.5594,-4.5594,-4.5594,-4.5586,-4.5577,-4.5522,-4.5476,-4.5457,-4.5438,-4.5419,-4.536,-4.5339,-4.5298,-4.5246,-4.5173,-4.5203,-4.5159,-4.5125,-4.5103,-4.5103,-4.5103,-4.5103,-4.5125,-4.5159,-4.5159,-4.5151,-4.517,-4.5181,-4.5125,-4.5072,-4.5057,-4.5045,-4.5014,-4.4991,-4.4967,-4.4931,-4.4883,-4.4833,-4.4777,-4.4524,-4.4303,-4.4199,-4.3719,-4.3273,-4.2524,-4.1675,-4.1119,-4.1047,-4.0716,-4.009,-3.9858,-3.9858,-3.972,-3.957,-3.9587,-3.9623,-3.9677,-3.9724,-3.9747,-5.6903,-5.614,-5.6035,-5.5971,-5.5914,-5.5895,-5.5865,-5.5787,-5.5806,-5.5766,-5.5714,-5.5714,-5.5695,-5.5541,-5.503,-5.4549,-5.401,-5.276,-5.1885,-5.1587,-5.1048,-5.0741,-5.0683,-5.0683,-5.0683,-5.0683,-5.0683,-5.0683,-5.0683,-5.0683,-5.0683,-5.0683,-5.0625,-5.0164,-4.9298,-4.7778,-4.6528,-4.5729,-4.5614,-4.5594,-4.5594,-4.5594,-4.5594,-4.5594,-4.5594,-4.5594,-4.5594,-4.5594,-4.5594,-4.5594,-4.5594,-4.5594,-4.5594,-4.5594,-4.5594,-4.5594,-4.5594,-4.5594,-4.5594,-4.5594,-4.5586,-4.5577,-4.5532,-4.5504,-4.5475,-4.5457,-4.5419,-4.54,-4.5371,-4.539,-4.5389,-4.5378,-4.5288,-4.5237,-4.5216,-4.5205,-4.5216,-4.5216,-4.5237,-4.5275,-4.5286,-4.5277,-4.5277,-4.5256,-4.5203,-4.5159,-4.5114,-4.5103,-4.5103,-4.5091,-4.5061,-4.5014,-4.4967,-4.4919,-4.487,-4.4852,-4.4714,-4.4662,-4.4421,-4.3943,-4.3553,-4.2981,-4.2523,-4.2184,-4.1575,-4.0935,-4.0577,-4.0323,-4.012,-3.9886,-3.9777,-3.9781,-3.9815,-3.9856,-3.9867,-5.6428,-5.6176,-5.6145,-5.6128,-5.6076,-5.5933,-5.5885,-5.5875,-5.5875,-5.5826,-5.5796,-5.5766,-5.5735,-5.5464,-5.4818,-5.4164,-5.3433,-5.2606,-5.1769,-5.1087,-5.0798,-5.0741,-5.0683,-5.0683,-5.0683,-5.0683,-5.0683,-5.0683,-5.0683,-5.0683,-5.0683,-5.0683,-5.0587,-4.9856,-4.8817,-4.7721,-4.7086,-4.5864,-4.5594,-4.5594,-4.5594,-4.5594,-4.5594,-4.5594,-4.5594,-4.5594,-4.5594,-4.5594,-4.5594,-4.5594,-4.5594,-4.5594,-4.5594,-4.5594,-4.5594,-4.5594,-4.5594,-4.5594,-4.5594,-4.5594,-4.5594,-4.5586,-4.5577,-4.5568,-4.5549,-4.5504,-4.5485,-4.5448,-4.5429,-4.5429,-4.54,-4.539,-4.5361,-4.5341,-4.5331,-4.5331,-4.5331,-4.5331,-4.5361,-4.5359,-4.5378,-4.5328,-4.5298,-4.5288,-4.5246,-4.5235,-4.5192,-4.517,-4.517,-4.5159,-4.5148,-4.5103,-4.5057,-4.5003,-4.4955,-4.4938,-4.487,-4.477,-4.4732,-4.4549,-4.4209,-4.3882,-4.3548,-4.3039,-4.2404,-4.1781,-4.1463,-4.1105,-4.0533,-4.0244,-4.0176,-4.0006,-3.9933,-3.9954,-3.9975,-5.6243,-5.6236,-5.6214,-5.6218,-5.6176,-5.6042,-5.5961,-5.5943,-5.5924,-5.5885,-5.5836,-5.5836,-5.5575,-5.5129,-5.4445,-5.3598,-5.2722,-5.1875,-5.1375,-5.0712,-5.0683,-5.0683,-5.0683,-5.0683,-5.0683,-5.0683,-5.0683,-5.0683,-5.0683,-5.0683,-5.0683,-5.0683,-5.0644,-4.9683,-4.8644,-4.7894,-4.724,-4.6075,-4.5594,-4.5594,-4.5594,-4.5594,-4.5594,-4.5594,-4.5594,-4.5594,-4.5594,-4.5594,-4.5594,-4.5594,-4.5594,-4.5594,-4.5594,-4.5594,-4.5594,-4.5594,-4.5594,-4.5594,-4.5594,-4.5594,-4.5594,-4.5594,-4.5594,-4.5594,-4.5594,-4.5559,-4.555,-4.5532,-4.5485,-4.5467,-4.5457,-4.5457,-4.5429,-4.5419,-4.5391,-4.541,-4.54,-4.54,-4.541,-4.5419,-4.5399,-4.535,-4.5319,-4.5298,-4.5267,-4.5267,-4.5277,-4.5256,-4.5224,-4.5213,-4.5203,-4.5159,-4.5125,-4.5091,-4.5049,-4.5045,-4.4967,-4.4907,-4.487,-4.4833,-4.4745,-4.4398,-4.4165,-4.3894,-4.3307,-4.2756,-4.236,-4.1911,-4.1402,-4.0956,-4.0661,-4.0444,-4.0122,-4.0057,-4.0067,-5.6298,-5.6285,-5.6216,-5.6214,-5.6199,-5.6122,-5.6057,-5.6008,-5.5953,-5.5895,-5.5827,-5.575,-5.5278,-5.439,-5.362,-5.2839,-5.203,-5.1193,-5.0866,-5.0731,-5.0683,-5.0683,-5.0683,-5.0683,-5.0683,-5.0683,-5.0683,-5.0683,-5.0683,-5.0683,-5.0683,-5.0683,-5.0683,-4.9721,-4.8817,-4.8029,-4.7201,-4.6075,-4.5594,-4.5594,-4.5594,-4.5594,-4.5594,-4.5594,-4.5594,-4.5594,-4.5594,-4.5594,-4.5594,-4.5594,-4.5594,-4.5594,-4.5594,-4.5594,-4.5594,-4.5594,-4.5594,-4.5594,-4.5594,-4.5594,-4.5594,-4.5594,-4.5594,-4.5594,-4.5594,-4.5605,-4.5577,-4.5577,-4.5559,-4.5541,-4.5532,-4.5495,-4.5485,-4.5476,-4.5438,-4.5429,-4.5429,-4.5438,-4.5438,-4.5429,-4.5419,-4.539,-4.537,-4.5339,-4.5328,-4.5317,-4.5317,-4.5277,-4.5256,-4.5256,-4.5246,-4.5213,-4.5192,-4.517,-4.5148,-4.5114,-4.508,-4.5003,-4.4991,-4.4967,-4.4917,-4.4887,-4.4673,-4.4407,-4.4151,-4.3711,-4.3114,-4.268,-4.2324,-4.1886,-4.1315,-4.0668,-4.0279,-4.0136,-4.0108,-5.6364,-5.6364,-5.6341,-5.6335,-5.6329,-5.6252,-5.6202,-5.6125,-5.6057,-5.5733,-5.5032,-5.5044,-5.4524,-5.36,-5.281,-5.2319,-5.1732,-5.1193,-5.0827,-5.0702,-5.0702,-5.0693,-5.0693,-5.0693,-5.0693,-5.0683,-5.0683,-5.0683,-5.0683,-5.0683,-5.0683,-5.0683,-5.0683,-4.9913,-4.9144,-4.8394,-4.7105,-4.6114,-4.5691,-4.5594,-4.5594,-4.5594,-4.5594,-4.5594,-4.5594,-4.5594,-4.5594,-4.5594,-4.5594,-4.5594,-4.5594,-4.5594,-4.5594,-4.5594,-4.5594,-4.5594,-4.5594,-4.5594,-4.5594,-4.5594,-4.5594,-4.5594,-4.5594,-4.5594,-4.5594,-4.5594,-4.5594,-4.5594,-4.5594,-4.5568,-4.5559,-4.5559,-4.555,-4.5522,-4.5504,-4.5504,-4.5504,-4.5504,-4.5495,-4.5476,-4.5467,-4.541,-4.54,-4.538,-4.5369,-4.5359,-4.5338,-4.5317,-4.5307,-4.5307,-4.5277,-4.5246,-4.5235,-4.5213,-4.5192,-4.517,-4.5117,-4.5095,-4.5072,-4.508,-4.503,-4.5007,-4.5026,-4.4905,-4.4612,-4.4205,-4.3721,-4.3412,-4.3264,-4.2503,-4.1903,-4.1111,-4.0491,-4.0367,-4.0214,-5.6407,-5.6402,-5.6391,-5.6406,-5.64,-5.6347,-5.6155,-5.5812,-5.5656,-5.5273,-5.4757,-5.4368,-5.3726,-5.291,-5.2352,-5.1911,-5.1432,-5.1018,-5.0739,-5.074,-5.0721,-5.0702,-5.0693,-5.0702,-5.0693,-5.0693,-5.0693,-5.0683,-5.0683,-5.0683,-5.0683,-5.0683,-5.0683,-5.0164,-4.9394,-4.8471,-4.7451,-4.6471,-4.5855,-4.5652,-4.5594,-4.5594,-4.5594,-4.5594,-4.5594,-4.5594,-4.5594,-4.5594,-4.5594,-4.5594,-4.5594,-4.5594,-4.5594,-4.5594,-4.5594,-4.5594,-4.5594,-4.5594,-4.5594,-4.5594,-4.5594,-4.5594,-4.5594,-4.5594,-4.5594,-4.5594,-4.5594,-4.5594,-4.5594,-4.5594,-4.5594,-4.5594,-4.5594,-4.5586,-4.5586,-4.5586,-4.5586,-4.5586,-4.5568,-4.5531,-4.5504,-4.5448,-4.5438,-4.5419,-4.5419,-4.539,-4.538,-4.536,-4.5329,-4.5317,-4.5307,-4.5267,-4.5267,-4.5267,-4.5246,-4.5224,-4.5203,-4.5181,-4.5159,-4.5148,-4.5117,-4.5106,-4.5103,-4.5114,-4.5079,-4.4701,-4.4331,-4.4402,-4.4223,-4.3413,-4.2764,-4.2296,-4.1494,-4.0664,-4.0502,-5.6398,-5.6417,-5.6407,-5.6338,-5.6294,-5.6236,-5.5763,-5.5013,-5.4744,-5.4675,-5.4435,-5.3789,-5.2918,-5.221,-5.1899,-5.149,-5.1166,-5.0849,-5.0793,-5.0782,-5.0748,-5.073,-5.0711,-5.0683,-5.0693,-5.0702,-5.0693,-5.0683,-5.0683,-5.0683,-5.0683,-5.0683,-5.0683,-5.0337,-4.9702,-4.8606,-4.7702,-4.7067,-4.6144,-4.5594,-4.5594,-4.5594,-4.5594,-4.5594,-4.5594,-4.5594,-4.5594,-4.5594,-4.5594,-4.5594,-4.5594,-4.5594,-4.5594,-4.5594,-4.5594,-4.5594,-4.5594,-4.5594,-4.5594,-4.5594,-4.5594,-4.5594,-4.5594,-4.5594,-4.5594,-4.5594,-4.5594,-4.5594,-4.5594,-4.5594,-4.5594,-4.5594,-4.5594,-4.5594,-4.5594,-4.5594,-4.5594,-4.5594,-4.5586,-4.5568,-4.5531,-4.5504,-4.5495,-4.5486,-4.5448,-4.5429,-4.541,-4.538,-4.538,-4.5339,-4.5309,-4.5298,-4.5307,-4.5307,-4.5277,-4.5256,-4.5267,-4.5246,-4.5224,-4.5213,-4.5203,-4.5181,-4.5148,-4.517,-4.5203,-4.5224,-4.5074,-4.4989,-4.4798,-4.435,-4.3796,-4.3548,-4.2727,-4.16,-4.0969,-5.648,-5.6496,-5.6459,-5.6091,-5.5468,-5.541,-5.4928,-5.4065,-5.3344,-5.3104,-5.2939,-5.2672,-5.2184,-5.153,-5.1416,-5.1126,-5.0971,-5.0888,-5.0855,-5.0819,-5.0784,-5.0775,-5.0747,-5.073,-5.0702,-5.0692,-5.0693,-5.0693,-5.0693,-5.0693,-5.0683,-5.0683,-5.0683,-5.0452,-5.0173,-4.8971,-4.7913,-4.7567,-4.6336,-4.5652,-4.5594,-4.5594,-4.5594,-4.5594,-4.5594,-4.5594,-4.5594,-4.5594,-4.5594,-4.5594,-4.5594,-4.5594,-4.5594,-4.5594,-4.5594,-4.5594,-4.5594,-4.5594,-4.5594,-4.5594,-4.5594,-4.5594,-4.5594,-4.5594,-4.5594,-4.5594,-4.5594,-4.5594,-4.5594,-4.5594,-4.5594,-4.5594,-4.5594,-4.5594,-4.5594,-4.5594,-4.5594,-4.5594,-4.5594,-4.5586,-4.5558,-4.5549,-4.554,-4.5522,-4.5475,-4.5448,-4.5419,-4.54,-4.54,-4.539,-4.5341,-4.532,-4.5317,-4.5307,-4.5307,-4.5307,-4.5317,-4.5307,-4.5256,-4.5256,-4.5256,-4.5235,-4.5213,-4.5246,-4.5267,-4.5297,-4.5297,-4.5258,-4.5029,-4.4762,-4.4532,-4.415,-4.3749,-4.2803,-4.2049,-5.6487,-5.6448,-5.6067,-5.5389,-5.4671,-5.4569,-5.407,-5.3288,-5.2728,-5.23,-5.1914,-5.1792,-5.1516,-5.1115,-5.1055,-5.1027,-5.0971,-5.096,-5.0937,-5.0893,-5.0844,-5.0827,-5.081,-5.0784,-5.0766,-5.0748,-5.0702,-5.0702,-5.0702,-5.0693,-5.0683,-5.0693,-5.0693,-5.0654,-5.0442,-4.9106,-4.8135,-4.8,-4.6432,-4.5748,-4.5614,-4.5594,-4.5594,-4.5594,-4.5594,-4.5594,-4.5594,-4.5594,-4.5594,-4.5594,-4.5594,-4.5594,-4.5594,-4.5594,-4.5594,-4.5594,-4.5594,-4.5594,-4.5594,-4.5594,-4.5594,-4.5594,-4.5594,-4.5594,-4.5594,-4.5594,-4.5594,-4.5594,-4.5594,-4.5594,-4.5594,-4.5594,-4.5594,-4.5594,-4.5594,-4.5594,-4.5594,-4.5594,-4.5594,-4.5594,-4.5586,-4.5586,-4.5577,-4.5577,-4.5531,-4.5531,-4.5495,-4.5467,-4.5448,-4.5438,-4.539,-4.537,-4.537,-4.5348,-4.5348,-4.5338,-4.5338,-4.5317,-4.5298,-4.5297,-4.5297,-4.5297,-4.5277,-4.5307,-4.5307,-4.5277,-4.5277,-4.5277,-4.5277,-4.5086,-4.4876,-4.4647,-4.4265,-4.3902,-4.3214,-5.6212,-5.6053,-5.5354,-5.4525,-5.379,-5.3731,-5.3233,-5.2532,-5.2418,-5.202,-5.1423,-5.1238,-5.1122,-5.1113,-5.1089,-5.1082,-5.1074,-5.1039,-5.1005,-5.099,-5.0945,-5.0929,-5.0897,-5.0863,-5.0819,-5.0784,-5.0748,-5.071,-5.071,-5.0692,-5.0683,-5.0693,-5.0693,-5.0683,-5.0202,-4.9279,-4.8336,-4.7836,-4.6817,-4.5902,-4.5671,-4.5594,-4.5594,-4.5594,-4.5594,-4.5594,-4.5594,-4.5594,-4.5594,-4.5594,-4.5594,-4.5594,-4.5594,-4.5594,-4.5594,-4.5594,-4.5594,-4.5594,-4.5594,-4.5594,-4.5594,-4.5594,-4.5594,-4.5594,-4.5594,-4.5594,-4.5594,-4.5594,-4.5594,-4.5594,-4.5594,-4.5594,-4.5594,-4.5594,-4.5594,-4.5594,-4.5594,-4.5594,-4.5594,-4.5594,-4.5594,-4.5594,-4.5594,-4.5586,-4.5586,-4.5594,-4.5586,-4.554,-4.5522,-4.5513,-4.5485,-4.5467,-4.5467,-4.5438,-4.5409,-4.537,-4.536,-4.536,-4.535,-4.5319,-4.5328,-4.5338,-4.5328,-4.5317,-4.5317,-4.5307,-4.5297,-4.5277,-4.5277,-4.5277,-4.5144,-4.4953,-4.4895,-4.4532,-4.4178,-5.5034,-5.4375,-5.4219,-5.3654,-5.2909,-5.2851,-5.2399,-5.1694,-5.1599,-5.1417,-5.1328,-5.1276,-5.124,-5.1171,-5.1111,-5.1101,-5.1094,-5.1069,-5.1074,-5.106,-5.1046,-5.1005,-5.0975,-5.0937,-5.0861,-5.0827,-5.0801,-5.0793,-5.0756,-5.071,-5.0702,-5.0702,-5.0702,-5.0654,-5.0519,-4.9577,-4.8682,-4.8009,-4.7182,-4.6278,-4.5691,-4.5594,-4.5594,-4.5594,-4.5594,-4.5594,-4.5594,-4.5594,-4.5594,-4.5594,-4.5594,-4.5594,-4.5594,-4.5594,-4.5594,-4.5594,-4.5594,-4.5594,-4.5594,-4.5594,-4.5594,-4.5594,-4.5594,-4.5594,-4.5594,-4.5594,-4.5594,-4.5594,-4.5594,-4.5594,-4.5594,-4.5594,-4.5594,-4.5594,-4.5594,-4.5594,-4.5594,-4.5594,-4.5594,-4.5594,-4.5594,-4.5594,-4.5594,-4.5594,-4.5594,-4.5594,-4.5594,-4.5577,-4.5577,-4.5568,-4.5568,-4.5559,-4.5541,-4.5485,-4.5429,-4.541,-4.5381,-4.54,-4.539,-4.5361,-4.537,-4.5398,-4.5379,-4.535,-4.5338,-4.5307,-4.5307,-4.5307,-4.5277,-4.5277,-4.5277,-4.522,-4.522,-4.5105,-4.4685]},{"header":{"parameterUnit":"m.s-1","parameterCategory":1,"la1":31.0,"la2":29.5877,"lo1":-88.7671,"lo2":-86.6584,"dy":0.0162,"dx":0.0185,"nx":115,"ny":88,"refTime":"2024-05-21T00:00:00:Z","depth":0,"parameterNumber":3,"parameterNumberName":"V-component_of_WINDS"},"data":[0.0,0.0,0.0,0.0,0.0,0.0,0.0,0.0,0.0,0.0,0.0,0.0,0.0,0.0,0.0,0.0,0.0,0.0,0.0,0.0,0.0,0.0,0.0,0.0,0.0,0.0,0.0,0.0,0.0,0.0,0.0,0.0,0.0,0.0,0.0,0.0,0.0,0.0,0.0,0.0,0.0,0.0,0.0,0.0,0.0,0.0,0.0,0.0,0.0,0.0,0.0,0.0,0.0,0.0,0.0,0.0,0.0,0.0,0.0,0.0,0.0,0.0,0.0,0.0,0.0,0.0,0.0,0.0,0.0,0.0,0.0,0.0,0.0,0.0,0.0,0.0,0.0,0.0,0.0,0.0,0.0,0.0,0.0,0.0,0.0,0.0,0.0,0.0,0.0,0.0,0.0,0.0,0.0,0.0,0.0,0.0,0.0,0.0,0.0,0.0,0.0,0.0,0.0,0.0,0.0,0.0,0.0,0.0,0.0,0.0,0.0,0.0,0.0,0.0,0.0,0.0,0.0,0.0,0.0,0.0,0.0,0.0,0.0,0.0,0.0,0.0,0.0,0.0,0.0,0.0,0.0,0.0,0.0,0.0,0.0,0.0,0.0,0.0,0.0,0.0,0.0,0.0,0.0,0.0,0.0,0.0,0.0,0.0,0.0,0.0,0.0,0.0,0.0,0.0,0.0,0.0,0.0,0.0,0.0,0.0,0.0,0.0,0.0,0.0,0.0,0.0,0.0,0.0,0.0,0.0,0.0,0.0,0.0,0.0,0.0,0.0,0.0,0.0,0.0,0.0,0.0,0.0,0.0,0.0,0.0,0.0,0.0,0.0,0.0,0.0,0.0,0.0,0.0,0.0,0.0,0.0,0.0,0.0,0.0,0.0,0.0,0.0,0.0,0.0,0.0,0.0,0.0,0.0,0.0,0.0,0.0,0.0,0.0,0.0,0.0,0.0,0.0,0.0,0.0,0.0,0.0,0.0,0.0,0.0,0.0,0.0,0.0,0.0,0.0,0.0,0.0,0.0,0.0,0.0,0.0,0.0,0.0,0.0,0.0,0.0,0.0,0.0,0.0,0.0,0.0,0.0,0.0,0.0,0.0,0.0,0.0,0.0,0.0,0.0,0.0,0.0,0.0,0.0,0.0,0.0,0.0,0.0,0.0,0.0,0.0,0.0,0.0,0.0,0.0,0.0,0.0,0.0,0.0,0.0,0.0,0.0,0.0,0.0,0.0,0.0,0.0,0.0,0.0,0.0,0.0,0.0,0.0,0.0,0.0,0.0,0.0,0.0,0.0,0.0,0.0,0.0,0.0,0.0,0.0,0.0,0.0,0.0,0.0,0.0,0.0,0.0,0.0,0.0,0.0,0.0,0.0,0.0,0.0,0.0,0.0,0.0,0.0,0.0,0.0,0.0,0.0,0.0,0.0,0.0,0.0,0.0,0.0,0.0,0.0,0.0,0.0,0.0,0.0,0.0,0.0,0.0,0.0,0.0,0.0,0.0,0.0,0.0,0.0,0.0,0.0,0.0,0.0,0.0,0.0,0.0,0.0,0.0,0.0,0.0,0.0,0.0,0.0,0.0,0.0,0.0,0.0,0.0,0.0,0.0,0.0,0.0,0.0,0.0,0.0,0.0,0.0,0.0,0.0,0.0,0.0,0.0,0.0,0.0,0.0,0.0,0.0,0.0,0.0,0.0,0.0,0.0,0.0,0.0,0.0,0.0,0.0,0.0,0.0,0.0,0.0,0.0,0.0,0.0,0.0,0.0,0.0,0.0,0.0,0.0,0.0,0.0,0.0,0.0,0.0,0.0,0.0,0.0,0.0,0.0,0.0,0.0,0.0,0.0,0.0,0.0,0.0,0.0,0.0,0.0,0.0,0.0,0.0,0.0,0.0,0.0,0.0,0.0,0.0,0.0,0.0,0.0,0.0,0.0,0.0,0.0,0.0,0.0,0.0,0.0,0.0,0.0,0.0,0.0,0.0,0.0,0.0,0.0,0.0,0.0,0.0,0.0,0.0,0.0,0.0,0.0,0.0,0.0,0.0,0.0,0.0,0.0,0.0,0.0,0.0,0.0,0.0,0.0,0.0,0.0,0.0,0.0,0.0,0.0,0.0,0.0,0.0,0.0,0.0,0.0,0.0,0.0,0.0,0.0,0.0,0.0,0.0,0.0,0.0,0.0,0.0,0.0,0.0,0.0,0.0,0.0,0.0,0.0,0.0,0.0,0.0,0.0,0.0,0.0,0.0,0.0,0.0,0.0,0.0,0.0,0.0,0.0,0.0,0.0,0.0,0.0,0.0,0.0,0.0,0.0,0.0,0.0,0.0,0.0,0.0,0.0,0.0,0.0,0.0,0.0,0.0,0.0,0.0,0.0,0.0,0.0,0.0,0.0,0.0,0.0,0.0,0.0,0.0,0.0,0.0,0.0,0.0,0.0,0.0,0.0,0.0,0.0,0.0,0.0,0.0,0.0,0.0,0.0,0.0,0.0,0.0,0.0,0.0,0.0,0.0,0.0,0.0,0.0,0.0,0.0,0.0,0.0,0.0,0.0,0.0,0.0,0.0,0.0,0.0,0.0,0.0,0.0,0.0,0.0,0.0,0.0,0.0,0.0,0.0,0.0,0.0,0.0,0.0,0.0,0.0,0.0,0.0,0.0,0.0,0.0,0.0,0.0,0.0,0.0,0.0,0.0,0.0,0.0,0.0,0.0,0.0,0.0,0.0,0.0,0.0,0.0,0.0,0.0,0.0,0.0,0.0,0.0,0.0,0.0,0.0,0.0,0.0,0.0,0.0,0.0,0.0,0.0,0.0,0.0,0.0,0.0,0.0,0.0,0.0,0.0,0.0,0.0,0.0,0.0,0.0,0.0,0.0,0.0,0.0,0.0,0.0,0.0,0.0,0.0,0.0,0.0,0.0,0.0,0.0,0.0,0.0,0.0,0.0,0.0,0.0,0.0,0.0,0.0,0.0,0.0,0.0,0.0,0.0,0.0,0.0,0.0,0.0,0.0,0.0,0.0,0.0,0.0,0.0,0.0,0.0,0.0,0.0,0.0,0.0,0.0,0.0,0.0,0.0,0.0,0.0,0.0,0.0,0.0,0.0,0.0,0.0,0.0,0.0,0.0,0.0,0.0,0.0,0.0,0.0,0.0,0.0,0.0,0.0,0.0,0.0,0.0,0.0,0.0,0.0,0.0,0.0,0.0,0.0,0.0,0.0,0.0,0.0,0.0,0.0,0.0,0.0,0.0,0.0,0.0,0.0,0.0,0.0,0.0,0.0,0.0,0.0,0.0,0.0,0.0,0.0,0.0,0.0,0.0,0.0,0.0,0.0,0.0,0.0,0.0,0.0,0.0,0.0,0.0,0.0,0.0,0.0,0.0,0.0,0.0,0.0,0.0,0.0,0.0,0.0,0.0,0.0,0.0,0.0,0.0,0.0,0.0,0.0,0.0,0.0,0.0,0.0,0.0,0.0,0.0,0.0,0.0,0.0,0.0,0.0,0.0,0.0,0.0,0.0,0.0,0.0,0.0,0.0,0.0,0.0,0.0,0.0,0.0,0.0,0.0,0.0,0.0,0.0,0.0,0.0,0.0,0.0,0.0,0.0,0.0,0.0,0.0,0.0,0.0,0.0,0.0,0.0,0.0,0.0,0.0,0.0,0.0,0.0,0.0,0.0,0.0,0.0,0.0,0.0,0.0,0.0,0.0,0.0,0.0,0.0,0.0,0.0,0.0,0.0,0.0,0.0,0.0,0.0,0.0,0.0,0.0,0.0,0.0,0.0,0.0,0.0,0.0,0.0,0.0,0.0,0.0,0.0,0.0,0.0,0.0,0.0,0.0,0.0,0.0,0.0,0.0,0.0,0.0,0.0,0.0,0.0,0.0,0.0,0.0,0.0,0.0,0.0,0.0,0.0,0.0,0.0,0.0,0.0,0.0,0.0,0.0,0.0,0.0,0.0,0.0,0.0,0.0,0.0,0.0,0.0,0.0,0.0,0.0,0.0,0.0,0.0,0.0,0.0,0.0,0.0,0.0,0.0,0.0,0.0,0.0,0.0,0.0,0.0,0.0,0.0,0.0,0.0,0.0,0.0,0.0,0.0,0.0,0.0,0.0,0.0,0.0,0.0,0.0,0.0,0.0,0.0,0.0,0.0,0.0,0.0,0.0,0.0,0.0,0.0,0.0,0.0,0.0,0.0,0.0,0.0,0.0,0.0,0.0,0.0,0.0,0.0,0.0,0.0,0.0,0.0,0.0,0.0,0.0,-0.461,0.0,0.0,0.0,0.0,0.0,0.0,0.0,0.0,0.0,0.0,0.0,0.0,0.0,0.0,0.0,0.0,0.0,0.0,0.0,0.0,0.0,0.0,0.0,0.0,0.0,0.0,0.0,0.0,0.0,0.0,0.0,0.0,0.0,0.0,0.0,0.0,0.0,0.0,0.0,0.0,0.0,0.0,0.0,0.0,0.0,0.0,0.0,0.0,0.0,0.0,0.0,0.0,0.0,0.0,0.0,0.0,0.0,0.0,0.0,0.0,0.0,0.0,0.0,0.0,0.0,0.0,0.0,0.0,0.0,0.0,0.0,0.0,0.0,0.0,0.0,0.0,0.0,0.0,0.0,0.0,0.0,0.0,0.0,0.0,0.0,0.0,0.0,0.0,0.0,0.0,0.0,0.0,0.0,0.0,0.0,0.0,0.0,0.0,0.0,0.0,0.0,0.0,0.0,0.0,0.0,0.0,0.0,0.0,0.0,0.0,-0.5817,-0.5681,-0.5627,-0.5474,-0.5183,0.0,0.0,0.0,0.0,0.0,0.0,0.0,0.0,0.0,0.0,0.0,0.0,0.0,0.0,0.0,0.0,0.0,0.0,0.0,0.0,0.0,0.0,0.0,0.0,0.0,0.0,0.0,0.0,0.0,0.0,0.0,0.0,0.0,0.0,0.0,0.0,0.0,0.0,0.0,0.0,0.0,0.0,0.0,0.0,0.0,0.0,0.0,0.0,0.0,0.0,0.0,0.0,0.0,0.0,0.0,0.0,0.0,0.0,0.0,0.0,0.0,0.0,0.0,0.0,0.0,0.0,0.0,0.0,0.0,0.0,0.0,0.0,0.0,0.0,0.0,0.0,0.0,0.0,0.0,0.0,0.0,0.0,0.0,0.0,0.0,0.0,0.0,0.0,0.0,0.0,0.0,0.0,0.0,0.0,0.0,0.0,0.0,0.0,0.0,0.0,0.0,0.0,0.0,0.0,0.0,0.0,0.0,0.0,0.0,0.0,0.0,0.0,-0.5975,-0.5873,-0.5616,0.0,0.0,0.0,0.0,0.0,0.0,0.0,0.0,0.0,0.0,0.0,0.0,0.0,0.0,0.0,0.0,0.0,0.0,0.0,0.0,0.0,0.0,0.0,0.0,0.0,0.0,0.0,0.0,0.0,0.0,0.0,0.0,0.0,0.0,0.0,0.0,0.0,0.0,0.0,0.0,0.0,0.0,0.0,0.0,0.0,0.0,0.0,0.0,0.0,0.0,0.0,0.0,0.0,0.0,0.0,0.0,0.0,0.0,0.0,0.0,0.0,0.0,0.0,0.0,0.0,0.0,0.0,0.0,0.0,0.0,0.0,0.0,0.0,0.0,0.0,0.0,0.0,0.0,0.0,0.0,0.0,0.0,0.0,0.0,0.0,0.0,0.0,0.0,0.0,0.0,0.0,0.0,0.0,0.0,0.0,0.0,0.0,0.0,0.0,0.0,0.0,0.0,0.0,0.0,0.0,0.0,0.0,0.0,0.0,0.0,-0.629,-0.6191,-0.6186,0.0,-0.562,0.0,0.0,0.0,0.0,0.0,0.0,0.0,0.0,0.0,0.0,0.0,0.0,0.0,0.0,0.0,0.0,0.0,0.0,0.0,0.0,0.0,0.0,0.0,0.0,0.0,0.0,0.0,0.0,0.0,0.0,0.0,0.0,0.0,0.0,0.0,0.0,0.0,0.0,0.0,0.0,0.0,0.0,0.0,0.0,0.0,0.0,0.0,0.0,0.0,0.0,0.0,0.0,0.0,0.0,0.0,0.0,0.0,0.0,0.0,0.0,0.0,0.0,0.0,0.0,0.0,0.0,0.0,0.0,0.0,0.0,0.0,0.0,0.0,0.0,0.0,0.0,0.0,0.0,0.0,0.0,0.0,0.0,0.0,0.0,0.0,0.0,0.0,0.0,0.0,0.0,0.0,0.0,0.0,0.0,0.0,0.0,0.0,0.0,0.0,0.0,0.0,0.0,0.0,0.0,0.0,0.0,0.0,0.0,0.0,0.0,-0.6384,-0.6343,-0.6135,-0.5955,0.0,0.0,0.0,0.0,0.0,0.0,0.0,0.0,0.0,0.0,0.0,0.0,0.0,0.0,0.0,0.0,0.0,0.0,0.0,0.0,0.0,0.0,0.0,0.0,0.0,0.0,0.0,0.0,0.0,0.0,0.0,0.0,0.0,0.0,0.0,0.0,0.0,0.0,0.0,0.0,0.0,0.0,0.0,0.0,0.0,0.0,0.0,0.0,0.0,0.0,0.0,0.0,0.0,0.0,0.0,0.0,0.0,0.0,0.0,0.0,0.0,0.0,0.0,0.0,0.0,0.0,0.0,0.0,0.0,0.0,0.0,0.0,0.0,0.0,0.0,0.0,0.0,0.0,0.0,0.0,0.0,0.0,0.0,0.0,0.0,0.0,0.0,0.0,0.0,0.0,0.0,0.0,0.0,0.0,0.0,0.0,0.0,0.0,0.0,0.0,0.0,0.0,0.0,0.0,0.0,0.0,0.0,0.0,0.0,0.0,-0.6392,0.0,-0.6404,-0.6075,-0.5888,-0.5884,0.0,0.0,0.0,0.0,0.0,0.0,0.0,0.0,0.0,0.0,0.0,0.0,0.0,0.0,0.0,0.0,0.0,0.0,0.0,0.0,0.0,0.0,0.0,0.0,0.0,0.0,0.0,0.0,0.0,0.0,0.0,0.0,0.0,0.0,0.0,0.0,0.0,0.0,0.0,0.0,0.0,0.0,0.0,0.0,0.0,0.0,0.0,0.0,0.0,0.0,0.0,0.0,0.0,0.0,0.0,0.0,0.0,0.0,0.0,0.0,0.0,0.0,0.0,0.0,0.0,0.0,0.0,0.0,0.0,0.0,0.0,0.0,0.0,0.0,0.0,0.0,0.0,0.0,0.0,0.0,0.0,0.0,0.0,0.0,0.0,0.0,0.0,0.0,0.0,0.0,0.0,0.0,0.0,0.0,0.0,0.0,0.0,0.0,0.0,0.0,0.0,0.0,0.0,0.0,0.0,0.0,0.0,0.0,0.0,-0.6327,-0.642,-0.6379,-0.6071,-0.5888,0.0,0.0,0.0,0.0,0.0,0.0,0.0,0.0,0.0,0.0,0.0,0.0,0.0,0.0,0.0,0.0,0.0,0.0,0.0,0.0,0.0,0.0,0.0,0.0,0.0,0.0,0.0,0.0,0.0,0.0,0.0,0.0,0.0,0.0,0.0,0.0,0.0,0.0,0.0,0.0,0.0,0.0,0.0,0.0,0.0,0.0,0.0,0.0,0.0,0.0,0.0,0.0,0.0,0.0,0.0,0.0,0.0,0.0,0.0,0.0,0.0,0.0,0.0,0.0,0.0,0.0,0.0,0.0,0.0,0.0,0.0,0.0,0.0,0.0,0.0,0.0,0.0,0.0,0.0,0.0,0.0,0.0,0.0,0.0,0.0,0.0,0.0,0.0,0.0,0.0,0.0,0.0,0.0,0.0,0.0,0.0,0.0,0.0,0.0,0.0,0.0,0.0,0.0,0.0,0.0,0.0,0.0,0.0,0.0,-0.6171,-0.6327,-0.642,-0.6375,-0.6075,-0.5888,0.0,0.0,0.0,0.0,0.0,0.0,0.0,0.0,0.0,0.0,0.0,0.0,0.0,0.0,0.0,0.0,0.0,0.0,0.0,0.0,0.0,0.0,0.0,0.0,0.0,0.0,0.0,0.0,0.0,0.0,0.0,0.0,0.0,0.0,0.0,0.0,0.0,0.0,0.0,0.0,0.0,0.0,0.0,0.0,0.0,0.0,0.0,0.0,0.0,0.0,0.0,0.0,0.0,0.0,0.0,0.0,0.0,0.0,0.0,0.0,0.0,0.0,0.0,0.0,0.0,0.0,0.0,0.0,0.0,0.0,0.0,0.0,0.0,0.0,0.0,0.0,0.0,0.0,0.0,0.0,0.0,0.0,0.0,0.0,0.0,0.0,0.0,0.0,0.0,0.0,0.0,0.0,0.0,0.0,0.0,0.0,0.0,0.0,0.0,0.0,0.0,0.0,0.0,0.0,0.0,0.0,0.0,0.0,0.0,-0.6261,0.0,-0.642,0.0,-0.6075,-0.5888,0.0,0.0,0.0,0.0,0.0,0.0,0.0,0.0,0.0,0.0,0.0,0.0,0.0,0.0,0.0,0.0,0.0,0.0,0.0,0.0,0.0,0.0,0.0,0.0,0.0,0.0,0.0,0.0,0.0,0.0,0.0,0.0,0.0,0.0,0.0,0.0,0.0,0.0,0.0,0.0,0.0,0.0,0.0,0.0,0.0,0.0,0.0,0.0,0.0,0.0,0.0,0.0,0.0,0.0,0.0,0.0,0.0,0.0,0.0,0.0,0.0,0.0,0.0,0.0,0.0,0.0,0.0,0.0,0.0,0.0,0.0,0.0,0.0,0.0,0.0,0.0,0.0,0.0,0.0,0.0,0.0,0.0,0.0,0.0,0.0,0.0,0.0,0.0,0.0,0.0,0.0,0.0,0.0,0.0,0.0,0.0,0.0,0.0,0.0,0.0,0.0,0.0,0.0,0.0,0.0,0.0,0.0,0.0,-0.6106,-0.6367,-0.6383,-0.6424,-0.6379,-0.6083,-0.5892,0.0,0.0,0.0,0.0,0.0,0.0,0.0,0.0,0.0,0.0,0.0,0.0,0.0,0.0,0.0,0.0,0.0,0.0,0.0,0.0,0.0,0.0,0.0,0.0,0.0,0.0,0.0,0.0,0.0,0.0,0.0,0.0,0.0,0.0,0.0,0.0,0.0,0.0,0.0,0.0,0.0,0.0,0.0,0.0,0.0,0.0,0.0,0.0,0.0,0.0,0.0,0.0,0.0,0.0,0.0,0.0,0.0,0.0,0.0,0.0,0.0,0.0,0.0,0.0,0.0,0.0,0.0,0.0,0.0,0.0,0.0,0.0,0.0,0.0,0.0,0.0,0.0,0.0,0.0,0.0,0.0,0.0,0.0,0.0,0.0,0.0,0.0,0.0,0.0,0.0,0.0,0.0,0.0,0.0,0.0,0.0,0.0,0.0,0.0,0.0,0.0,0.0,0.0,0.0,0.0,0.0,0.0,0.0,0.0,-0.6587,-0.6481,-0.6473,-0.6612,-0.6282,-0.6041,0.0,0.0,0.0,0.0,0.0,0.0,0.0,0.0,0.0,0.0,0.0,0.0,0.0,0.0,0.0,0.0,0.0,0.0,0.0,0.0,0.0,0.0,0.0,0.0,0.0,0.0,0.0,0.0,0.0,0.0,0.0,0.0,0.0,0.0,0.0,0.0,0.0,0.0,0.0,0.0,0.0,0.0,0.0,0.0,0.0,0.0,0.0,0.0,0.0,0.0,0.0,0.0,0.0,0.0,0.0,0.0,0.0,0.0,0.0,0.0,0.0,0.0,0.0,0.0,0.0,0.0,0.0,0.0,0.0,0.0,0.0,0.0,0.0,0.0,0.0,0.0,0.0,0.0,0.0,0.0,0.0,0.0,0.0,0.0,0.0,0.0,0.0,0.0,0.0,0.0,0.0,0.0,0.0,0.0,0.0,0.0,0.0,0.0,0.0,0.0,0.0,0.0,0.0,0.0,0.0,0.0,0.0,0.0,0.0,-0.721,-0.6845,-0.6702,-0.6812,-0.6465,-0.6229,-0.6083,0.0,0.0,0.0,0.0,0.0,0.0,0.0,0.0,0.0,0.0,0.0,0.0,0.0,0.0,0.0,0.0,0.0,0.0,0.0,0.0,0.0,0.0,0.0,0.0,0.0,0.0,0.0,0.0,0.0,0.0,0.0,0.0,0.0,0.0,0.0,0.0,0.0,0.0,0.0,0.0,0.0,0.0,0.0,0.0,0.0,0.0,0.0,0.0,0.0,0.0,0.0,0.0,0.0,0.0,0.0,0.0,0.0,0.0,0.0,0.0,0.0,0.0,0.0,0.0,0.0,0.0,0.0,0.0,0.0,0.0,0.0,0.0,0.0,0.0,0.0,0.0,0.0,0.0,0.0,0.0,0.0,0.0,0.0,0.0,0.0,0.0,0.0,0.0,0.0,0.0,0.0,0.0,0.0,0.0,0.0,0.0,0.0,0.0,0.0,0.0,0.0,0.0,0.0,0.0,0.0,0.0,0.0,0.0,-0.8136,-0.7433,-0.7077,-0.7052,-0.6673,-0.6436,0.0,0.0,0.0,0.0,0.0,0.0,0.0,0.0,0.0,0.0,0.0,0.0,0.0,0.0,0.0,0.0,0.0,0.0,0.0,0.0,0.0,0.0,0.0,0.0,0.0,0.0,0.0,0.0,0.0,0.0,0.0,0.0,0.0,0.0,0.0,0.0,0.0,0.0,0.0,0.0,0.0,0.0,0.0,0.0,0.0,0.0,0.0,0.0,0.0,0.0,0.0,0.0,0.0,0.0,0.0,0.0,0.0,0.0,0.0,0.0,0.0,0.0,0.0,0.0,0.0,0.0,0.0,0.0,0.0,0.0,0.0,0.0,0.0,0.0,0.0,0.0,0.0,0.0,0.0,0.0,0.0,0.0,0.0,0.0,0.0,0.0,0.0,0.0,0.0,0.0,0.0,0.0,0.0,0.0,0.0,0.0,0.0,0.0,0.0,0.0,0.0,0.0,0.0,0.0,0.0,0.0,0.0,0.0,0.0,-0.8327,-0.8282,-0.8043,-0.761,-0.7244,-0.6855,0.0,0.0,0.0,0.0,0.0,0.0,0.0,0.0,0.0,0.0,0.0,0.0,0.0,0.0,0.0,0.0,0.0,0.0,0.0,0.0,0.0,0.0,0.0,0.0,0.0,0.0,0.0,0.0,0.0,0.0,0.0,0.0,0.0,0.0,0.0,0.0,0.0,0.0,0.0,0.0,0.0,0.0,0.0,0.0,0.0,0.0,0.0,0.0,0.0,0.0,0.0,0.0,0.0,0.0,0.0,0.0,0.0,0.0,0.0,0.0,0.0,0.0,0.0,0.0,0.0,0.0,0.0,0.0,0.0,0.0,0.0,0.0,0.0,0.0,0.0,0.0,0.0,0.0,0.0,0.0,0.0,0.0,0.0,0.0,0.0,0.0,0.0,0.0,0.0,0.0,0.0,0.0,0.0,0.0,0.0,0.0,0.0,0.0,0.0,0.0,0.0,0.0,0.0,0.0,0.0,0.0,0.0,0.0,-0.9,-0.9344,-0.9381,-0.9183,-0.8747,-0.7931,-0.733,0.0,0.0,0.0,0.0,0.0,0.0,0.0,0.0,0.0,0.0,0.0,0.0,0.0,0.0,0.0,0.0,0.0,0.0,0.0,0.0,0.0,0.0,0.0,0.0,0.0,0.0,0.0,0.0,0.0,0.0,0.0,0.0,0.0,0.0,0.0,0.0,0.0,0.0,0.0,0.0,0.0,0.0,0.0,0.0,0.0,0.0,0.0,0.0,0.0,0.0,0.0,0.0,0.0,0.0,0.0,0.0,0.0,0.0,0.0,0.0,0.0,0.0,0.0,0.0,0.0,0.0,0.0,0.0,0.0,0.0,0.0,0.0,0.0,0.0,0.0,0.0,0.0,0.0,0.0,0.0,0.0,0.0,0.0,0.0,0.0,0.0,0.0,0.0,0.0,0.0,0.0,0.0,0.0,0.0,0.0,0.0,0.0,0.0,0.0,0.0,0.0,0.0,0.0,0.0,0.0,0.0,0.0,0.0,-0.9921,-1.075,-1.0536,-1.0328,-1.0091,-0.8707,-0.7812,0.0,0.0,0.0,0.0,0.0,0.0,0.0,0.0,0.0,0.0,0.0,0.0,0.0,0.0,0.0,0.0,0.0,0.0,0.0,0.0,0.0,0.0,0.0,0.0,0.0,0.0,0.0,0.0,0.0,0.0,0.0,0.0,0.0,0.0,0.0,0.0,0.0,0.0,0.0,0.0,0.0,0.0,0.0,0.0,0.0,0.0,0.0,0.0,0.0,0.0,0.0,0.0,0.0,0.0,0.0,0.0,0.0,0.0,0.0,0.0,0.0,0.0,0.0,0.0,0.0,0.0,0.0,0.0,0.0,0.0,0.0,0.0,0.0,0.0,0.0,0.0,0.0,0.0,0.0,0.0,0.0,0.0,0.0,0.0,0.0,0.0,0.0,0.0,0.0,0.0,0.0,0.0,0.0,0.0,0.0,0.0,0.0,0.0,0.0,0.0,0.0,0.0,0.0,0.0,0.0,0.0,0.0,0.0,-1.0633,-1.1225,-1.1126,-1.1003,-1.0776,-0.9507,-0.8439,0.0,0.0,0.0,0.0,0.0,0.0,0.0,0.0,0.0,0.0,0.0,0.0,0.0,0.0,0.0,0.0,0.0,0.0,0.0,0.0,0.0,0.0,0.0,0.0,0.0,0.0,0.0,0.0,0.0,0.0,0.0,0.0,0.0,0.0,0.0,0.0,0.0,0.0,0.0,0.0,0.0,0.0,0.0,0.0,0.0,0.0,0.0,0.0,-0.6401,0.0,0.0,0.0,0.0,0.0,0.0,0.0,0.0,0.0,0.0,0.0,0.0,0.0,0.0,0.0,0.0,0.0,0.0,0.0,0.0,0.0,0.0,0.0,0.0,0.0,0.0,0.0,0.0,0.0,0.0,0.0,0.0,0.0,0.0,0.0,0.0,0.0,0.0,0.0,0.0,0.0,0.0,0.0,0.0,0.0,0.0,0.0,0.0,0.0,0.0,0.0,0.0,0.0,0.0,0.0,0.0,0.0,0.0,0.0,-1.1542,-1.2181,-1.2084,-1.1836,-1.1488,-1.0413,-0.9285,0.0,0.0,0.0,0.0,0.0,0.0,0.0,0.0,0.0,0.0,0.0,0.0,0.0,0.0,0.0,0.0,0.0,0.0,0.0,0.0,0.0,0.0,0.0,0.0,0.0,0.0,0.0,0.0,0.0,0.0,0.0,0.0,0.0,0.0,0.0,0.0,0.0,0.0,0.0,0.0,0.0,0.0,0.0,0.0,0.0,0.0,0.0,0.0,0.0,0.0,0.0,0.0,0.0,0.0,0.0,0.0,0.0,0.0,0.0,0.0,0.0,0.0,0.0,0.0,0.0,0.0,0.0,0.0,0.0,0.0,0.0,0.0,0.0,0.0,0.0,0.0,0.0,0.0,0.0,0.0,0.0,0.0,0.0,0.0,0.0,0.0,0.0,0.0,0.0,0.0,0.0,0.0,0.0,0.0,0.0,0.0,0.0,0.0,0.0,0.0,0.0,0.0,0.0,0.0,0.0,0.0,0.0,-1.1748,-1.2528,-1.32,-1.3066,-1.2752,-1.2283,-1.1315,-1.0096,-0.8617,0.0,0.0,0.0,0.0,0.0,0.0,0.0,0.0,0.0,0.0,0.0,0.0,0.0,0.0,0.0,0.0,0.0,0.0,0.0,0.0,0.0,0.0,0.0,0.0,0.0,0.0,0.0,0.0,0.0,0.0,0.0,0.0,0.0,0.0,0.0,0.0,0.0,0.0,-0.467,-0.566,0.0,0.0,0.0,0.0,0.0,0.0,0.0,0.0,-0.7291,0.0,0.0,0.0,0.0,0.0,0.0,0.0,0.0,0.0,0.0,0.0,0.0,0.0,0.0,0.0,0.0,0.0,0.0,0.0,0.0,0.0,0.0,0.0,0.0,0.0,0.0,0.0,0.0,0.0,0.0,0.0,0.0,0.0,0.0,0.0,0.0,0.0,0.0,0.0,0.0,0.0,0.0,0.0,0.0,0.0,0.0,0.0,0.0,0.0,0.0,0.0,0.0,0.0,0.0,0.0,0.0,-1.1558,-1.2393,-1.3209,-1.3974,-1.3853,-1.3501,-1.3013,-1.1888,-1.0637,-0.9256,0.0,0.0,0.0,0.0,0.0,0.0,0.0,0.0,0.0,0.0,0.0,0.0,0.0,0.0,0.0,0.0,0.0,0.0,0.0,0.0,0.0,0.0,0.0,0.0,0.0,0.0,0.0,0.0,0.0,0.0,0.0,0.0,0.0,0.0,0.0,0.0,0.0,0.0,0.0,-0.6422,-0.7039,0.0,0.0,0.0,0.0,0.0,0.0,0.0,0.0,-0.7928,0.0,0.0,0.0,0.0,0.0,0.0,0.0,0.0,0.0,0.0,0.0,0.0,0.0,0.0,0.0,0.0,0.0,0.0,0.0,0.0,0.0,0.0,0.0,0.0,0.0,0.0,0.0,0.0,0.0,0.0,0.0,0.0,0.0,0.0,0.0,0.0,0.0,0.0,0.0,0.0,0.0,0.0,0.0,0.0,0.0,0.0,0.0,0.0,0.0,0.0,0.0,0.0,0.0,0.0,0.0,-1.1918,-1.2853,-1.3709,-1.4392,-1.4465,-1.4157,-1.3395,-1.2382,-1.1186,0.0,0.0,0.0,0.0,0.0,0.0,0.0,0.0,0.0,0.0,0.0,0.0,0.0,0.0,0.0,0.0,0.0,0.0,0.0,0.0,0.0,0.0,0.0,0.0,0.0,0.0,0.0,0.0,0.0,0.0,0.0,0.0,0.0,0.0,0.0,0.0,0.0,0.0,0.0,0.0,-0.686,-0.739,-0.788,0.0,0.0,0.0,0.0,0.0,0.0,-0.8384,-0.8365,0.0,0.0,0.0,0.0,0.0,0.0,0.0,0.0,0.0,0.0,0.0,0.0,0.0,0.0,0.0,0.0,0.0,0.0,0.0,0.0,0.0,0.0,0.0,0.0,0.0,0.0,0.0,0.0,0.0,0.0,0.0,0.0,0.0,0.0,0.0,0.0,0.0,0.0,0.0,0.0,0.0,0.0,0.0,0.0,0.0,0.0,0.0,0.0,0.0,0.0,0.0,0.0,0.0,0.0,0.0,-1.214,-1.3231,-1.406,-1.4674,-1.5018,-1.4716,-1.3804,-1.2863,-1.164,0.0,0.0,0.0,0.0,0.0,0.0,0.0,0.0,0.0,0.0,0.0,0.0,0.0,0.0,0.0,0.0,0.0,0.0,0.0,0.0,0.0,0.0,0.0,0.0,0.0,0.0,0.0,0.0,0.0,0.0,0.0,0.0,0.0,0.0,0.0,0.0,0.0,0.0,0.0,0.0,0.0,-0.7763,-0.8259,-0.8329,0.0,0.0,0.0,0.0,-0.8648,-0.8677,0.0,0.0,0.0,0.0,0.0,0.0,0.0,0.0,0.0,0.0,0.0,0.0,0.0,0.0,0.0,0.0,0.0,0.0,0.0,0.0,0.0,0.0,0.0,0.0,0.0,0.0,0.0,0.0,0.0,0.0,0.0,0.0,0.0,0.0,0.0,0.0,0.0,0.0,0.0,0.0,0.0,0.0,0.0,0.0,0.0,0.0,0.0,0.0,0.0,0.0,0.0,0.0,0.0,0.0,0.0,0.0,-1.2281,-1.3447,-1.4326,-1.495,-1.5252,-1.5124,-1.4514,-1.3337,-1.2052,0.0,0.0,0.0,0.0,0.0,0.0,0.0,0.0,0.0,0.0,0.0,0.0,0.0,0.0,0.0,0.0,0.0,0.0,0.0,0.0,0.0,0.0,0.0,0.0,0.0,0.0,0.0,0.0,0.0,0.0,0.0,0.0,0.0,0.0,0.0,0.0,0.0,0.0,0.0,0.0,0.0,-0.8244,-0.8671,-0.8737,-0.8888,0.0,0.0,-0.9413,-0.9522,-0.9303,0.0,0.0,0.0,0.0,0.0,0.0,0.0,0.0,0.0,0.0,0.0,0.0,0.0,0.0,0.0,0.0,0.0,0.0,0.0,0.0,0.0,0.0,0.0,0.0,0.0,0.0,0.0,0.0,0.0,0.0,0.0,0.0,0.0,0.0,0.0,0.0,0.0,0.0,0.0,0.0,0.0,0.0,0.0,0.0,0.0,0.0,0.0,0.0,0.0,0.0,0.0,0.0,0.0,0.0,0.0,-1.1662,-1.2596,-1.3561,-1.4376,-1.5001,-1.5438,-1.5311,-1.4604,-1.356,-1.238,0.0,0.0,0.0,0.0,0.0,0.0,0.0,0.0,0.0,0.0,0.0,0.0,0.0,0.0,0.0,0.0,0.0,0.0,0.0,0.0,0.0,0.0,0.0,0.0,0.0,0.0,0.0,0.0,0.0,0.0,0.0,0.0,0.0,0.0,0.0,0.0,0.0,0.0,0.0,0.0,0.0,0.0,-0.9247,-0.9308,0.0,0.0,0.0,-0.9635,-0.9686,0.0,0.0,0.0,0.0,0.0,0.0,0.0,0.0,0.0,0.0,0.0,0.0,0.0,0.0,0.0,0.0,0.0,0.0,0.0,0.0,0.0,0.0,0.0,0.0,0.0,0.0,0.0,0.0,0.0,0.0,0.0,0.0,0.0,0.0,0.0,0.0,0.0,0.0,0.0,0.0,0.0,0.0,0.0,0.0,0.0,0.0,0.0,0.0,0.0,0.0,0.0,0.0,0.0,0.0,0.0,0.0,0.0,-1.2777,-1.3668,-1.4376,-1.5001,-1.5524,-1.5451,-1.4694,-1.382,0.0,0.0,0.0,0.0,0.0,0.0,0.0,0.0,0.0,0.0,0.0,0.0,0.0,0.0,0.0,0.0,0.0,0.0,0.0,0.0,0.0,0.0,0.0,0.0,0.0,0.0,0.0,-0.2855,0.0,0.0,0.0,0.0,0.0,0.0,0.0,0.0,0.0,0.0,0.0,0.0,0.0,0.0,-0.921,-0.974,-0.9793,-0.9849,0.0,0.0,-0.993,-0.993,-0.9653,-0.9431,0.0,0.0,0.0,0.0,0.0,0.0,0.0,0.0,0.0,0.0,0.0,0.0,0.0,0.0,0.0,0.0,0.0,0.0,0.0,0.0,0.0,0.0,0.0,0.0,0.0,0.0,0.0,0.0,0.0,0.0,0.0,0.0,0.0,0.0,0.0,0.0,0.0,0.0,0.0,0.0,0.0,0.0,0.0,0.0,0.0,0.0,0.0,0.0,0.0,0.0,0.0,0.0,0.0,0.0,0.0,-1.2777,-1.3634,-1.4376,-1.5001,-1.5531,-1.5551,-1.497,-1.418,-1.3039,0.0,0.0,0.0,0.0,0.0,0.0,0.0,0.0,0.0,0.0,0.0,0.0,0.0,0.0,0.0,0.0,0.0,0.0,0.0,0.0,0.0,0.0,0.0,0.0,0.0,0.0,0.0,0.0,0.0,0.0,0.0,0.0,0.0,0.0,0.0,0.0,0.0,0.0,0.0,0.0,0.0,-0.9389,-1.0007,-1.0087,-1.0187,0.0,0.0,-1.0539,-1.0533,-1.0247,-1.0114,-1.0294,0.0,0.0,0.0,0.0,0.0,0.0,0.0,0.0,0.0,0.0,0.0,0.0,0.0,0.0,0.0,0.0,0.0,0.0,0.0,0.0,0.0,0.0,0.0,0.0,0.0,0.0,0.0,0.0,0.0,0.0,0.0,0.0,0.0,0.0,0.0,0.0,0.0,0.0,0.0,0.0,0.0,0.0,0.0,0.0,0.0,0.0,0.0,0.0,0.0,0.0,0.0,0.0,0.0,-1.2138,-1.3026,-1.3908,-1.4549,-1.5008,-1.5531,-1.5551,-1.5022,-1.4223,-1.3202,0.0,0.0,0.0,0.0,0.0,0.0,0.0,0.0,0.0,0.0,0.0,0.0,0.0,0.0,0.0,0.0,0.0,0.0,0.0,0.0,0.0,0.0,0.0,0.0,0.0,0.0,0.0,0.0,-0.4547,-0.4872,-0.5622,0.0,0.0,0.0,0.0,0.0,0.0,0.0,0.0,0.0,0.0,-0.9903,-1.0334,-1.0481,0.0,0.0,-1.0839,-1.0909,-1.0909,-1.0616,-1.0423,-1.0514,-1.0286,0.0,0.0,0.0,0.0,0.0,0.0,0.0,0.0,0.0,0.0,0.0,0.0,0.0,0.0,0.0,0.0,0.0,0.0,0.0,0.0,0.0,0.0,0.0,0.0,0.0,0.0,0.0,0.0,0.0,0.0,0.0,0.0,0.0,0.0,0.0,0.0,0.0,0.0,0.0,0.0,0.0,0.0,0.0,0.0,0.0,0.0,0.0,0.0,0.0,0.0,0.0,0.0,-1.2311,-1.32,-1.4075,-1.4669,-1.5001,-1.5531,-1.5558,-1.5022,-1.4266,-1.3284,0.0,0.0,0.0,0.0,0.0,0.0,0.0,0.0,0.0,0.0,0.0,0.0,0.0,0.0,0.0,0.0,0.0,0.0,0.0,0.0,0.0,0.0,0.0,0.0,0.0,0.0,0.0,0.0,-0.5223,-0.5556,-0.6086,0.0,0.0,0.0,0.0,0.0,0.0,0.0,0.0,0.0,0.0,-1.0288,-1.0609,-1.0819,-1.0969,-1.1008,-1.1212,-1.1343,-1.1238,-1.101,-1.0835,-1.0836,0.0,0.0,0.0,0.0,0.0,0.0,0.0,0.0,0.0,0.0,0.0,0.0,0.0,0.0,0.0,0.0,0.0,0.0,0.0,0.0,0.0,0.0,0.0,0.0,0.0,0.0,0.0,0.0,0.0,0.0,-0.5183,0.0,0.0,0.0,0.0,0.0,0.0,0.0,0.0,0.0,0.0,0.0,0.0,0.0,0.0,0.0,0.0,0.0,0.0,0.0,0.0,0.0,0.0,-1.2362,-1.3213,-1.4088,-1.4669,-1.5022,-1.5531,-1.5551,-1.5022,-1.4439,-1.3365,-1.1843,0.0,0.0,0.0,0.0,0.0,0.0,0.0,0.0,0.0,0.0,0.0,0.0,0.0,0.0,0.0,0.0,0.0,0.0,0.0,0.0,0.0,0.0,0.0,0.0,0.0,0.0,-0.5382,-0.5978,-0.6456,0.0,0.0,0.0,0.0,0.0,0.0,0.0,0.0,0.0,0.0,-1.0386,-1.0503,-1.0773,-1.1092,-1.1336,-1.1467,-1.1792,-1.1877,-1.1549,-1.15,-1.1427,0.0,0.0,0.0,0.0,0.0,0.0,0.0,0.0,0.0,0.0,0.0,0.0,0.0,0.0,0.0,0.0,0.0,0.0,0.0,0.0,0.0,0.0,0.0,0.0,0.0,0.0,0.0,-0.6172,-0.6055,0.0,0.0,0.0,0.0,0.0,0.0,0.0,0.0,0.0,0.0,0.0,-0.901,-0.9779,0.0,0.0,0.0,0.0,0.0,0.0,0.0,0.0,0.0,0.0,0.0,0.0,-1.2837,-1.35,-1.4376,-1.4957,-1.5251,-1.5625,-1.5551,-1.5022,-1.4583,-1.3337,-1.1217,0.0,0.0,0.0,0.0,0.0,0.0,0.0,0.0,0.0,0.0,0.0,0.0,0.0,0.0,0.0,0.0,0.0,0.0,0.0,0.0,0.0,0.0,0.0,0.0,0.0,-0.5499,0.0,0.0,0.0,0.0,0.0,0.0,0.0,0.0,0.0,0.0,0.0,-1.0189,-1.0479,-1.0748,-1.0954,-1.1221,-1.1483,-1.1723,0.0,0.0,0.0,0.0,0.0,0.0,0.0,0.0,0.0,0.0,0.0,0.0,0.0,0.0,-1.0228,-1.0161,-1.0139,-1.0075,-0.9999,0.0,0.0,0.0,0.0,0.0,0.0,0.0,0.0,0.0,0.0,0.0,0.0,0.0,0.0,-0.7082,0.0,-0.6829,0.0,0.0,0.0,0.0,0.0,0.0,0.0,0.0,-0.8551,-0.922,-0.9878,-1.0684,-1.1338,0.0,-1.2089,-1.2063,0.0,0.0,0.0,0.0,0.0,0.0,0.0,0.0,-1.3132,-1.3753,-1.4569,-1.5149,-1.5391,-1.5678,-1.5558,-1.5022,-1.4147,-1.2902,-1.121,-1.0076,-0.8926,0.0,0.0,0.0,0.0,0.0,0.0,0.0,0.0,0.0,0.0,0.0,0.0,0.0,0.0,0.0,0.0,0.0,0.0,0.0,0.0,0.0,0.0,0.0,-0.6165,0.0,0.0,0.0,0.0,0.0,0.0,0.0,0.0,0.0,-0.9832,-1.0324,-1.0739,-1.0998,-1.1319,-1.1556,-1.1647,0.0,0.0,0.0,0.0,0.0,0.0,0.0,-1.2623,-1.2507,-1.2526,-1.2526,-1.2526,-1.2175,-1.1929,-1.1889,0.0,0.0,-1.0653,-1.058,-1.058,-1.058,-1.058,-1.055,-1.0309,-1.0265,-1.0214,0.0,0.0,0.0,0.0,0.0,0.0,0.0,0.0,-0.7963,-0.7943,0.0,-0.782,0.0,0.0,0.0,0.0,0.0,-0.7751,0.0,0.0,-0.9309,-1.0083,-1.0756,-1.1604,-1.2231,-1.2695,-1.2638,-1.288,-1.322,-1.2386,0.0,0.0,0.0,0.0,0.0,0.0,-1.3259,-1.4088,-1.4727,-1.5169,-1.5411,-1.5685,-1.5558,-1.5008,-1.3228,-1.212,-1.1787,-1.0248,-0.9277,-0.9107,-0.7913,0.0,0.0,0.0,0.0,0.0,0.0,0.0,0.0,0.0,0.0,0.0,0.0,0.0,0.0,0.0,0.0,0.0,0.0,0.0,0.0,-0.6437,0.0,0.0,0.0,0.0,0.0,0.0,0.0,0.0,0.0,0.0,-1.0565,-1.0884,-1.128,-1.1747,0.0,0.0,0.0,0.0,-1.2763,-1.2692,-1.3136,-1.3382,-1.3067,-1.3023,-1.2914,-1.2614,0.0,0.0,-1.2521,-1.2507,-1.2485,-1.2492,-1.2207,-1.1719,-1.0828,-1.0667,-1.0646,-1.0646,-1.066,-1.0624,-1.0638,-1.0602,-1.0623,-0.8954,0.0,0.0,0.0,0.0,-0.8442,-0.8515,-0.8519,-0.8568,-0.8564,-0.8511,-0.839,0.0,0.0,0.0,0.0,0.0,0.0,-0.8807,-0.9301,-0.9822,-1.0428,-1.1121,-1.1946,-1.2536,-1.2982,-1.3381,-1.3555,-1.3643,-1.3337,-1.2916,-1.2415,0.0,0.0,0.0,0.0,-1.3935,-1.4402,-1.497,-1.5411,-1.5651,-1.5738,-1.5551,-1.5022,-1.3558,-1.2547,-1.2101,-1.1248,-1.0309,-0.9309,-0.8663,0.0,0.0,0.0,0.0,0.0,0.0,0.0,0.0,0.0,0.0,0.0,0.0,0.0,0.0,0.0,0.0,0.0,0.0,0.0,-0.7044,-0.7293,-0.7485,0.0,0.0,0.0,0.0,0.0,0.0,0.0,0.0,0.0,-1.0996,-1.1228,-1.1598,0.0,0.0,-1.247,-1.2486,-1.2628,-1.2763,-1.2833,-1.3106,0.0,-1.315,-1.3244,-1.3323,-1.3228,-1.3214,-1.3214,-1.3221,-1.3023,-1.287,-1.287,-1.2572,-1.2178,-1.1704,-1.1428,-1.1327,-1.1313,-1.1313,-1.1232,-1.1026,-1.096,-1.0902,-1.0012,-0.9384,-0.9151,-0.8986,-0.9003,-0.9169,-0.9242,-0.9246,-0.9324,-0.9271,-0.9137,-0.9031,-0.8913,-0.8816,-0.8658,0.0,0.0,0.0,-0.9242,-0.9813,-1.0166,-1.0782,-1.1571,-1.2234,-1.275,-1.3123,-1.3442,-1.3671,-1.3822,-1.3686,-1.3602,-1.3491,0.0,0.0,-1.3326,-1.3814,-1.4342,-1.4856,-1.5211,-1.5538,-1.5771,-1.5605,-1.5271,-1.4822,-1.3636,-1.2768,-1.2245,-1.169,-1.0905,-0.9853,-0.936,-0.8692,0.0,0.0,0.0,0.0,0.0,0.0,0.0,0.0,0.0,0.0,0.0,-0.5381,-0.5527,0.0,0.0,0.0,-0.6834,-0.724,-0.76,-0.7873,0.0,0.0,0.0,0.0,0.0,0.0,0.0,-1.0305,-1.068,-1.1108,-1.1526,-1.1716,-1.1948,-1.2412,-1.2576,-1.2656,-1.267,0.0,-1.2798,-1.2872,-1.3083,-1.3229,-1.3309,-1.3419,-1.3492,-1.3492,-1.3492,-1.3492,-1.3484,-1.3323,-1.3206,-1.3162,-1.2936,-1.265,-1.2426,-1.216,-1.187,-1.165,-1.1591,-1.1518,-1.1327,-1.1298,-1.1239,-1.0891,-1.068,-0.9979,-0.9734,-0.9655,-0.9847,-0.99,-0.9971,-1.0135,-0.9977,-0.9677,-0.9669,-0.9474,-0.9141,-0.9141,0.0,-0.912,-0.9133,-0.9506,-1.0136,-1.0423,-1.1048,-1.197,-1.2511,-1.2905,-1.3044,-1.3098,-1.3414,-1.3877,-1.367,-1.3907,-1.4546,-1.3728,-1.358,-1.4128,-1.4182,-1.4589,-1.5378,-1.5418,-1.5565,-1.5764,-1.5264,-1.4822,-1.4584,-1.3544,-1.2729,-1.2286,-1.1732,-1.118,-1.0628,-1.0003,-0.9334,-0.8512,0.0,0.0,0.0,0.0,0.0,0.0,0.0,0.0,0.0,0.0,0.0,0.0,0.0,0.0,0.0,-0.7457,0.0,-0.785,-0.8358,0.0,0.0,0.0,-0.9753,-0.9782,-1.0305,-1.066,-1.066,0.0,0.0,-1.212,-1.2211,-1.2267,-1.2394,-1.2703,-1.2826,-1.2636,-1.2739,-1.2856,-1.2826,-1.3017,-1.3229,-1.3382,-1.3463,-1.3492,-1.3492,-1.3492,-1.3492,-1.3492,-1.3492,-1.3484,-1.347,-1.3243,-1.3023,-1.3009,-1.2723,-1.2372,-1.1804,-1.1665,-1.1635,-1.1577,-1.1562,-1.1555,-1.1135,-1.1082,-1.0855,-1.0556,-1.0185,-1.0136,-1.0147,-1.0151,-1.0144,-1.0167,-1.0034,-1.0086,-0.9839,-0.9502,-0.9502,-0.9425,-0.9347,-0.9441,-0.9767,-1.0342,-1.0582,-1.1049,-1.1736,-1.2467,-1.2813,-1.2905,-1.3236,-1.3592,-1.3873,-1.3848,-1.4093,-1.4582,-1.4384,-1.4434,-1.48,-1.4977,-1.5184,-1.5398,-1.5611,-1.5711,-1.5764,-1.5074,-1.4591,-1.4353,-1.3162,-1.2361,-1.2012,-1.1807,-1.1347,-1.0647,-1.0455,-0.9989,-0.9179,-0.8272,0.0,0.0,0.0,0.0,0.0,0.0,0.0,0.0,0.0,-0.677,-0.69,0.0,-0.7446,0.0,-0.8109,-0.8705,-0.9163,-0.9357,0.0,0.0,-1.003,-1.0378,-1.0385,-1.0868,-1.1223,-1.1216,-1.1543,-1.1826,-1.197,-1.2166,-1.2395,-1.2648,-1.2813,-1.2826,-1.2636,-1.2636,-1.2599,-1.2539,-1.2774,-1.2973,-1.3097,-1.3309,-1.3499,-1.3492,-1.3492,-1.3492,-1.3492,-1.3492,-1.3492,-1.3492,-1.3448,-1.3287,-1.306,-1.2936,-1.2753,-1.238,-1.2094,-1.1845,-1.165,-1.1599,-1.1591,-1.1468,-1.1459,-1.1378,-1.1175,-1.0891,-1.0635,-1.0521,-1.0567,-1.0432,-1.0355,-1.0278,-1.0197,-1.0054,-0.9868,-0.9868,-0.9811,-0.9771,-0.9734,-0.9946,-1.0341,-1.0551,-1.09,-1.1438,-1.2127,-1.2521,-1.2613,-1.3007,-1.3394,-1.3727,-1.3731,-1.4087,-1.4801,-1.4828,-1.5028,-1.5351,-1.5378,-1.5458,-1.5591,-1.5644,-1.5689,-1.5622,-1.4793,-1.4179,-1.3993,-1.282,-1.2069,-1.1772,-1.1706,-1.1347,-1.0653,-1.0672,-1.0378,-0.9573,-0.8918,-0.8542,0.0,0.0,0.0,0.0,0.0,0.0,0.0,0.0,0.0,0.0,0.0,-0.8189,-0.8541,-0.8951,-0.9332,-0.9682,-0.995,-1.0104,-1.011,-1.0595,-1.0942,-1.0942,-1.1349,-1.1623,-1.163,-1.1877,-1.2147,-1.2281,-1.2435,-1.2643,-1.2951,-1.3004,-1.2978,-1.2896,-1.2864,-1.2858,-1.2851,-1.3003,-1.3174,-1.3205,-1.3489,-1.366,-1.3521,-1.3492,-1.3492,-1.3492,-1.3492,-1.3492,-1.3492,-1.3492,-1.3448,-1.3258,-1.3221,-1.3119,-1.2819,-1.2565,-1.2306,-1.1867,-1.1772,-1.1743,-1.1837,-1.176,-1.1606,-1.1533,-1.1512,-1.1175,-1.1082,-1.0988,-1.081,-1.0631,-1.0403,-1.0274,-1.0197,-1.0197,-1.0172,-1.0212,-1.0204,-0.9994,-1.0065,-1.0298,-1.0382,-1.0681,-1.1149,-1.1683,-1.2078,-1.237,-1.2613,-1.3007,-1.3497,-1.3497,-1.4022,-1.5029,-1.5035,-1.5267,-1.5676,-1.5491,-1.5531,-1.5818,-1.5594,-1.5499,-1.5486,-1.4425,-1.3773,-1.3535,-1.2454,-1.1747,-1.1525,-1.1441,-1.1179,-1.068,-1.0802,-1.0603,-0.9885,-0.9556,-0.9295,0.0,-0.8546,0.0,0.0,0.0,0.0,0.0,0.0,0.0,0.0,-0.8593,-0.9022,-0.9686,-0.9773,-0.9842,-0.9876,-1.0378,-1.07,-1.0713,-1.1156,-1.1449,-1.1496,-1.1744,-1.198,-1.2007,-1.2204,-1.2509,-1.2784,-1.2844,-1.2958,-1.3206,-1.3253,-1.3306,-1.3307,-1.3233,-1.3239,-1.3423,-1.3495,-1.3468,-1.3613,-1.38,-1.3835,-1.3623,-1.3521,-1.3492,-1.3492,-1.3492,-1.3492,-1.3492,-1.3492,-1.3484,-1.3492,-1.3477,-1.3397,-1.3126,-1.3053,-1.2819,-1.2171,-1.1974,-1.1894,-1.1837,-1.1837,-1.174,-1.1723,-1.1707,-1.1492,-1.1313,-1.1163,-1.0992,-1.0814,-1.0631,-1.0456,-1.0334,-1.0371,-1.0225,-1.0212,-1.0212,-1.018,-1.0189,-1.0306,-1.0525,-1.0716,-1.0909,-1.1443,-1.1829,-1.2078,-1.237,-1.2813,-1.3497,-1.3497,-1.3925,-1.4742,-1.479,-1.4933,-1.522,0.0,0.0,0.0,-1.5594,-1.5499,-1.548,-1.4299,-1.3519,-1.3269,-1.1897,0.0,-1.1025,-1.0948,-1.0879,-1.07,-1.0931,0.0,0.0,0.0,0.0,0.0,0.0,0.0,0.0,0.0,0.0,0.0,-0.9361,-0.9266,-0.9262,-0.94,-0.963,-1.0,-1.0285,-1.0526,-1.076,-1.1049,-1.1263,-1.1276,-1.157,-1.1819,-1.1832,-1.2044,-1.2305,-1.2589,-1.2663,-1.2824,-1.3066,-1.3126,-1.3233,-1.3467,-1.352,-1.362,-1.3874,-1.3514,-1.3233,-1.3246,-1.3431,-1.366,-1.3942,-1.3806,-1.3815,-1.3827,-1.3653,-1.3521,-1.3492,-1.3492,-1.3492,-1.3492,-1.3492,-1.3492,-1.3492,-1.3492,-1.3477,-1.3404,-1.3397,-1.3126,-1.22,-1.2003,-1.1941,-1.1837,-1.1837,-1.1837,-1.1837,0.0,-1.1675,-1.1581,-1.148,-1.1212,-1.0997,-1.0818,-1.0639,-1.0562,-1.0554,-1.0465,-1.0424,-1.0469,-1.0339,-1.0302,-1.0364,-1.0442,-1.0604,-1.0753,-1.1196,-1.1536,-1.1829,-1.2224,-1.2662,-1.3152,-1.3249,-1.363,-1.4298,-1.4292,-1.4496,-1.4885,-1.5035,-1.5226,-1.5458,-1.5213,-1.5112,-1.5045,-1.3976,-1.3338,-1.3172,-1.1844,0.0,0.0,0.0,0.0,0.0,0.0,0.0,0.0,0.0,0.0,-1.0587,-1.0323,-1.0204,-1.0338,-1.006,-1.002,-1.0314,-1.0461,-1.039,-1.0086,-1.035,-1.0608,-1.0755,-1.0909,-1.1049,-1.1196,-1.147,-1.1643,-1.1657,-1.1904,-1.2084,-1.2147,-1.2345,-1.261,-1.2764,-1.2918,-1.3086,-1.3347,-1.3387,-1.3507,-1.3808,-1.3861,-1.3915,-1.4035,-1.3841,-1.3647,-1.3641,-1.3831,-1.3933,-1.3996,-1.4101,-1.3987,-1.3858,-1.3761,-1.3682,-1.3521,-1.3492,-1.3492,-1.3492,-1.3492,-1.3492,-1.3492,-1.3492,-1.3492,-1.3492,-1.3492,-1.3301,-1.2609,-1.2361,-1.2149,-1.176,-1.1756,-1.1788,-1.1837,-1.1837,-1.1837,-1.1837,-1.1752,0.0,0.0,0.0,-1.0822,-1.0745,-1.0741,-1.0708,-1.0692,-1.068,-1.0546,-1.0407,-1.0424,-1.0391,-1.0489,-1.07,-1.1056,-1.13,-1.1595,-1.2044,-1.2419,-1.271,-1.2905,-1.319,-1.3667,-1.3757,-1.401,-1.4448,-1.4694,-1.4838,-1.4844,-1.4742,-1.4688,-1.4675,-1.3692,-1.3156,-1.315,-1.1957,-1.1263,-1.1231,-1.0835,-1.0565,-1.0454,-1.0586,-1.0694,-1.0627,-1.0905,-1.108,-1.1095,-1.0844,-1.0789,-1.1042,-1.0621,-1.0555,-1.1035,-1.1343,-1.1283,-1.078,-1.1149,-1.143,-1.143,-1.1476,-1.1469,-1.1469,-1.177,-1.198,-1.1951,-1.2204,-1.2378,-1.2435,-1.2683,-1.2891,-1.2958,-1.314,-1.34,-1.364,-1.368,-1.376,-1.4021,-1.4062,-1.4088,-1.4088,-1.4062,-1.4035,-1.407,-1.4156,-1.4254,-1.4111,-1.4171,-1.4283,-1.3927,-1.388,-1.3842,-1.366,-1.3536,-1.3492,-1.3492,-1.3492,-1.3492,-1.3492,-1.3492,-1.3492,-1.3492,-1.3484,-1.3418,-1.3148,-1.2833,-1.2456,-1.1564,-1.1552,-1.172,-1.1837,-1.1837,-1.1837,-1.1837,-1.176,-1.1553,-1.1358,-1.1175,-1.1005,-1.0988,-1.0923,-1.0761,-1.0692,-1.0692,-1.0668,-1.0574,-1.0436,-1.065,-1.0695,-1.0634,-1.0959,-1.1276,-1.1508,-1.1629,-1.198,-1.2419,-1.2473,-1.2662,-1.2953,-1.3098,-1.3389,-1.363,-1.3684,-1.3732,-1.3732,-1.4352,-1.4688,-1.4675,-1.3698,-1.3104,-1.2842,-1.1834,-1.1222,-1.1053,-1.0765,-1.0573,-1.0573,-1.064,-1.0701,-1.07,-1.081,-1.0942,-1.108,-1.1077,-1.1119,-1.1329,-1.1249,-1.1235,-1.1369,-1.1643,-1.1698,-1.1309,-1.1342,-1.143,-1.1402,-1.1663,-1.1846,-1.1824,-1.2078,-1.2245,-1.2258,-1.2543,-1.2723,-1.273,-1.2959,-1.3227,-1.34,-1.3507,-1.3646,-1.3935,-1.4001,-1.4015,-1.4075,-1.4088,-1.4088,-1.4088,-1.4088,-1.4088,-1.4088,-1.4124,-1.4188,-1.4219,-1.4118,-1.415,-1.4429,-1.3977,-1.3784,-1.3857,-1.3682,-1.3528,-1.3492,-1.3492,-1.3492,-1.3492,-1.3492,-1.3492,-1.3492,-1.3492,-1.3462,-1.3382,-1.3133,-1.2738,-1.1308,-1.1282,-1.1513,-1.161,-1.1522,-1.1712,-1.1837,-1.1768,-1.1687,-1.1545,-1.1362,-1.1187,-1.1053,-1.0968,-1.0935,-1.0785,-1.0692,-1.0692,-1.0651,-1.057,-1.0584,-1.0601,-1.0716,-1.0798,-1.0915,-1.1111,-1.142,-1.1608,-1.1746,-1.2029,-1.2224,-1.237,-1.2613,-1.2759,-1.2905,-1.305,-1.3098,-1.3152,-1.3727,-1.407,-1.4016,-1.345,-1.3009,-1.278,-1.1993,-1.1326,-1.0993,-1.0737,-1.0611,-1.0601,-1.0605,-1.0747,-1.0966,-1.0973,-1.1037,-1.1247,-1.1327,-1.1425,-1.1488,-1.1593,-1.167,-1.167,-1.1937,-1.2051,-1.1911,-1.1904,-1.1862,-1.1904,-1.2031,-1.2104,-1.2111,-1.2371,-1.2576,-1.2583,-1.2851,-1.3032,-1.3033,-1.3267,-1.3453,-1.3593,-1.3746,-1.3935,-1.4068,-1.4088,-1.4088,-1.4088,-1.4088,-1.4088,-1.4088,-1.4088,-1.4088,-1.4088,-1.4088,-1.4124,-1.4195,-1.4226,-1.4193,-1.4246,-1.4182,-1.4052,-1.3894,-1.3709,-1.3697,-1.3528,-1.3492,-1.3492,-1.3492,-1.3492,-1.3492,-1.3492,-1.3492,-1.3492,-1.3455,-1.3236,-1.2755,-1.108,-1.1022,-1.1255,-1.131,-1.1216,-1.1466,-1.1591,-1.1591,-1.1587,-1.1511,-1.1367,-1.1304,-1.1212,-1.109,-1.1065,-1.0891,-1.0761,-1.0712,-1.0692,-1.0676,-1.0554,-1.0597,-1.0741,-1.0676,-1.0672,-1.0736,-1.1162,-1.1234,-1.1131,-1.1462,-1.1736,-1.1834,-1.2024,-1.2175,-1.2322,-1.2516,-1.2619,-1.2619,-1.3007,-1.3249,-1.334,-1.3093,-1.2845,-1.2512,-1.1952,-1.1406,-1.0969,-1.0674,-1.0523,-1.0555,-1.0572,-1.0718,-1.1065,-1.1145,-1.1298,-1.1501,-1.1657,-1.1799,-1.1879,-1.2098,-1.2208,-1.2214,-1.2378,-1.2512,-1.2512,-1.2512,-1.2478,-1.2425,-1.2465,-1.2518,-1.2545,-1.2712,-1.2884,-1.2904,-1.3126,-1.33,-1.3333,-1.3527,-1.3706,-1.3768,-1.3955,-1.4082,-1.4088,-1.4088,-1.4088,-1.4088,-1.4088,-1.4088,-1.4088,-1.4088,-1.4088,-1.4088,-1.4088,-1.4088,-1.4088,-1.4195,-1.4219,-1.4049,-1.4273,-1.4219,-1.3937,-1.3927,-1.385,-1.3579,-1.3492,-1.3492,-1.3492,-1.3492,-1.3492,-1.3492,-1.3492,-1.3492,-1.3477,-1.3228,-1.2813,-1.0977,-1.0984,-1.1044,-1.0942,-1.0861,-1.0914,-1.0914,-1.0914,-1.091,-1.0906,-1.0921,-1.1316,-1.1464,-1.1407,-1.1118,-1.0968,-1.0923,-1.0769,-1.0696,-1.0692,-1.0676,-1.0668,-1.0698,-1.0758,-1.0769,-1.0811,-1.0789,-1.0822,-1.0759,-1.064,-1.0801,-1.1247,-1.1292,-1.1536,-1.1975,-1.2029,-1.2078,-1.2078,-1.2127,-1.237,-1.2802,-1.2586,-1.2244,-1.1819,-1.1507,-1.1134,-1.075,-1.0461,-1.0349,-1.0355,-1.0484,-1.0606,-1.0721,-1.1215,-1.1643,-1.1836,-1.2043,-1.2332,-1.2713,-1.2962,-1.3053,-1.3093,-1.3066,-1.3093,-1.3093,-1.3113,-1.2999,-1.2864,-1.2966,-1.3073,-1.3126,-1.3146,-1.3166,-1.318,-1.3393,-1.356,-1.36,-1.3861,-1.4048,-1.4048,-1.4062,-1.4088,-1.4088,-1.4088,-1.4088,-1.4088,-1.4088,-1.4088,-1.4088,-1.4088,-1.4088,-1.4088,-1.4088,-1.4088,-1.4088,-1.4088,-1.4174,-1.4281,-1.433,-1.4254,-1.4102,-1.3981,-1.3887,-1.3675,-1.3492,-1.3499,-1.3492,-1.3492,-1.3492,-1.3492,-1.3492,-1.3492,-1.3455,-1.3258,-1.2906,-1.0768,-1.0743,-1.0938,-1.0988,-1.088,-1.0834,-1.0793,-1.0793,-1.0793,-1.0793,-1.0842,-1.1019,-1.0998,-1.0902,-1.0759,-1.0716,-1.0687,-1.0607,-1.0623,-1.07,-1.0692,-1.0692,-1.0739,-1.0732,-1.07,-1.0597,-1.0704,-1.0625,-1.0458,-1.041,-1.0507,-1.0708,-1.0752,-1.0855,-1.1047,-1.1047,-1.1051,-1.1051,-1.1051,-1.1149,-1.1433,-1.1895,-1.1982,-1.1656,-1.1293,-1.098,-1.0676,-1.0409,-1.0295,-1.0328,-1.0386,-1.0548,-1.0749,-1.0911,-1.1197,-1.1686,-1.2,-1.2406,-1.2896,-1.2975,-1.3088,-1.3206,-1.3206,-1.3206,-1.322,-1.3367,-1.3367,-1.3307,-1.324,-1.3206,-1.3233,-1.332,-1.3427,-1.346,-1.3728,-1.3901,-1.3915,-1.4008,-1.4088,-1.4088,-1.4088,-1.4088,-1.4088,-1.4088,-1.4088,-1.4088,-1.4088,-1.4088,-1.4088,-1.4088,-1.4088,-1.4088,-1.4088,-1.4088,-1.4088,-1.4088,-1.4124,-1.423,-1.4309,-1.4316,-1.4212,-1.4113,-1.4004,-1.3828,-1.3645,-1.3528,-1.3492,-1.3492,-1.3492,-1.3492,-1.3492,-1.3492,-1.3492,-1.3389,-1.317,-1.0656,-1.0616,-1.0729,-1.0792,-1.0721,-1.0555,-1.0547,-1.0547,-1.0543,-1.0486,-1.0547,-1.0547,-1.0485,-1.0323,-1.0454,-1.0475,-1.0494,-1.039,-1.0395,-1.0493,-1.05,-1.0531,-1.0582,-1.0582,-1.0577,-1.0513,-1.0613,-1.0508,-1.0217,-1.0162,-1.0216,-1.0265,-1.0265,-1.031,-1.0413,-1.0413,-1.0413,-1.0413,-1.0413,-1.0413,-1.0511,-1.1149,-1.1439,-1.1187,-1.0886,-1.0634,-1.0412,-1.0249,-1.0183,-1.0207,-1.0276,-1.0446,-1.0816,-1.0788,-1.1114,-1.1729,-1.2137,-1.255,-1.3003,-1.3084,-1.3205,-1.3407,-1.3447,-1.3447,-1.3487,-1.3647,-1.3713,-1.3706,-1.3567,-1.3467,-1.3474,-1.36,-1.3713,-1.374,-1.3975,-1.4082,-1.4082,-1.4088,-1.4088,-1.4088,-1.4088,-1.4088,-1.4088,-1.4088,-1.4088,-1.4088,-1.4088,-1.4088,-1.4088,-1.4088,-1.4088,-1.4088,-1.4088,-1.4088,-1.4088,-1.4088,-1.4088,-1.4166,-1.4258,-1.4351,-1.4274,-1.4156,-1.4027,-1.3852,-1.3695,-1.3579,-1.3506,-1.3492,-1.3492,-1.3492,-1.3492,-1.3492,-1.3492,-1.3484,-1.3345,-1.0717,-1.067,-1.0409,-1.0275,-1.0042,-0.9951,-0.9883,-0.994,-0.9879,-0.9883,-0.9883,-0.9879,-0.9876,-0.9855,-1.0271,-1.0487,-1.0421,-1.0154,-1.007,-1.0081,-0.9939,-1.0036,-1.0308,-1.0308,-1.0414,-1.0593,-1.0467,-1.0266,-0.9959,-0.9771,-0.9776,-1.0019,-1.0019,-1.0167,-1.0314,-1.0364,-1.0364,-1.0314,-1.0364,-1.0364,-1.0364,-1.0462,-1.0422,-1.0258,-1.0171,-1.0122,-0.9985,-0.9953,-0.9946,-1.0004,-1.0149,-1.0399,-1.0702,-1.1031,-1.1562,-1.2219,-1.2517,-1.2863,-1.3286,-1.3477,-1.3701,-1.3973,-1.3981,-1.4021,-1.3961,-1.4001,-1.4021,-1.4055,-1.4001,-1.3981,-1.3981,-1.3981,-1.4028,-1.4035,-1.4062,-1.4088,-1.4088,-1.4088,-1.4088,-1.4088,-1.4088,-1.4088,-1.4088,-1.4088,-1.4088,-1.4088,-1.4088,-1.4088,-1.4088,-1.4088,-1.4088,-1.4088,-1.4088,-1.4088,-1.4088,-1.4088,-1.4088,-1.4124,-1.4216,-1.4316,-1.4241,-1.4168,-1.4037,-1.394,-1.3883,-1.3792,-1.3579,-1.3492,-1.3492,-1.3492,-1.3492,-1.3492,-1.3492,-1.3492,-1.3389,-1.0721,-1.07,-1.05,-1.0331,-1.0185,-1.0032,-0.9852,-0.9822,-0.9819,-0.9819,-0.9819,-0.9819,-0.9819,-0.9819,-0.9949,-1.0109,-1.0181,-0.9968,-0.9938,-0.9942,-0.9839,-0.9871,-0.9981,-0.9981,-1.0033,-1.0135,-1.0249,-1.0255,-1.0079,-0.988,-0.9784,-0.9739,-0.9723,-0.9776,-0.9871,-0.9875,-0.9871,-0.9871,-0.9875,-0.9871,-0.992,-0.9875,-0.9838,-0.9779,-1.0,-1.007,-1.0023,-0.9784,-0.9746,-0.9941,-0.9895,-1.0033,-1.0424,-1.0982,-1.1548,-1.2075,-1.2363,-1.2705,-1.3137,-1.3398,-1.361,-1.3822,-1.4004,-1.4088,-1.4088,-1.4088,-1.4088,-1.4088,-1.4088,-1.4088,-1.4088,-1.4088,-1.4088,-1.4088,-1.4088,-1.4088,-1.4088,-1.4088,-1.4088,-1.4088,-1.4088,-1.4088,-1.4088,-1.4088,-1.4088,-1.4088,-1.4088,-1.4088,-1.4088,-1.4088,-1.4088,-1.4088,-1.4088,-1.4088,-1.4088,-1.4088,-1.4088,-1.413,-1.4153,-1.4252,-1.4248,-1.4261,-1.4163,-1.4031,-1.4055,-1.3849,-1.3638,-1.3492,-1.3492,-1.3492,-1.3492,-1.3492,-1.3492,-1.3492,-1.344,-1.0721,-1.0694,-1.0555,-1.0409,-1.0266,-1.0114,-0.9899,-0.9829,-0.9819,-0.9819,-0.9819,-0.9819,-0.9819,-0.9819,-0.9819,-0.9832,-0.9902,-0.9814,-0.9776,-0.9795,-0.9693,-0.9643,-0.9658,-0.9655,-0.9702,-0.9805,-0.9972,-1.0042,-0.9978,-0.9848,-0.968,-0.9572,-0.9561,-0.9624,-0.9624,-0.9624,-0.9624,-0.9624,-0.9624,-0.9624,-0.9624,-0.9624,-0.9624,-0.9612,-0.9803,-0.9948,-0.9984,-0.9732,-0.962,-0.9737,-0.9736,-0.989,-1.0309,-1.0857,-1.1381,-1.1731,-1.2075,-1.2454,-1.2924,-1.3264,-1.3476,-1.3695,-1.3913,-1.4088,-1.4088,-1.4088,-1.4088,-1.4088,-1.4088,-1.4088,-1.4088,-1.4088,-1.4088,-1.4088,-1.4088,-1.4088,-1.4088,-1.4088,-1.4088,-1.4088,-1.4088,-1.4088,-1.4088,-1.4088,-1.4088,-1.4088,-1.4088,-1.4088,-1.4088,-1.4088,-1.4088,-1.4088,-1.4088,-1.4088,-1.4088,-1.4088,-1.4088,-1.413,-1.413,-1.4201,-1.4245,-1.431,-1.4259,-1.4172,-1.404,-1.3847,-1.3674,-1.3543,-1.3492,-1.3492,-1.3492,-1.3492,-1.3492,-1.3492,-1.3448,-1.0721,-1.07,-1.0561,-1.0426,-1.0287,-1.0137,-0.9913,-0.9852,-0.9825,-0.9819,-0.9819,-0.9819,-0.9819,-0.9819,-0.9819,-0.9815,-0.9778,-0.9722,-0.9576,-0.947,-0.9319,-0.9339,-0.9386,-0.9379,-0.9544,-0.9754,-0.9602,-0.9524,-0.9579,-0.9561,-0.9493,-0.9497,-0.9552,-0.9579,-0.9624,-0.9624,-0.9624,-0.9624,-0.9624,-0.9624,-0.9624,-0.9624,-0.9624,-0.9624,-0.9661,-0.9677,-0.9704,-0.9667,-0.9639,-0.959,-0.9737,-0.9986,-1.0285,-1.0738,-1.1084,-1.1375,-1.1768,-1.2203,-1.2668,-1.3137,-1.3434,-1.3652,-1.3913,-1.4039,-1.4088,-1.4088,-1.4088,-1.4088,-1.4088,-1.4088,-1.4088,-1.4088,-1.4088,-1.4088,-1.4088,-1.4088,-1.4088,-1.4088,-1.4088,-1.4088,-1.4088,-1.4088,-1.4088,-1.4088,-1.4088,-1.4088,-1.4088,-1.4088,-1.4088,-1.4088,-1.4088,-1.4088,-1.4088,-1.4088,-1.4088,-1.4088,-1.4088,-1.4088,-1.4088,-1.4124,-1.4201,-1.4247,-1.4255,-1.4154,-1.4002,-1.3813,-1.3762,-1.3601,-1.3499,-1.3492,-1.3492,-1.3492,-1.3492,-1.3492,-1.3492,-1.0721,-1.0714,-1.067,-1.0561,-1.0415,-1.027,-1.012,-0.9968,-0.9808,-0.9822,-0.9819,-0.9819,-0.9819,-0.9819,-0.9819,-0.9819,-0.9815,-0.9764,-0.9625,-0.9395,-0.9282,-0.9139,-0.9075,-0.9047,-0.9213,-0.9482,-0.9439,-0.9457,-0.9437,-0.9403,-0.9404,-0.9474,-0.9368,-0.9434,-0.9579,-0.9624,-0.9624,-0.9624,-0.9624,-0.9624,-0.9624,-0.9624,-0.9624,-0.9624,-0.9624,-0.9596,-0.9588,-0.9518,-0.9538,-0.9601,-0.95,-0.9634,-1.0086,-1.0516,-1.0949,-1.1284,-1.1731,-1.2123,-1.2454,-1.2924,-1.3264,-1.3483,-1.3701,-1.3906,-1.4082,-1.4088,-1.4088,-1.4088,-1.4088,-1.4088,-1.4088,-1.4088,-1.4088,-1.4088,-1.4088,-1.4088,-1.4088,-1.4088,-1.4088,-1.4088,-1.4088,-1.4088,-1.4088,-1.4088,-1.4088,-1.4088,-1.4088,-1.4088,-1.4088,-1.4088,-1.4088,-1.4088,-1.4088,-1.4088,-1.4088,-1.4088,-1.4088,-1.4088,-1.4088,-1.4088,-1.4166,-1.4181,-1.4199,-1.4158,-1.3973,-1.3858,-1.3767,-1.3697,-1.3601,-1.3499,-1.3492,-1.3492,-1.3492,-1.3492,-1.3492,-1.0721,-1.0721,-1.0721,-1.0633,-1.048,-1.0341,-1.0192,-0.9974,-0.9825,-0.9822,-0.9819,-0.9819,-0.9819,-0.9819,-0.9819,-0.9819,-0.9819,-0.9819,-0.9693,-0.9473,-0.9367,-0.9217,-0.9025,-0.8902,-0.8995,-0.9158,-0.9213,-0.9219,-0.9273,-0.9229,-0.9231,-0.9223,-0.921,-0.9241,-0.9442,-0.943,-0.948,-0.9579,-0.9624,-0.9624,-0.9624,-0.9624,-0.9624,-0.9624,-0.9624,-0.9624,-0.9571,-0.9514,-0.9522,-0.9563,-0.9486,-0.961,-0.9965,-1.0421,-1.0776,-1.1089,-1.1467,-1.1854,-1.2246,-1.2668,-1.3052,-1.327,-1.3568,-1.3779,-1.3955,-1.4039,-1.4088,-1.4088,-1.4088,-1.4088,-1.4088,-1.4088,-1.4088,-1.4088,-1.4088,-1.4088,-1.4088,-1.4088,-1.4088,-1.4088,-1.4088,-1.4088,-1.4088,-1.4088,-1.4088,-1.4088,-1.4088,-1.4088,-1.4088,-1.4088,-1.4088,-1.4088,-1.4088,-1.4088,-1.4088,-1.4088,-1.4088,-1.4088,-1.4088,-1.4088,-1.4124,-1.4159,-1.4191,-1.4152,-1.4027,-1.3921,-1.3872,-1.3827,-1.3733,-1.3631,-1.3521,-1.3492,-1.3492,-1.3492,-1.3492,-1.0721,-1.0721,-1.0721,-1.0643,-1.05,-1.0348,-1.0205,-1.0059,-0.989,-0.9819,-0.9819,-0.9819,-0.9819,-0.9819,-0.9819,-0.9819,-0.9819,-0.9819,-0.9758,-0.9605,-0.9442,-0.9269,-0.91,-0.8984,-0.894,-0.894,-0.8937,-0.8933,-0.8958,-0.9028,-0.9005,-0.8943,-0.9035,-0.9094,-0.9168,-0.9187,-0.9282,-0.943,-0.9525,-0.9525,-0.9529,-0.9579,-0.9579,-0.9628,-0.9624,-0.9624,-0.962,-0.9604,-0.9527,-0.9456,-0.9609,-0.9763,-0.9972,-1.0327,-1.0603,-1.0784,-1.1089,-1.151,-1.1995,-1.2418,-1.279,-1.3052,-1.3398,-1.3688,-1.3737,-1.3913,-1.4046,-1.4088,-1.4088,-1.4088,-1.4088,-1.4088,-1.4088,-1.4088,-1.4088,-1.4088,-1.4088,-1.4088,-1.4088,-1.4088,-1.4088,-1.4088,-1.4088,-1.4088,-1.4088,-1.4088,-1.4088,-1.4088,-1.4088,-1.4088,-1.4088,-1.4088,-1.4088,-1.4088,-1.4088,-1.4088,-1.4088,-1.4088,-1.4088,-1.4088,-1.4088,-1.4117,-1.4188,-1.4145,-1.4108,-1.404,-1.398,-1.3947,-1.3842,-1.3711,-1.3616,-1.3528,-1.3492,-1.3492,-1.3492,-1.0721,-1.0721,-1.0721,-1.0697,-1.0626,-1.0395,-1.0259,-1.0185,-0.993,-0.9819,-0.9819,-0.9819,-0.9819,-0.9819,-0.9819,-0.9819,-0.9819,-0.9819,-0.9812,-0.973,-0.9493,-0.9235,-0.9039,-0.896,-0.8937,-0.8937,-0.8937,-0.8937,-0.8871,-0.8849,-0.8855,-0.8864,-0.8815,-0.8848,-0.8901,-0.8928,-0.8928,-0.8973,-0.9027,-0.913,-0.9286,-0.9286,-0.943,-0.9579,-0.9579,-0.9579,-0.9628,-0.9624,-0.9539,-0.942,-0.9598,-0.9763,-0.9868,-1.0144,-1.0492,-1.0854,-1.113,-1.1424,-1.1785,-1.2203,-1.2534,-1.2796,-1.3094,-1.3398,-1.3695,-1.3779,-1.3906,-1.4039,-1.4088,-1.4095,-1.4095,-1.4108,-1.4108,-1.4088,-1.4142,-1.4122,-1.4088,-1.4088,-1.4088,-1.4088,-1.4088,-1.4088,-1.4088,-1.4088,-1.4088,-1.4088,-1.4088,-1.4088,-1.4088,-1.4088,-1.4088,-1.4088,-1.4088,-1.4088,-1.4088,-1.4088,-1.4088,-1.4088,-1.4088,-1.4088,-1.4088,-1.4124,-1.4188,-1.4261,-1.4138,-1.4065,-1.4087,-1.4052,-1.3961,-1.379,-1.3645,-1.3513,-1.3514,-1.3492,-1.3492,-1.0721,-1.0721,-1.0721,-1.0721,-1.068,-1.0405,-1.0343,-1.0219,-0.9961,-0.9819,-0.9819,-0.9819,-0.9819,-0.9819,-0.9819,-0.9819,-0.9819,-0.9819,-0.9819,-0.9771,-0.9517,-0.9228,-0.9005,-0.8937,-0.8937,-0.8937,-0.8937,-0.8937,-0.8871,-0.879,-0.875,-0.8723,-0.8661,-0.8653,-0.8641,-0.863,-0.873,-0.8775,-0.8775,-0.8878,-0.9034,-0.9034,-0.908,-0.9225,-0.9278,-0.9229,-0.9274,-0.9274,-0.9322,-0.949,-0.97,-0.9817,-0.978,-1.0138,-1.049,-1.0814,-1.1037,-1.1314,-1.1647,-1.1971,-1.224,-1.2534,-1.279,-1.3094,-1.3349,-1.3525,-1.3652,-1.3779,-1.4018,-1.4127,-1.421,-1.4332,-1.4442,-1.4526,-1.4456,-1.4355,-1.4128,-1.4088,-1.4088,-1.4088,-1.4088,-1.4088,-1.4088,-1.4095,-1.4095,-1.4088,-1.4088,-1.4088,-1.4088,-1.4088,-1.4102,-1.4079,-1.4059,-1.4046,-1.4088,-1.4082,-1.4088,-1.4088,-1.4088,-1.4088,-1.4088,-1.4088,-1.4159,-1.4196,-1.4144,-1.4118,-1.4107,-1.4083,-1.3967,-1.3839,-1.3663,-1.3535,-1.3506,-1.3455,-1.3455,-1.0721,-1.0721,-1.0721,-1.0721,-1.0673,-1.0409,-1.0343,-1.0222,-0.9954,-0.9819,-0.9819,-0.9819,-0.9819,-0.9819,-0.9819,-0.9819,-0.9819,-0.9819,-0.9778,-0.9686,-0.9483,-0.9225,-0.8964,-0.8937,-0.8937,-0.8937,-0.8937,-0.8937,-0.8878,-0.8871,-0.8726,-0.863,-0.8548,-0.8484,-0.8428,-0.8404,-0.8482,-0.8627,-0.8627,-0.8676,-0.873,-0.8779,-0.8829,-0.8878,-0.8878,-0.8878,-0.8874,-0.8874,-0.9015,-0.9476,-0.9772,-0.982,-0.9769,-1.0193,-1.0466,-1.0561,-1.0828,-1.1155,-1.1575,-1.1751,-1.1935,-1.2337,-1.2585,-1.2832,-1.3157,-1.3367,-1.3496,-1.3681,-1.3946,-1.4193,-1.4327,-1.4657,-1.4819,-1.4856,-1.4955,-1.4727,-1.4335,-1.4175,-1.4218,-1.4224,-1.4195,-1.4182,-1.4175,-1.4182,-1.4159,-1.4279,-1.4203,-1.413,-1.4084,-1.4031,-1.4005,-1.3995,-1.3992,-1.4004,-1.4039,-1.4082,-1.4088,-1.4088,-1.4088,-1.4088,-1.4088,-1.4088,-1.4088,-1.4084,-1.4094,-1.4089,-1.409,-1.4067,-1.3957,-1.3875,-1.3703,-1.3581,-1.3498,-1.3426,-1.3382,-1.0721,-1.0721,-1.0721,-1.0721,-1.067,-1.0409,-1.0343,-1.0253,-0.9954,-0.9819,-0.9819,-0.9819,-0.9819,-0.9819,-0.9819,-0.9819,-0.9819,-0.9808,-0.971,-0.9473,-0.9432,-0.9215,-0.8991,-0.8937,-0.8937,-0.8937,-0.8937,-0.8937,-0.8937,-0.8868,-0.879,-0.8672,-0.8523,-0.8449,-0.8333,-0.8189,-0.8088,-0.8187,-0.8187,-0.8333,-0.8478,-0.8482,-0.8581,-0.8726,-0.8775,-0.8775,-0.8775,-0.8775,-0.8874,-0.9023,-0.9225,-0.9501,-0.9783,-0.9917,-1.0166,-1.056,-1.0627,-1.0871,-1.1314,-1.1676,-1.1977,-1.2108,-1.245,-1.2884,-1.3338,-1.3398,-1.3633,-1.3932,-1.4123,-1.4244,-1.4507,-1.4603,-1.483,-1.4953,-1.5023,-1.4963,-1.481,-1.48,-1.4723,-1.473,-1.473,-1.4807,-1.475,-1.4526,-1.4445,-1.444,-1.4351,-1.4231,-1.4134,-1.3999,-1.3997,-1.3989,-1.3913,-1.389,-1.3913,-1.3965,-1.4039,-1.4088,-1.4088,-1.4088,-1.4088,-1.4088,-1.4088,-1.4088,-1.4117,-1.4107,-1.4096,-1.4056,-1.3952,-1.387,-1.3744,-1.3574,-1.3431,-1.3379,-1.3273,-1.0721,-1.0721,-1.0721,-1.0721,-1.0673,-1.0412,-1.0343,-1.0222,-0.9954,-0.9819,-0.9819,-0.9819,-0.9819,-0.9819,-0.9819,-0.9819,-0.9819,-0.9815,-0.9663,-0.9442,-0.9371,-0.9218,-0.8991,-0.8937,-0.8937,-0.8937,-0.8937,-0.8937,-0.8937,-0.8871,-0.8804,-0.871,-0.856,-0.8408,-0.8269,-0.8066,-0.7995,-0.7988,-0.7988,-0.8088,-0.8187,-0.8237,-0.8233,-0.8382,-0.8432,-0.8432,-0.8382,-0.8379,-0.8482,-0.863,-0.8783,-0.9084,-0.9571,-0.9783,-1.0021,-1.0325,-1.0645,-1.0726,-1.1086,-1.1415,-1.1757,-1.1957,-1.2226,-1.2632,-1.2956,-1.3144,-1.328,-1.3635,-1.3896,-1.4243,-1.4745,-1.4823,-1.4909,-1.5002,-1.5048,-1.5048,-1.5009,-1.4917,-1.4822,-1.4777,-1.4655,-1.4578,-1.4559,-1.4585,-1.4488,-1.4334,-1.4315,-1.4193,-1.4212,-1.4104,-1.4091,-1.4046,-1.3872,-1.3793,-1.3804,-1.3861,-1.3962,-1.4039,-1.4088,-1.4088,-1.4088,-1.4088,-1.4088,-1.4088,-1.4088,-1.4124,-1.4114,-1.4041,-1.3967,-1.3919,-1.3751,-1.3528,-1.3369,-1.3332,-1.3209,-1.0721,-1.0721,-1.0721,-1.0707,-1.0643,-1.0399,-1.0263,-1.0195,-0.9944,-0.9819,-0.9819,-0.9819,-0.9819,-0.9819,-0.9819,-0.9819,-0.9819,-0.9802,-0.9663,-0.9412,-0.9381,-0.9205,-0.9001,-0.8937,-0.8937,-0.8937,-0.8937,-0.8937,-0.8937,-0.893,-0.8828,-0.8737,-0.856,-0.8435,-0.8296,-0.813,-0.7988,-0.7988,-0.7988,-0.7988,-0.8038,-0.8038,-0.8038,-0.8088,-0.8088,-0.8088,-0.8088,-0.8088,-0.8141,-0.8333,-0.8382,-0.8634,-0.908,-0.9579,-0.992,-0.9961,-1.0338,-1.0612,-1.0771,-1.108,-1.1496,-1.1868,-1.1976,-1.2259,-1.2599,-1.2818,-1.2968,-1.3286,-1.3671,-1.4186,-1.4895,-1.4953,-1.5019,-1.5086,-1.5112,-1.5131,-1.5048,-1.4823,-1.4702,-1.4695,-1.474,-1.4687,-1.455,-1.4517,-1.4382,-1.4228,-1.4221,-1.4221,-1.4163,-1.4132,-1.408,-1.405,-1.3894,-1.3773,-1.3796,-1.366,-1.377,-1.3906,-1.3997,-1.4039,-1.4039,-1.4088,-1.4088,-1.4088,-1.4088,-1.4124,-1.4124,-1.4099,-1.4013,-1.3947,-1.3818,-1.358,-1.3445,-1.3293,-1.313,-1.0721,-1.0721,-1.0721,-1.0649,-1.0514,-1.0348,-1.0209,-1.0007,-0.9839,-0.9822,-0.9819,-0.9819,-0.9819,-0.9819,-0.9819,-0.9819,-0.9819,-0.9805,-0.9663,-0.9422,-0.9371,-0.9222,-0.8988,-0.8937,-0.8937,-0.8937,-0.8937,-0.8937,-0.8937,-0.8933,-0.8858,-0.8838,-0.8615,-0.8507,-0.8367,-0.8147,-0.7988,-0.7988,-0.7988,-0.7988,-0.7988,-0.7988,-0.7988,-0.7988,-0.7988,-0.7988,-0.7988,-0.7988,-0.8038,-0.8088,-0.8287,-0.8435,-0.8634,-0.908,-0.943,-0.9665,-0.9981,-1.028,-1.0462,-1.09,-1.1177,-1.1429,-1.1674,-1.2171,-1.256,-1.2752,-1.2883,-1.3309,-1.3635,-1.407,-1.4388,-1.4592,-1.4838,-1.4987,-1.4987,-1.4987,-1.4956,-1.4766,-1.4612,-1.4675,-1.4772,-1.4785,-1.4521,-1.4337,-1.4231,-1.4113,-1.4119,-1.4084,-1.409,-1.4011,-1.3886,-1.3881,-1.3884,-1.3843,-1.3837,-1.3595,-1.3557,-1.3659,-1.3779,-1.3906,-1.3955,-1.4082,-1.4088,-1.4039,-1.4046,-1.4088,-1.4088,-1.4088,-1.4041,-1.3915,-1.3809,-1.3621,-1.3414,-1.3198,-1.3065,-1.0721,-1.0721,-1.0721,-1.0629,-1.0483,-1.0341,-1.0192,-0.9977,-0.989,-0.9819,-0.9819,-0.9819,-0.9819,-0.9819,-0.9819,-0.9819,-0.9819,-0.9819,-0.9652,-0.9435,-0.9364,-0.9225,-0.8908,-0.8937,-0.8937,-0.8937,-0.8937,-0.8937,-0.8937,-0.8937,-0.8937,-0.8866,-0.8632,-0.8535,-0.8414,-0.814,-0.8015,-0.7992,-0.7988,-0.7988,-0.7988,-0.7988,-0.7988,-0.7988,-0.7988,-0.7988,-0.7988,-0.7988,-0.7988,-0.8038,-0.8137,-0.8187,-0.8336,-0.8584,-0.8981,-0.9331,-0.9628,-0.992,-1.0167,-1.056,-1.0841,-1.1042,-1.1394,-1.1736,-1.2078,-1.2306,-1.2608,-1.305,-1.3491,-1.3732,-1.3877,-1.4016,-1.4118,-1.4214,-1.431,-1.431,-1.4262,-1.4166,-1.4262,-1.4358,-1.4262,-1.4238,-1.4316,-1.416,-1.4052,-1.4022,-1.3968,-1.3919,-1.3913,-1.3814,-1.3673,-1.3743,-1.3688,-1.3635,-1.3596,-1.3474,-1.3354,-1.3468,-1.3561,-1.3695,-1.3779,-1.387,-1.3913,-1.387,-1.3913,-1.3997,-1.4046,-1.4004,-1.3955,-1.3864,-1.3697,-1.347,-1.33,-1.3132,-1.3002,-1.0721,-1.0717,-1.0687,-1.0588,-1.0439,-1.0293,-1.0144,-0.9936,-0.9873,-0.9819,-0.9819,-0.9819,-0.9819,-0.9819,-0.9819,-0.9819,-0.9819,-0.9819,-0.9652,-0.9432,-0.9374,-0.9222,-0.9008,-0.8937,-0.8937,-0.8937,-0.8937,-0.8937,-0.8937,-0.8937,-0.8937,-0.8872,-0.8652,-0.8555,-0.8428,-0.8235,-0.8059,-0.7992,-0.7988,-0.7988,-0.7988,-0.7988,-0.7988,-0.7988,-0.7988,-0.7988,-0.7988,-0.7988,-0.7988,-0.7988,-0.7988,-0.7988,-0.8041,-0.8187,-0.8535,-0.8985,-0.9282,-0.9525,-0.9821,-1.0068,-1.0364,-1.056,-1.0904,-1.1149,-1.1438,-1.178,-1.2122,-1.2613,-1.3001,-1.3298,-1.3346,-1.3394,-1.3491,-1.3545,-1.3588,-1.3545,-1.3636,-1.3636,-1.363,-1.3684,-1.3642,-1.3738,-1.3835,-1.3835,-1.3781,-1.363,-1.3534,-1.3437,-1.3437,-1.3485,-1.3442,-1.3504,-1.3454,-1.335,-1.3272,-1.325,-1.3199,-1.3299,-1.3346,-1.344,-1.3525,-1.3652,-1.3652,-1.3652,-1.3737,-1.3779,-1.3828,-1.3828,-1.3737,-1.361,-1.3476,-1.3406,-1.3294,-1.3162,-1.299,-1.0721,-1.0707,-1.0575,-1.0436,-1.029,-1.0148,-0.9933,-0.9859,-0.9832,-0.9819,-0.9819,-0.9819,-0.9819,-0.9819,-0.9819,-0.9819,-0.9819,-0.9785,-0.9649,-0.9412,-0.9354,-0.9205,-0.8919,-0.894,-0.8937,-0.8937,-0.8937,-0.8937,-0.8937,-0.8937,-0.8937,-0.8893,-0.8764,-0.8618,-0.8469,-0.8299,-0.818,-0.8015,-0.7988,-0.7988,-0.7988,-0.7988,-0.7988,-0.7988,-0.7988,-0.7988,-0.7988,-0.7988,-0.7988,-0.7988,-0.7988,-0.7988,-0.7988,-0.7988,-0.8184,-0.8482,-0.8726,-0.9027,-0.9282,-0.9525,-0.9821,-1.0068,-1.0364,-1.0605,-1.0949,-1.134,-1.1731,-1.2024,-1.237,-1.2662,-1.2856,-1.3007,-1.3201,-1.3298,-1.3249,-1.3346,-1.3394,-1.305,-1.305,-1.305,-1.3007,-1.3201,-1.3389,-1.3443,-1.3443,-1.3292,-1.3147,-1.3001,-1.2958,-1.2953,-1.3001,-1.3054,-1.318,-1.311,-1.3044,-1.3023,-1.3073,-1.3105,-1.3133,-1.3193,-1.3355,-1.344,-1.3434,-1.3476,-1.3519,-1.3476,-1.3398,-1.3398,-1.3398,-1.3349,-1.3222,-1.3264,-1.3379,-1.3201,-1.2851,-1.0588,-1.0585,-1.0521,-1.0361,-1.0154,-1.0011,-0.9903,-0.9842,-0.9819,-0.9819,-0.9819,-0.9819,-0.9819,-0.9819,-0.9819,-0.9819,-0.9741,-0.9741,-0.9591,-0.9391,-0.9347,-0.9144,-0.8984,-0.8937,-0.8937,-0.8937,-0.8937,-0.8937,-0.8937,-0.8937,-0.8937,-0.8913,-0.8788,-0.8628,-0.8486,-0.8343,-0.8191,-0.8082,-0.7988,-0.7988,-0.7988,-0.7988,-0.7988,-0.7988,-0.7988,-0.7988,-0.7988,-0.7988,-0.7988,-0.7988,-0.7988,-0.7988,-0.7988,-0.7988,-0.8088,-0.8134,-0.8283,-0.8531,-0.8928,-0.9076,-0.9327,-0.9529,-0.9821,-1.0117,-1.0507,-1.09,-1.1243,-1.1536,-1.1785,-1.2029,-1.2273,-1.2419,-1.2511,-1.2613,-1.2759,-1.271,-1.271,-1.2657,-1.2511,-1.2467,-1.2419,-1.2516,-1.2608,-1.2565,-1.2613,-1.2613,-1.2511,-1.2467,-1.237,-1.2365,-1.2414,-1.2511,-1.2678,-1.2899,-1.2875,-1.2824,-1.292,-1.293,-1.2871,-1.2977,-1.3138,-1.3222,-1.3168,-1.3198,-1.3228,-1.3137,-1.2966,-1.3009,-1.3137,-1.3052,-1.2918,-1.2881,-1.2845,-1.2613,-1.2265,-1.0191,-1.0192,-1.0317,-1.0253,-0.9987,-0.9947,-0.9866,-0.9829,-0.9819,-0.9819,-0.9819,-0.9819,-0.9819,-0.9819,-0.9819,-0.9819,-0.9808,-0.9673,-0.9527,-0.9374,-0.9282,-0.9083,-0.8977,-0.8937,-0.8937,-0.8937,-0.8937,-0.8937,-0.8937,-0.8937,-0.8937,-0.8933,-0.8845,-0.8665,-0.8503,-0.8381,-0.8252,-0.8005,-0.7988,-0.7988,-0.7988,-0.7988,-0.7988,-0.7988,-0.7988,-0.7988,-0.7988,-0.7988,-0.7988,-0.7988,-0.7988,-0.7988,-0.7988,-0.7988,-0.7988,-0.8038,-0.8088,-0.8187,-0.8482,-0.868,-0.8829,-0.908,-0.9381,-0.9727,-1.0117,-1.0458,-1.0703,-1.0998,-1.1145,-1.1389,-1.1639,-1.1683,-1.1829,-1.1927,-1.198,-1.1927,-1.1878,-1.1975,-1.1878,-1.1683,-1.1634,-1.1585,-1.1634,-1.1585,-1.1688,-1.1883,-1.1883,-1.1878,-1.1878,-1.1878,-1.2024,-1.2127,-1.229,-1.2566,-1.2624,-1.2639,-1.2721,-1.2768,-1.2715,-1.2718,-1.2903,-1.2887,-1.2794,-1.2844,-1.2912,-1.2717,-1.246,-1.2674,-1.2839,-1.2625,-1.2418,-1.2246,-1.2118,-1.1909,-1.1789,-0.9438,-0.9212,-0.9774,-1.0007,-0.997,-0.9893,-0.9832,-0.9819,-0.9819,-0.9819,-0.9819,-0.9819,-0.9819,-0.9819,-0.9819,-0.9815,-0.9805,-0.9669,-0.9507,-0.9357,-0.9225,-0.9066,-0.8974,-0.8937,-0.8937,-0.8937,-0.8937,-0.8937,-0.8937,-0.8937,-0.8937,-0.893,-0.8896,-0.8723,-0.856,-0.8435,-0.8269,-0.8042,-0.7988,-0.7988,-0.7988,-0.7988,-0.7988,-0.7988,-0.7988,-0.7988,-0.7988,-0.7988,-0.7988,-0.7988,-0.7988,-0.7988,-0.7988,-0.7988,-0.7988,-0.7988,-0.7988,-0.8088,-0.8187,-0.8333,-0.8581,-0.8832,-0.908,-0.9331,-0.9624,-0.9871,-1.0167,-1.0413,-1.0556,-1.0703,-1.0855,-1.0949,-1.1194,-1.134,-1.1394,-1.1438,-1.1438,-1.1487,-1.134,-1.0998,-1.09,-1.0949,-1.0949,-1.1002,-1.1145,-1.134,-1.1394,-1.1389,-1.1487,-1.1536,-1.1731,-1.1883,-1.198,-1.215,-1.2377,-1.2406,-1.2507,-1.2603,-1.2659,-1.2553,-1.2576,-1.2545,-1.2554,-1.2417,-1.2445,-1.2201,-1.2037,-1.2198,-1.2235,-1.2118,-1.1952,-1.1817,-1.1639,-1.1467,-1.1381,-0.9217,-0.9118,-0.9276,-0.9423,-0.9597,-0.9724,-0.9819,-0.9819,-0.9819,-0.9819,-0.9819,-0.9819,-0.9819,-0.9819,-0.9812,-0.9768,-0.968,-0.9534,-0.9388,-0.9235,-0.9089,-0.8998,-0.894,-0.8937,-0.8937,-0.8937,-0.8937,-0.8937,-0.8937,-0.8937,-0.8937,-0.8937,-0.8937,-0.8818,-0.8655,-0.8445,-0.8238,-0.8109,-0.7988,-0.7988,-0.7988,-0.7988,-0.7988,-0.7988,-0.7988,-0.7988,-0.7988,-0.7988,-0.7988,-0.7988,-0.7988,-0.7988,-0.7988,-0.7988,-0.7988,-0.7988,-0.7988,-0.7988,-0.7988,-0.8137,-0.8283,-0.8531,-0.8783,-0.8981,-0.913,-0.9381,-0.9628,-0.9821,-1.0019,-1.0167,-1.0458,-1.056,-1.0659,-1.0806,-1.0904,-1.0904,-1.0953,-1.1002,-1.0904,-1.056,-1.0556,-1.0556,-1.0511,-1.0462,-1.0654,-1.0801,-1.0855,-1.0904,-1.1047,-1.1194,-1.134,-1.1487,-1.1634,-1.178,-1.196,-1.2126,-1.2225,-1.241,-1.2532,-1.2433,-1.2366,-1.2454,-1.2428,-1.2237,-1.2022,-1.1847,-1.177,-1.1688,-1.1634,-1.1596,-1.151,-1.1419,-1.1241,-1.103,-1.0944,-0.8661,-0.8617,-0.8713,-0.8915,-0.9217,-0.946,-0.9582,-0.964,-0.9636,-0.97,-0.9819,-0.9819,-0.9819,-0.9815,-0.9764,-0.9713,-0.9578,-0.9418,-0.9273,-0.914,-0.9032,-0.895,-0.8937,-0.8937,-0.8937,-0.8937,-0.8937,-0.8937,-0.8937,-0.8937,-0.8937,-0.8937,-0.8927,-0.8838,-0.8672,-0.8428,-0.8197,-0.8025,-0.7988,-0.7988,-0.7988,-0.7988,-0.7988,-0.7988,-0.7988,-0.7988,-0.7988,-0.7988,-0.7988,-0.7988,-0.7988,-0.7988,-0.7988,-0.7988,-0.7988,-0.7988,-0.7988,-0.7988,-0.7988,-0.8038,-0.8088,-0.8283,-0.8531,-0.863,-0.873,-0.8931,-0.9229,-0.9327,-0.9525,-0.9772,-1.0015,-0.9969,-1.0167,-1.0314,-1.0413,-1.0413,-1.0413,-1.0413,-1.0314,-1.0167,-1.0167,-1.0113,-1.0117,-1.0068,-1.0314,-1.0458,-1.0609,-1.0659,-1.0703,-1.0801,-1.09,-1.1047,-1.1243,-1.1438,-1.158,-1.1774,-1.1923,-1.2154,-1.2278,-1.2204,-1.2194,-1.2246,-1.2131,-1.1819,-1.1627,-1.1543,-1.1429,-1.1288,-1.1202,-1.116,-1.1025,-1.0895,-1.0771,-1.0598,-1.0511,-0.7555,-0.7516,-0.8125,-0.8552,-0.8793,-0.8915,-0.9098,-0.9335,-0.9339,-0.9457,-0.9761,-0.9761,-0.9758,-0.9731,-0.9703,-0.9618,-0.9523,-0.9303,-0.9207,-0.9096,-0.9001,-0.8947,-0.8937,-0.8937,-0.8937,-0.8937,-0.8937,-0.8937,-0.8937,-0.8937,-0.8937,-0.8937,-0.8927,-0.8845,-0.8693,-0.8425,-0.8204,-0.8012,-0.7992,-0.7988,-0.7988,-0.7988,-0.7988,-0.7988,-0.7988,-0.7988,-0.7988,-0.7988,-0.7988,-0.7988,-0.7988,-0.7988,-0.7988,-0.7988,-0.7988,-0.7988,-0.7988,-0.7988,-0.7988,-0.7988,-0.8038,-0.8088,-0.8336,-0.8382,-0.8428,-0.863,-0.8829,-0.8928,-0.8973,-0.908,-0.9183,-0.9335,-0.9575,-0.9719,-0.9817,-0.9867,-0.9817,-0.9817,-0.9719,-0.9727,-0.9677,-0.9624,-0.9624,-0.9723,-0.9969,-1.0167,-1.0364,-1.0413,-1.0413,-1.0462,-1.0507,-1.0703,-1.09,-1.1096,-1.1292,-1.1443,-1.1668,-1.1863,-1.2007,-1.198,-1.1925,-1.1869,-1.1693,-1.1451,-1.1383,-1.1352,-1.111,-1.0852,-1.0703,-1.0594,-1.0472,-1.0381,-1.025,-1.0168,-1.0125,-0.7116,-0.7084,-0.7329,-0.7452,-0.7694,-0.8546,-0.8976,-0.9037,-0.9037,-0.9217,-0.94,-0.9457,-0.964,-0.9717,-0.9666,-0.9551,-0.9422,-0.9276,-0.9187,-0.9008,-0.8957,-0.8947,-0.8937,-0.8937,-0.8937,-0.8937,-0.8937,-0.8937,-0.8937,-0.8937,-0.8937,-0.8937,-0.892,-0.8791,-0.8608,-0.8414,-0.8303,-0.8035,-0.7988,-0.7988,-0.7988,-0.7988,-0.7988,-0.7988,-0.7988,-0.7988,-0.7988,-0.7988,-0.7988,-0.7988,-0.7988,-0.7988,-0.7988,-0.7988,-0.7988,-0.7988,-0.7988,-0.7988,-0.7988,-0.7988,-0.7988,-0.8038,-0.8088,-0.8137,-0.8134,-0.8382,-0.8482,-0.8577,-0.8676,-0.8779,-0.8928,-0.8977,-0.9126,-0.9122,-0.9171,-0.9171,-0.9171,-0.9171,-0.9126,-0.9331,-0.9335,-0.948,-0.9525,-0.9575,-0.9772,-0.9821,-1.0019,-1.0117,-1.0117,-1.0167,-1.0216,-1.0413,-1.0609,-1.0752,-1.0949,-1.11,-1.1292,-1.1526,-1.1673,-1.1833,-1.1742,-1.1604,-1.1567,-1.1432,-1.1312,-1.1146,-1.082,-1.0487,-1.02,-0.9987,-1.0017,-0.9975,-0.9864,-0.9777,-0.9689,-0.6532,-0.6594,-0.6778,-0.6903,-0.7084,-0.7939,-0.8488,-0.8735,-0.8857,-0.8976,-0.9156,-0.9156,-0.93,-0.9473,-0.9417,-0.939,-0.9296,-0.9147,-0.9059,-0.8885,-0.8937,-0.8937,-0.8937,-0.8937,-0.8937,-0.8937,-0.8937,-0.8937,-0.8937,-0.8937,-0.8937,-0.8937,-0.893,-0.876,-0.8577,-0.8445,-0.833,-0.8073,-0.7988,-0.7988,-0.7988,-0.7988,-0.7988,-0.7988,-0.7988,-0.7988,-0.7988,-0.7988,-0.7988,-0.7988,-0.7988,-0.7988,-0.7988,-0.7988,-0.7988,-0.7988,-0.7988,-0.7988,-0.7988,-0.7988,-0.7988,-0.7988,-0.7988,-0.7988,-0.7988,-0.8187,-0.8237,-0.8336,-0.8482,-0.8581,-0.863,-0.863,-0.8676,-0.8726,-0.8772,-0.8775,-0.8825,-0.8825,-0.8878,-0.9034,-0.9133,-0.9278,-0.9426,-0.9525,-0.9673,-0.9673,-0.9624,-0.9723,-0.9871,-0.992,-0.9969,-1.0167,-1.0314,-1.0462,-1.0556,-1.0659,-1.09,-1.1145,-1.1292,-1.1438,-1.1468,-1.1327,-1.1371,-1.1403,-1.1099,-1.0809,-1.0463,-1.0159,-0.994,-0.9786,-0.9762,-0.9663,-0.9494,-0.9432,-0.9388,-0.5855,-0.5978,-0.6591,-0.6778,-0.69,-0.7202,-0.7691,-0.8308,-0.8674,-0.879,-0.8842,-0.883,-0.8941,-0.9041,-0.8913,-0.8961,-0.9057,-0.8969,-0.8912,-0.8888,-0.8937,-0.8937,-0.8937,-0.8937,-0.8937,-0.8937,-0.8937,-0.8937,-0.8937,-0.8937,-0.8937,-0.8937,-0.8937,-0.8767,-0.8608,-0.8469,-0.8323,-0.8073,-0.7988,-0.7988,-0.7988,-0.7988,-0.7988,-0.7988,-0.7988,-0.7988,-0.7988,-0.7988,-0.7988,-0.7988,-0.7988,-0.7988,-0.7988,-0.7988,-0.7988,-0.7988,-0.7988,-0.7988,-0.7988,-0.7988,-0.7988,-0.7988,-0.7988,-0.7988,-0.7988,-0.8041,-0.8088,-0.8088,-0.8187,-0.8287,-0.8336,-0.8432,-0.8482,-0.8531,-0.8627,-0.8676,-0.8676,-0.873,-0.873,-0.8779,-0.8829,-0.8977,-0.9179,-0.9327,-0.948,-0.9529,-0.9529,-0.9624,-0.9723,-0.9723,-0.9772,-0.992,-1.0019,-1.0117,-1.0216,-1.0364,-1.0511,-1.0752,-1.0801,-1.09,-1.0939,-1.0984,-1.1035,-1.0969,-1.0702,-1.0444,-1.0251,-1.005,-0.9771,-0.967,-0.9538,-0.9389,-0.9253,-0.9266,-0.9213,-0.5179,-0.5179,-0.5425,-0.5486,-0.5548,-0.6099,-0.6714,-0.7327,-0.7691,-0.7895,-0.8102,-0.8288,-0.8453,-0.8669,-0.8541,-0.8638,-0.8715,-0.8739,-0.8791,-0.8826,-0.8826,-0.8881,-0.8881,-0.8881,-0.8881,-0.8937,-0.8937,-0.8937,-0.8937,-0.8937,-0.8937,-0.8937,-0.8937,-0.8801,-0.8665,-0.8533,-0.8306,-0.8079,-0.8005,-0.7988,-0.7988,-0.7988,-0.7988,-0.7988,-0.7988,-0.7988,-0.7988,-0.7988,-0.7988,-0.7988,-0.7988,-0.7988,-0.7988,-0.7988,-0.7988,-0.7988,-0.7988,-0.7988,-0.7988,-0.7988,-0.7988,-0.7988,-0.7988,-0.7988,-0.7988,-0.7988,-0.7988,-0.7988,-0.7988,-0.8137,-0.8187,-0.8187,-0.8237,-0.8283,-0.8382,-0.8382,-0.8382,-0.8382,-0.8432,-0.8531,-0.8581,-0.8775,-0.8928,-0.913,-0.9282,-0.9331,-0.943,-0.9529,-0.9579,-0.9579,-0.9624,-0.9772,-0.9821,-0.992,-1.0019,-1.0117,-1.0261,-1.0359,-1.0458,-1.0511,-1.0551,-1.065,-1.0654,-1.0574,-1.0453,-1.0307,-1.0144,-0.9923,-0.969,-0.9423,-0.9242,-0.9114,-0.9023,-0.9042,-0.9007,-0.4687,-0.4749,-0.4872,-0.4935,-0.4996,-0.5364,-0.5716,-0.6174,-0.6834,-0.7216,-0.7391,-0.7641,-0.785,-0.8026,-0.8058,-0.8222,-0.8376,-0.8366,-0.8377,-0.8491,-0.8716,-0.8712,-0.8768,-0.8826,-0.8881,-0.8881,-0.8881,-0.8937,-0.8937,-0.8937,-0.8937,-0.8937,-0.8937,-0.8845,-0.871,-0.8547,-0.8367,-0.8194,-0.8085,-0.7998,-0.7988,-0.7988,-0.7988,-0.7988,-0.7988,-0.7988,-0.7988,-0.7988,-0.7988,-0.7988,-0.7988,-0.7988,-0.7988,-0.7988,-0.7988,-0.7988,-0.7988,-0.7988,-0.7988,-0.7988,-0.7988,-0.7988,-0.7988,-0.7988,-0.7988,-0.7988,-0.7988,-0.7988,-0.7988,-0.7988,-0.7988,-0.7988,-0.7988,-0.8038,-0.8038,-0.8038,-0.8038,-0.8038,-0.8137,-0.8233,-0.8382,-0.8577,-0.873,-0.8931,-0.9034,-0.908,-0.913,-0.9229,-0.9377,-0.9529,-0.9579,-0.9673,-0.9673,-0.9673,-0.9772,-0.9871,-0.9969,-1.0068,-1.0167,-1.0216,-1.0261,-1.031,-1.0413,-1.0364,-1.0252,-1.0064,-0.993,-0.9793,-0.9602,-0.9376,-0.9236,-0.9183,-0.9009,-0.8875,-0.8794,-0.4315,-0.4316,-0.4687,-0.4805,-0.4863,-0.4858,-0.4879,-0.4934,-0.6056,-0.6653,-0.6684,-0.6962,-0.7143,-0.728,-0.7525,-0.7753,-0.7932,-0.794,-0.8045,-0.7986,-0.8322,-0.8432,-0.8543,-0.8709,-0.8768,-0.8826,-0.8881,-0.8937,-0.8937,-0.8937,-0.8937,-0.8937,-0.8937,-0.8876,-0.8764,-0.857,-0.8411,-0.8299,-0.8136,-0.7988,-0.7988,-0.7988,-0.7988,-0.7988,-0.7988,-0.7988,-0.7988,-0.7988,-0.7988,-0.7988,-0.7988,-0.7988,-0.7988,-0.7988,-0.7988,-0.7988,-0.7988,-0.7988,-0.7988,-0.7988,-0.7988,-0.7988,-0.7988,-0.7988,-0.7988,-0.7988,-0.7988,-0.7988,-0.7988,-0.7988,-0.7988,-0.7988,-0.7988,-0.7988,-0.7988,-0.7988,-0.7988,-0.7988,-0.8038,-0.8137,-0.8233,-0.8382,-0.8432,-0.8584,-0.8783,-0.8779,-0.8878,-0.9027,-0.913,-0.9327,-0.9476,-0.9525,-0.9579,-0.9579,-0.9624,-0.9723,-0.9673,-0.9772,-0.9871,-0.992,-0.9969,-1.0068,-1.0216,-1.0117,-0.9969,-0.9871,-0.9735,-0.9665,-0.9624,-0.9477,-0.9359,-0.9306,-0.9131,-0.889,-0.8755,-0.3702,-0.3765,-0.401,-0.423,-0.4426,-0.4422,-0.4564,-0.479,-0.496,-0.5406,-0.5856,-0.6292,-0.6581,-0.6613,-0.6883,-0.7128,-0.739,-0.7549,-0.7771,-0.7878,-0.81,-0.8156,-0.8208,-0.8432,-0.8598,-0.8654,-0.8768,-0.8881,-0.8881,-0.8881,-0.8937,-0.8937,-0.8937,-0.8896,-0.879,-0.8635,-0.8448,-0.8387,-0.817,-0.7998,-0.7988,-0.7988,-0.7988,-0.7988,-0.7988,-0.7988,-0.7988,-0.7988,-0.7988,-0.7988,-0.7988,-0.7988,-0.7988,-0.7988,-0.7988,-0.7988,-0.7988,-0.7988,-0.7988,-0.7988,-0.7988,-0.7988,-0.7988,-0.7988,-0.7988,-0.7988,-0.7988,-0.7988,-0.7988,-0.7988,-0.7988,-0.7988,-0.7988,-0.7988,-0.7988,-0.7988,-0.7988,-0.7988,-0.7988,-0.8038,-0.8084,-0.8134,-0.8184,-0.8283,-0.8428,-0.8577,-0.8726,-0.8825,-0.8825,-0.8977,-0.9225,-0.9324,-0.9529,-0.9579,-0.9579,-0.9579,-0.9529,-0.9579,-0.9723,-0.9723,-0.9723,-0.9821,-0.992,-0.9772,-0.9673,-0.9628,-0.9628,-0.962,-0.9571,-0.9514,-0.9466,-0.9384,-0.9299,-0.9147,-0.8938,-0.3269,-0.3267,-0.3429,-0.363,-0.3823,-0.3876,-0.4018,-0.4252,-0.4381,-0.4576,-0.4942,-0.5558,-0.5926,-0.5993,-0.6325,-0.6548,-0.6824,-0.7049,-0.7215,-0.7379,-0.7712,-0.7823,-0.7934,-0.81,-0.8211,-0.8322,-0.8598,-0.8712,-0.8712,-0.8881,-0.8937,-0.8881,-0.8881,-0.8875,-0.8838,-0.8659,-0.8542,-0.8518,-0.8187,-0.8015,-0.7992,-0.7988,-0.7988,-0.7988,-0.7988,-0.7988,-0.7988,-0.7988,-0.7988,-0.7988,-0.7988,-0.7988,-0.7988,-0.7988,-0.7988,-0.7988,-0.7988,-0.7988,-0.7988,-0.7988,-0.7988,-0.7988,-0.7988,-0.7988,-0.7988,-0.7988,-0.7988,-0.7988,-0.7988,-0.7988,-0.7988,-0.7988,-0.7988,-0.7988,-0.7988,-0.7988,-0.7988,-0.7988,-0.7988,-0.7988,-0.8038,-0.8038,-0.8088,-0.8088,-0.8233,-0.8233,-0.8432,-0.8581,-0.8577,-0.8627,-0.8874,-0.9076,-0.9179,-0.9381,-0.9381,-0.943,-0.943,-0.9529,-0.9525,-0.9628,-0.9628,-0.9628,-0.9624,-0.9579,-0.9579,-0.9624,-0.9624,-0.9624,-0.9624,-0.9583,-0.9539,-0.949,-0.9409,-0.9332,-0.9185,-0.2946,-0.2999,-0.2901,-0.3036,-0.3231,-0.3228,-0.3372,-0.3616,-0.3838,-0.3923,-0.4047,-0.4821,-0.5204,-0.5485,-0.5877,-0.6102,-0.6328,-0.6606,-0.6715,-0.6826,-0.716,-0.7271,-0.7493,-0.7715,-0.7878,-0.81,-0.8322,-0.8429,-0.8429,-0.8654,-0.8823,-0.8881,-0.8881,-0.8937,-0.8852,-0.8689,-0.8523,-0.8435,-0.8255,-0.8042,-0.8002,-0.7988,-0.7988,-0.7988,-0.7988,-0.7988,-0.7988,-0.7988,-0.7988,-0.7988,-0.7988,-0.7988,-0.7988,-0.7988,-0.7988,-0.7988,-0.7988,-0.7988,-0.7988,-0.7988,-0.7988,-0.7988,-0.7988,-0.7988,-0.7988,-0.7988,-0.7988,-0.7988,-0.7988,-0.7988,-0.7988,-0.7988,-0.7988,-0.7988,-0.7988,-0.7988,-0.7988,-0.7988,-0.7988,-0.7988,-0.7988,-0.7988,-0.7988,-0.8038,-0.8038,-0.7988,-0.8038,-0.8184,-0.8283,-0.8333,-0.8482,-0.8581,-0.8684,-0.8832,-0.9084,-0.9179,-0.9229,-0.9229,-0.9278,-0.9426,-0.948,-0.943,-0.948,-0.9529,-0.9529,-0.9579,-0.9628,-0.9624,-0.9624,-0.9624,-0.9596,-0.9555,-0.9543,-0.9466,-0.9441,-0.2643,-0.2909,-0.2901,-0.2871,-0.2889,-0.2885,-0.2918,-0.2935,-0.3212,-0.3314,-0.3477,-0.3923,-0.437,-0.4702,-0.5316,-0.5596,-0.5652,-0.6044,-0.6328,-0.6439,-0.655,-0.6715,-0.6937,-0.7215,-0.7601,-0.7823,-0.7989,-0.8045,-0.8152,-0.8429,-0.8598,-0.8598,-0.8826,-0.8875,-0.8851,-0.8686,-0.8584,-0.8465,-0.8319,-0.816,-0.8005,-0.7988,-0.7988,-0.7988,-0.7988,-0.7988,-0.7988,-0.7988,-0.7988,-0.7988,-0.7988,-0.7988,-0.7988,-0.7988,-0.7988,-0.7988,-0.7988,-0.7988,-0.7988,-0.7988,-0.7988,-0.7988,-0.7988,-0.7988,-0.7988,-0.7988,-0.7988,-0.7988,-0.7988,-0.7988,-0.7988,-0.7988,-0.7988,-0.7988,-0.7988,-0.7988,-0.7988,-0.7988,-0.7988,-0.7988,-0.7988,-0.7988,-0.7988,-0.7988,-0.7988,-0.7988,-0.7988,-0.8088,-0.8088,-0.8137,-0.8137,-0.8187,-0.8287,-0.8482,-0.8779,-0.8878,-0.8924,-0.8928,-0.8977,-0.9126,-0.9179,-0.9236,-0.9232,-0.9278,-0.943,-0.9579,-0.9579,-0.9579,-0.9624,-0.9624,-0.9624,-0.9612,-0.9612,-0.9587,-0.9498]}]]